[[{"header":{"parameterUnit":"m.s-1","parameterCategory":1,"la1":30.6,"la2":29.2853,"lo1":-89.7004,"lo2":-87.6739,"dy":0.0162,"dx":0.0183,"nx":112,"ny":82,"refTime":"2024-07-15T00:00:00:Z","depth":0,"parameterNumber":2,"parameterNumberName":"U-component_of_WINDS"},"data":[0.0,0.0,0.0,0.0,0.0,0.0,0.0,0.0,0.0,0.0,0.0,0.0,0.0,0.0,0.0,0.0,0.0,0.0,0.0,0.0,0.0,0.0,0.0,0.0,0.0,0.0,0.0,0.0,0.0,0.0,0.0,0.0,0.0,0.0,0.0,0.0,0.0,0.0,0.0,0.0,0.0,0.0,0.0,0.0,0.0,0.0,0.0,0.0,0.0,0.0,0.0,0.0,0.0,0.0,0.0,0.0,0.0,0.0,0.0,0.0,0.0,0.0,0.0,0.0,0.0,0.0,0.0,0.0,0.0,0.0,0.0,0.0,0.0,0.0,0.0,0.0,0.0,0.0,0.0,0.0,0.0,0.0,0.0,0.0,0.0,0.0,0.0,0.0,0.0,0.0,0.0,-2.0358,-2.2205,-2.333,-2.3379,-2.3932,-2.2913,-1.9803,0.0,0.0,0.0,0.0,0.0,0.0,0.0,0.0,0.0,0.0,0.0,0.0,0.0,0.0,0.0,0.0,0.0,0.0,0.0,0.0,0.0,0.0,0.0,0.0,0.0,0.0,0.0,0.0,0.0,0.0,0.0,0.0,0.0,0.0,0.0,0.0,0.0,0.0,0.0,0.0,0.0,0.0,0.0,0.0,0.0,0.0,0.0,0.0,0.0,0.0,0.0,0.0,0.0,0.0,0.0,0.0,0.0,0.0,0.0,0.0,0.0,0.0,0.0,0.0,0.0,0.0,0.0,0.0,0.0,0.0,0.0,0.0,0.0,0.0,0.0,0.0,0.0,0.0,0.0,0.0,0.0,0.0,0.0,0.0,0.0,0.0,0.0,0.0,0.0,0.0,0.0,0.0,0.0,0.0,0.0,0.0,0.0,0.0,0.0,0.0,0.0,0.0,0.0,0.0,-1.7447,-2.0972,-2.2985,-2.3927,-2.3434,-2.3545,-2.237,-1.9377,0.0,0.0,0.0,0.0,0.0,0.0,0.0,0.0,0.0,0.0,0.0,0.0,0.0,0.0,0.0,0.0,0.0,0.0,0.0,0.0,0.0,0.0,0.0,0.0,0.0,0.0,0.0,0.0,0.0,0.0,0.0,0.0,0.0,0.0,0.0,0.0,0.0,0.0,0.0,0.0,0.0,0.0,0.0,0.0,0.0,0.0,0.0,0.0,0.0,0.0,0.0,0.0,0.0,0.0,0.0,0.0,0.0,0.0,0.0,0.0,0.0,0.0,0.0,0.0,0.0,0.0,0.0,0.0,0.0,0.0,0.0,0.0,0.0,0.0,0.0,0.0,0.0,0.0,0.0,0.0,0.0,0.0,0.0,0.0,0.0,0.0,0.0,0.0,0.0,0.0,0.0,0.0,0.0,0.0,0.0,0.0,0.0,0.0,0.0,0.0,0.0,0.0,0.0,-1.7144,-1.8881,-2.1262,-2.2792,-2.3725,-2.3919,-2.3289,-2.2057,-2.0076,-1.8047,0.0,0.0,0.0,0.0,0.0,0.0,0.0,0.0,0.0,0.0,0.0,0.0,0.0,0.0,0.0,0.0,0.0,0.0,0.0,0.0,0.0,0.0,0.0,0.0,0.0,0.0,0.0,0.0,0.0,0.0,0.0,0.0,0.0,0.0,0.0,0.0,0.0,0.0,0.0,0.0,0.0,0.0,0.0,0.0,0.0,0.0,0.0,0.0,0.0,0.0,0.0,0.0,0.0,0.0,0.0,0.0,0.0,0.0,0.0,0.0,0.0,0.0,0.0,0.0,0.0,0.0,0.0,0.0,0.0,0.0,0.0,0.0,0.0,0.0,0.0,0.0,0.0,0.0,0.0,0.0,0.0,0.0,0.0,0.0,0.0,0.0,0.0,0.0,0.0,0.0,0.0,0.0,0.0,0.0,0.0,0.0,0.0,0.0,0.0,0.0,0.0,0.0,-1.8927,-2.0383,-2.14,-2.2443,-2.3266,-2.3689,-2.2674,-2.136,-1.9814,-1.6762,0.0,0.0,0.0,0.0,0.0,0.0,0.0,0.0,0.0,0.0,0.0,0.0,0.0,0.0,0.0,0.0,0.0,0.0,0.0,0.0,0.0,0.0,0.0,0.0,0.0,0.0,0.0,0.0,0.0,0.0,0.0,0.0,0.0,0.0,0.0,0.0,0.0,0.0,0.0,0.0,0.0,0.0,0.0,0.0,0.0,0.0,0.0,0.0,0.0,0.0,0.0,0.0,0.0,0.0,0.0,0.0,0.0,0.0,0.0,0.0,0.0,0.0,0.0,0.0,0.0,0.0,0.0,0.0,0.0,0.0,0.0,0.0,0.0,0.0,0.0,0.0,0.0,0.0,0.0,0.0,0.0,0.0,0.0,0.0,0.0,0.0,0.0,0.0,0.0,0.0,0.0,0.0,0.0,0.0,0.0,0.0,0.0,0.0,0.0,0.0,0.0,0.0,-1.8796,-2.0785,-2.1423,-2.2443,-2.2728,-2.1787,-2.1238,-1.9729,-1.6978,-1.4975,0.0,0.0,0.0,0.0,0.0,0.0,0.0,0.0,0.0,0.0,0.0,0.0,0.0,0.0,0.0,0.0,0.0,0.0,0.0,0.0,0.0,0.0,0.0,0.0,0.0,0.0,0.0,0.0,0.0,0.0,0.0,0.0,0.0,0.0,0.0,0.0,0.0,0.0,0.0,0.0,0.0,0.0,0.0,0.0,0.0,0.0,0.0,0.0,0.0,0.0,0.0,0.0,0.0,0.0,0.0,0.0,0.0,0.0,0.0,0.0,0.0,0.0,0.0,0.0,0.0,0.0,0.0,0.0,0.0,0.0,0.0,0.0,0.0,0.0,0.0,0.0,0.0,0.0,0.0,0.0,0.0,0.0,0.0,0.0,0.0,0.0,0.0,0.0,0.0,0.0,0.0,0.0,0.0,0.0,0.0,0.0,0.0,0.0,0.0,0.0,0.0,0.0,-1.7907,-1.9724,0.0,-2.1857,-2.2103,-2.2061,-2.0886,-1.9265,-1.7136,0.0,0.0,0.0,0.0,0.0,0.0,0.0,0.0,0.0,0.0,0.0,0.0,0.0,0.0,0.0,0.0,0.0,0.0,0.0,0.0,0.0,0.0,0.0,0.0,0.0,0.0,0.0,0.0,0.0,0.0,0.0,0.0,0.0,0.0,0.0,0.0,0.0,0.0,0.0,0.0,0.0,0.0,0.0,0.0,0.0,0.0,0.0,0.0,0.0,0.0,0.0,0.0,0.0,0.0,0.0,0.0,0.0,0.0,0.0,0.0,0.0,0.0,0.0,0.0,0.0,0.0,0.0,0.0,0.0,0.0,0.0,0.0,0.0,0.0,0.0,0.0,0.0,0.0,0.0,0.0,0.0,0.0,0.0,0.0,0.0,0.0,0.0,0.0,0.0,0.0,0.0,0.0,0.0,0.0,0.0,0.0,0.0,0.0,0.0,0.0,0.0,0.0,-1.5601,-1.7435,-1.9183,0.0,-2.1408,-2.1599,-2.1832,-2.028,-1.8571,-1.6886,0.0,0.0,0.0,0.0,0.0,0.0,0.0,0.0,0.0,0.0,0.0,0.0,0.0,0.0,0.0,0.0,0.0,0.0,0.0,0.0,0.0,0.0,0.0,0.0,0.0,0.0,0.0,0.0,0.0,0.0,0.0,0.0,0.0,0.0,0.0,0.0,0.0,0.0,0.0,0.0,0.0,0.0,0.0,0.0,0.0,0.0,0.0,0.0,0.0,0.0,0.0,0.0,0.0,0.0,0.0,0.0,0.0,0.0,0.0,0.0,0.0,0.0,0.0,0.0,0.0,0.0,0.0,0.0,0.0,0.0,0.0,0.0,0.0,0.0,0.0,0.0,0.0,0.0,0.0,0.0,0.0,0.0,0.0,0.0,0.0,0.0,0.0,0.0,0.0,0.0,0.0,0.0,0.0,0.0,0.0,0.0,0.0,0.0,0.0,0.0,0.0,0.0,-1.5354,-1.7616,-1.9447,-2.0578,-2.1182,-2.1282,-2.0742,-1.9158,-1.7488,0.0,0.0,0.0,0.0,0.0,0.0,0.0,0.0,0.0,0.0,0.0,0.0,0.0,0.0,0.0,0.0,0.0,0.0,0.0,0.0,0.0,0.0,0.0,0.0,0.0,0.0,0.0,0.0,0.0,0.0,0.0,0.0,0.0,0.0,0.0,0.0,0.0,0.0,0.0,0.0,0.0,0.0,0.0,0.0,0.0,0.0,0.0,0.0,0.0,0.0,0.0,0.0,0.0,0.0,0.0,0.0,0.0,0.0,0.0,0.0,0.0,0.0,0.0,0.0,0.0,0.0,0.0,0.0,0.0,0.0,0.0,0.0,0.0,0.0,0.0,0.0,0.0,0.0,0.0,0.0,0.0,0.0,0.0,0.0,0.0,0.0,0.0,0.0,0.0,0.0,0.0,0.0,0.0,0.0,0.0,0.0,0.0,0.0,0.0,0.0,0.0,0.0,0.0,-1.5869,-1.7551,-1.902,-2.0528,-2.0465,-2.0401,-2.0679,-1.9158,-1.7325,-1.5261,0.0,0.0,0.0,0.0,0.0,0.0,0.0,0.0,0.0,0.0,0.0,0.0,0.0,0.0,0.0,0.0,0.0,0.0,0.0,0.0,0.0,0.0,0.0,0.0,0.0,0.0,0.0,0.0,0.0,0.0,0.0,0.0,0.0,0.0,0.0,0.0,0.0,0.0,0.0,0.0,0.0,0.0,0.0,0.0,0.0,0.0,0.0,0.0,0.0,0.0,0.0,0.0,0.0,0.0,0.0,0.0,0.0,0.0,0.0,0.0,0.0,0.0,0.0,0.0,0.0,0.0,0.0,0.0,0.0,0.0,0.0,0.0,0.0,0.0,0.0,0.0,0.0,0.0,0.0,0.0,0.0,0.0,0.0,0.0,0.0,0.0,0.0,0.0,0.0,0.0,0.0,0.0,0.0,0.0,0.0,0.0,0.0,0.0,0.0,0.0,0.0,0.0,-1.5793,-1.7375,-1.8744,-2.0201,-2.0012,-1.9936,-2.0314,-1.902,-1.7438,-1.5663,0.0,0.0,0.0,0.0,0.0,0.0,0.0,0.0,0.0,0.0,0.0,0.0,0.0,0.0,0.0,0.0,0.0,0.0,0.0,0.0,0.0,0.0,0.0,0.0,0.0,0.0,0.0,0.0,0.0,0.0,0.0,0.0,0.0,0.0,0.0,0.0,0.0,0.0,0.0,0.0,0.0,0.0,0.0,0.0,0.0,0.0,0.0,0.0,0.0,0.0,0.0,0.0,0.0,0.0,0.0,0.0,0.0,0.0,0.0,0.0,0.0,0.0,0.0,0.0,0.0,0.0,0.0,0.0,0.0,0.0,0.0,0.0,0.0,0.0,0.0,0.0,0.0,0.0,0.0,0.0,0.0,0.0,0.0,0.0,0.0,0.0,0.0,0.0,0.0,0.0,0.0,0.0,0.0,0.0,0.0,0.0,0.0,0.0,0.0,0.0,0.0,0.0,-1.5417,-1.7187,-1.8618,-1.9685,-1.9798,-1.9798,-1.9798,-1.8819,-1.7704,-1.6563,0.0,0.0,0.0,0.0,0.0,0.0,0.0,0.0,0.0,0.0,0.0,0.0,0.0,0.0,0.0,0.0,0.0,0.0,0.0,0.0,0.0,0.0,0.0,0.0,0.0,0.0,0.0,0.0,0.0,0.0,0.0,0.0,0.0,0.0,0.0,0.0,0.0,0.0,0.0,0.0,0.0,0.0,0.0,0.0,0.0,0.0,0.0,0.0,0.0,0.0,0.0,0.0,0.0,0.0,0.0,0.0,0.0,0.0,0.0,0.0,-1.9322,0.0,0.0,0.0,0.0,0.0,0.0,0.0,0.0,0.0,0.0,0.0,0.0,0.0,0.0,0.0,0.0,0.0,0.0,0.0,0.0,0.0,0.0,0.0,0.0,0.0,0.0,0.0,0.0,0.0,0.0,0.0,0.0,0.0,0.0,0.0,0.0,0.0,0.0,0.0,0.0,0.0,-1.5982,-1.7426,-1.8618,-1.9685,-1.9798,-1.9798,-1.9798,-1.8819,-1.7704,-1.6563,-1.4318,0.0,0.0,0.0,0.0,0.0,0.0,0.0,0.0,0.0,0.0,0.0,0.0,0.0,0.0,0.0,0.0,0.0,0.0,0.0,0.0,0.0,0.0,0.0,0.0,0.0,0.0,0.0,0.0,0.0,0.0,0.0,0.0,0.0,0.0,0.0,0.0,0.0,0.0,0.0,0.0,0.0,0.0,0.0,0.0,0.0,0.0,0.0,0.0,0.0,0.0,0.0,0.0,0.0,0.0,0.0,0.0,0.0,0.0,0.0,0.0,-2.1173,0.0,0.0,0.0,0.0,0.0,0.0,0.0,0.0,0.0,0.0,0.0,0.0,0.0,0.0,0.0,0.0,0.0,0.0,0.0,0.0,0.0,0.0,0.0,0.0,0.0,0.0,0.0,0.0,0.0,0.0,0.0,0.0,0.0,0.0,0.0,0.0,0.0,0.0,0.0,0.0,-1.6609,-1.7903,-1.8882,-1.971,-1.9798,-1.9798,-1.9798,-1.8819,-1.7953,-1.734,-1.5254,0.0,0.0,0.0,0.0,0.0,0.0,0.0,0.0,0.0,0.0,0.0,0.0,0.0,0.0,0.0,0.0,0.0,0.0,0.0,0.0,0.0,0.0,0.0,0.0,0.0,0.0,0.0,0.0,0.0,0.0,0.0,0.0,0.0,0.0,0.0,0.0,0.0,0.0,0.0,0.0,0.0,0.0,0.0,0.0,0.0,0.0,0.0,0.0,0.0,0.0,0.0,0.0,0.0,-3.0785,-3.1033,-3.0618,-3.0277,-2.9704,-2.8834,-2.6611,-2.564,-2.5422,0.0,0.0,0.0,0.0,0.0,0.0,0.0,0.0,0.0,0.0,0.0,0.0,0.0,0.0,0.0,0.0,0.0,0.0,0.0,0.0,0.0,0.0,0.0,0.0,0.0,-2.1024,-2.046,0.0,0.0,0.0,0.0,0.0,0.0,0.0,0.0,0.0,0.0,0.0,0.0,-1.7146,-1.8342,-1.9208,-1.9748,-1.9798,-1.9798,-1.9798,-1.8907,-1.8304,-1.8216,-1.6304,-1.4934,0.0,0.0,0.0,0.0,0.0,0.0,0.0,0.0,0.0,0.0,0.0,0.0,0.0,0.0,0.0,0.0,0.0,0.0,0.0,0.0,0.0,0.0,0.0,0.0,0.0,0.0,0.0,0.0,0.0,0.0,0.0,0.0,-1.4881,-1.6845,0.0,0.0,0.0,0.0,0.0,0.0,0.0,0.0,0.0,0.0,0.0,0.0,0.0,-2.8265,-2.854,-3.1804,-3.3254,-3.2827,-3.4851,-3.4881,-3.313,-3.3007,-3.2578,-3.1911,-3.1552,0.0,-2.6333,-2.4844,0.0,0.0,0.0,0.0,0.0,0.0,0.0,0.0,0.0,0.0,0.0,0.0,0.0,0.0,0.0,0.0,0.0,0.0,0.0,0.0,0.0,0.0,-2.2116,-2.0942,-2.1437,-2.1764,0.0,-1.8802,-1.7452,-1.6111,-1.4369,0.0,0.0,0.0,0.0,0.0,0.0,0.0,-1.7234,-1.8342,-1.9208,-1.9748,-1.9798,-1.9798,-1.9798,-1.9233,-1.8694,-1.8242,-1.7011,-1.6057,-1.5512,-1.3942,0.0,0.0,0.0,0.0,0.0,0.0,0.0,0.0,0.0,0.0,0.0,0.0,0.0,0.0,0.0,0.0,0.0,0.0,0.0,0.0,0.0,0.0,0.0,0.0,0.0,0.0,0.0,0.0,0.0,-1.5045,-1.7396,-1.8302,-1.8905,-1.8888,0.0,0.0,0.0,0.0,0.0,0.0,0.0,0.0,0.0,-2.9125,-3.0673,-3.2083,-3.3372,-3.5003,-3.6045,-3.6569,-3.7532,-3.7277,-3.5954,-3.5934,-3.5081,-3.3619,-3.3619,-3.2422,-3.0313,-2.8263,-2.6632,-2.5323,0.0,0.0,0.0,0.0,-2.3789,-2.367,-2.5076,-2.5136,0.0,-2.4044,0.0,0.0,0.0,0.0,0.0,0.0,0.0,0.0,0.0,0.0,-2.4414,-2.3874,-2.4448,-2.4771,-2.3506,-2.2416,-2.0934,0.0,-1.7365,-1.6412,-1.487,0.0,0.0,0.0,0.0,0.0,-1.8204,-1.8982,-1.9547,-1.9773,-1.9798,-1.9798,-1.9798,-1.9045,-1.8455,-1.8216,-1.7114,-1.6387,-1.617,-1.5166,-1.4099,0.0,0.0,0.0,0.0,0.0,0.0,0.0,0.0,0.0,0.0,0.0,0.0,0.0,0.0,0.0,0.0,0.0,0.0,0.0,0.0,0.0,0.0,0.0,0.0,0.0,0.0,0.0,0.0,-1.7328,-1.9553,-1.9756,-2.1292,-2.1732,0.0,0.0,0.0,0.0,0.0,0.0,-2.8045,-2.9771,-3.1452,-3.3127,-3.4233,-3.5571,-3.7083,-3.7469,-3.8087,-3.8975,-3.8781,-3.8253,-3.7485,-3.7294,-3.6322,-3.4773,-3.4773,-3.4457,-3.3814,-3.136,-2.9639,-2.8472,-2.7305,-2.6767,-2.6707,-2.735,-2.7171,-2.6856,-2.8517,-2.8547,-2.775,-2.7066,0.0,-2.5974,-2.3849,0.0,0.0,0.0,0.0,-2.3261,-2.4,-2.5249,-2.6354,-2.6388,-2.6991,-2.7191,-2.601,-2.5154,-2.3666,0.0,-1.9949,-1.9371,-1.7335,0.0,0.0,0.0,0.0,-1.8932,-1.9171,-1.9698,-1.9962,-1.9823,-1.9798,-1.9875,-2.0055,-1.9043,-1.8413,-1.8427,-1.7365,-1.6651,-1.65,-1.612,-1.5412,-1.4343,0.0,0.0,0.0,0.0,0.0,0.0,0.0,0.0,0.0,0.0,0.0,0.0,0.0,0.0,0.0,0.0,0.0,0.0,0.0,0.0,0.0,0.0,0.0,0.0,0.0,0.0,0.0,0.0,0.0,-2.2043,-2.4037,0.0,0.0,0.0,0.0,-2.642,-2.9144,-3.1157,-3.1989,-3.4083,-3.5367,-3.5506,-3.7616,-3.8463,-3.7945,-3.9269,-3.9596,-3.8885,-3.8213,-3.7438,-3.6646,-3.5926,-3.5539,-3.5444,-3.5444,-3.5429,-3.525,-3.3215,-3.1929,-3.1227,-3.0537,-2.9894,-2.9487,-3.0073,-2.9909,-2.9517,-3.0163,-2.9594,-2.8742,-2.9879,-2.9445,-2.8308,-2.754,-2.6046,0.0,0.0,-2.5909,-2.5771,-2.6811,-2.7571,-2.7919,-2.7365,-2.7712,-2.7975,-2.7324,-2.6113,-2.4554,0.0,-2.1317,-2.0603,-2.0465,0.0,-1.9623,-1.9597,-2.0163,-2.0377,-1.9823,-2.0289,-2.044,-1.9861,-1.9798,-2.0055,-2.0696,-1.9645,-1.8998,-1.9044,-1.799,-1.7087,-1.6525,-1.6475,-1.5957,-1.4871,-1.3704,0.0,0.0,0.0,0.0,0.0,0.0,0.0,0.0,0.0,0.0,0.0,0.0,0.0,0.0,0.0,0.0,0.0,0.0,0.0,0.0,0.0,0.0,0.0,0.0,0.0,0.0,0.0,0.0,-2.5694,-2.7401,0.0,-2.7774,-2.8839,-2.9989,-3.0937,-3.2899,-3.437,-3.5154,-3.684,-3.7558,-3.7079,-3.8288,-3.8572,-3.7878,-3.8372,-3.8486,-3.8206,-3.7921,-3.7397,-3.6615,-3.6844,-3.6707,-3.6228,-3.6768,-3.6677,-3.6135,-3.5431,-3.4455,-3.3365,-3.2691,-3.2287,-3.2138,-3.2347,-3.2287,-3.2138,-3.2347,-3.2123,-3.1689,-3.1271,-3.0283,-2.9217,-2.8963,-2.8427,-2.7956,-2.822,-2.8536,-2.8738,-2.8454,-2.9346,-3.0147,-2.9413,-2.9794,-3.0031,-2.8898,-2.8249,-2.7319,-2.5339,-2.3197,-2.1606,-2.1282,-2.1029,-2.0765,-2.044,-2.0867,-2.1157,-2.0916,-2.0779,-2.0763,-2.094,-2.0642,-2.0708,-2.1342,-1.9969,-1.9058,-1.9108,-1.7679,-1.6713,-1.65,-1.65,-1.6312,-1.5944,-1.4852,-1.337,0.0,0.0,0.0,0.0,0.0,0.0,0.0,0.0,0.0,0.0,0.0,0.0,0.0,0.0,0.0,0.0,0.0,0.0,0.0,0.0,0.0,0.0,0.0,0.0,0.0,0.0,-2.7199,-2.8432,-3.0362,-3.1495,-3.1241,-3.2341,-3.3491,-3.4472,-3.591,-3.6992,-3.7523,-3.8708,-3.9009,-3.819,-3.8634,-3.8553,-3.7822,-3.7793,-3.7661,-3.7397,-3.7397,-3.698,-3.6259,-3.6768,-3.6874,-3.663,-3.7144,-3.7084,-3.6615,-3.6615,-3.589,-3.4786,-3.4337,-3.4173,-3.4173,-3.4173,-3.4023,-3.3799,-3.3574,-3.3499,-3.335,-3.2452,-3.1614,-3.0924,-3.0924,-3.0746,-3.0544,-3.0412,-3.06,-3.067,-3.0018,-3.0673,-3.138,-3.0837,-3.1117,-3.1246,-3.0323,-2.974,-2.9001,-2.7654,-2.5164,-2.31,-2.2549,-2.2204,-2.192,-2.1556,-2.2033,-2.2283,-2.181,-2.1887,-2.189,-2.1628,-2.1512,-2.1597,-2.1997,-2.0402,-1.9476,-1.9697,-1.8044,-1.6951,-1.6774,-1.6774,-1.668,-1.65,-1.5273,-1.3979,-1.2663,0.0,0.0,0.0,0.0,0.0,0.0,0.0,0.0,0.0,0.0,0.0,0.0,0.0,0.0,0.0,0.0,0.0,0.0,0.0,0.0,0.0,0.0,0.0,-2.4778,-2.7266,-2.945,-3.0192,-3.2848,-3.432,-3.3643,-3.5571,-3.688,-3.6897,-3.8234,-3.9022,-3.9022,-3.9723,-3.9731,-3.8881,-3.8881,-3.8497,-3.7735,-3.7735,-3.7338,-3.6584,-3.6584,-3.6196,-3.5504,-3.5537,-3.5911,-3.6615,-3.663,-3.663,-3.6615,-3.663,-3.6196,-3.5504,-3.5504,-3.5504,-3.5504,-3.5504,-3.5085,-3.4444,-3.3784,-3.3544,-3.3529,-3.3529,-3.3514,-3.3499,-3.3499,-3.3051,-3.2542,-3.2527,-3.2034,-3.1525,-3.1511,-3.1511,-3.1511,-3.1511,-3.1511,-3.1511,-3.1511,-3.0411,-2.945,-2.9435,-2.7228,-2.5127,-2.4469,-2.3662,-2.3138,-2.3155,-2.3826,0.0,-2.2571,-2.3631,-2.3793,-2.1903,-2.2328,-2.273,-2.2758,-2.1034,-2.0217,-2.0864,-1.9128,-1.7867,-1.7333,-1.7312,-1.7055,-1.6522,-1.4934,-1.3828,-1.3223,0.0,0.0,0.0,0.0,0.0,0.0,0.0,0.0,0.0,0.0,0.0,0.0,0.0,0.0,0.0,0.0,0.0,0.0,0.0,0.0,0.0,0.0,-2.9397,-2.8653,-3.1106,-3.3254,-3.3994,-3.5791,-3.7094,-3.7432,-3.8024,-3.8623,-3.9148,-3.9571,-3.9808,-3.9808,-3.9994,-3.948,-3.8133,-3.8121,-3.7456,-3.6148,-3.6148,-3.6022,-3.5814,-3.5814,-3.5701,-3.5537,-3.6054,-3.6415,-3.6661,-3.7787,-3.7642,-3.6646,-3.7249,-3.6677,-3.5504,-3.5504,-3.5504,-3.5504,-3.5504,-3.5385,-3.519,-3.5011,-3.4622,-3.4234,-3.4234,-3.3888,-3.3499,-3.3499,-3.3365,-3.3125,-3.2647,-3.2377,-3.2108,-3.163,-3.1511,-3.1511,-3.1511,-3.1511,-3.1511,-3.1511,-3.1202,-3.0789,-3.0285,-2.9146,-2.7735,-2.6112,-2.4321,-2.3471,-2.461,-2.4509,0.0,-2.4537,-2.4518,-2.4479,-2.443,-2.3836,-2.3596,-2.4028,-2.1968,-2.0704,-2.0885,-1.9128,-1.7867,-1.7333,-1.7312,-1.7055,-1.6522,-1.5299,-1.4412,0.0,0.0,0.0,0.0,0.0,0.0,0.0,0.0,0.0,0.0,0.0,0.0,0.0,0.0,0.0,0.0,0.0,0.0,0.0,0.0,0.0,0.0,-3.026,-3.2645,-3.2882,-3.437,-3.5842,-3.6907,-3.7821,-3.865,-3.9402,-3.9469,-3.9656,-4.0079,-4.0096,-4.0096,-4.0096,-3.9782,-3.9049,-3.7835,-3.7485,-3.6707,-3.5504,-3.5504,-3.5504,-3.5504,-3.5504,-3.5504,-3.5504,-3.5943,-3.6492,0.0,-3.8048,-3.7917,-3.7144,-3.7602,-3.689,0.0,0.0,0.0,0.0,0.0,-3.5504,-3.5504,-3.5504,-3.5235,-3.4906,-3.4906,-3.4651,-3.4337,-3.4337,-3.4143,-3.3829,-3.344,-3.2946,-3.2392,-3.2019,-3.1705,-3.1511,-3.1511,-3.1511,-3.1511,-3.1511,-3.1511,-3.1391,-3.0987,-3.0088,0.0,-2.7924,-2.5928,-2.4689,-2.53,-2.5287,-2.5259,-2.537,-2.5634,-2.5727,-2.552,-2.5155,-2.4823,-2.4627,-2.3016,0.0,0.0,0.0,-1.914,-1.8105,-1.7361,0.0,0.0,0.0,0.0,0.0,0.0,0.0,0.0,-1.4557,-1.4462,0.0,0.0,0.0,0.0,0.0,0.0,0.0,0.0,0.0,0.0,0.0,0.0,0.0,0.0,0.0,0.0,-3.3372,-3.5385,-3.6846,-3.7134,-3.7642,-3.8836,-3.9056,-3.9377,-4.0045,-4.0096,-4.0096,-4.0096,-4.0096,-4.0096,-4.0096,0.0,0.0,0.0,0.0,-3.6259,-3.5504,-3.5504,-3.5504,-3.5504,-3.5504,-3.5504,-3.5504,-3.5504,-3.6258,-3.756,-3.7648,-3.7602,-3.756,-3.7632,-3.6799,-3.5504,-3.5504,-3.5504,-3.5504,-3.5504,-3.5504,-3.5504,-3.5504,0.0,0.0,-3.5504,-3.5504,-3.5504,-3.5504,-3.507,-3.4608,-3.4533,-3.3589,-3.2617,-3.2512,-3.1989,-3.1511,-3.1511,-3.1511,-3.1511,-3.1511,-3.1511,-3.1511,-3.1511,-3.0484,-2.9652,-2.9707,-2.7879,-2.6244,-2.5702,-2.6149,-2.6283,-2.5728,-2.6785,-2.7119,-2.5868,0.0,0.0,-2.4933,-2.4066,-2.337,-2.2838,-2.1982,-2.0808,-1.9253,-1.7574,-1.6948,-1.7486,-1.7498,-1.7714,-1.8204,-1.8204,-1.8242,-1.8242,-1.6216,-1.6065,0.0,0.0,0.0,0.0,0.0,0.0,0.0,0.0,0.0,0.0,0.0,0.0,0.0,0.0,0.0,-3.2763,-3.5385,-3.755,-3.8447,-3.9097,-3.9351,-3.9039,-3.9537,-3.9943,-4.0096,-4.0096,-4.0096,-4.0096,-4.0096,-4.0096,-4.0096,-3.9342,-3.8553,-3.7806,-3.7024,-3.6259,-3.5504,-3.5504,-3.5504,-3.5504,0.0,0.0,-3.5504,-3.5504,-3.5651,-3.5973,-3.6569,-3.6492,-3.599,-3.66,-3.6321,-3.5504,-3.5504,-3.5504,-3.5504,-3.5504,-3.5504,-3.5504,-3.5504,-3.5504,-3.5504,-3.5504,-3.5504,-3.5504,-3.5504,-3.5415,0.0,-3.4668,-3.3903,-3.3185,-3.2647,-3.1989,-3.1511,-3.1511,-3.1511,-3.1511,-3.1511,-3.1511,-3.1511,-3.1511,-3.1275,-3.0934,-3.0404,-2.8152,-2.6568,-2.7096,-2.68,-2.6669,-2.7111,-2.7433,-2.7489,-2.7229,-2.6852,-2.6482,-2.6243,-2.4612,-2.355,-2.343,-2.1434,-2.0097,-1.9757,-1.8542,-1.7928,-1.8041,-1.8053,-1.8103,-1.8204,-1.8204,-1.8406,-1.882,-1.7965,-1.7739,0.0,0.0,0.0,0.0,0.0,0.0,0.0,0.0,0.0,0.0,0.0,-2.8738,0.0,0.0,-3.4455,-3.596,-3.7466,-3.87,-3.9453,-3.9876,-3.996,-3.9605,-3.9893,-4.0096,-4.0096,-4.0096,-4.0096,-4.0096,-4.0096,-3.9927,-3.9516,-3.9106,-3.8492,-3.7723,-3.7247,-3.6816,-3.6462,-3.6148,-3.5998,-3.5998,-3.5669,-3.5504,-3.5504,-3.5504,-3.5701,-3.6054,-3.6446,-3.6384,-3.6054,-3.6054,-3.5831,-3.5504,-3.5504,-3.5504,-3.5504,-3.5504,-3.5504,-3.5504,-3.5504,-3.5504,-3.5504,-3.5504,-3.5504,-3.5504,-3.5504,-3.5504,-3.5429,-3.5085,-3.4277,-3.3425,-3.3095,-3.2243,-3.1511,-3.1511,-3.1511,-3.1511,-3.1511,-3.1511,-3.1511,-3.1511,-3.1511,-3.1286,-3.0627,-2.9119,-2.8023,-2.8096,-2.7502,-2.7163,-2.7534,-2.76,-2.76,-2.76,-2.73,-2.6971,-2.6641,-2.5061,-2.4096,-2.4096,-2.1769,-2.0393,-2.0393,-1.8985,-1.8342,-1.8606,-1.8594,-1.8719,-1.9007,-1.9007,-1.9145,-1.9384,-1.9434,-1.9459,0.0,0.0,0.0,0.0,0.0,0.0,0.0,0.0,-2.6471,-2.8095,-3.048,-3.2645,-3.3846,-3.5284,-3.685,-3.87,-3.9106,-3.9436,-4.0028,-4.0096,-4.0096,-4.0096,-4.0096,-4.0096,-4.0096,-4.0096,-4.0096,-4.0096,-4.0096,-3.9824,-3.9133,-3.892,-3.8489,-3.7824,-3.7528,-3.7404,-3.7404,-3.6911,-3.6671,-3.6656,-3.6013,-3.5699,-3.5684,-3.5564,-3.5799,-3.6384,-3.6384,-3.6384,-3.6337,-3.5765,-3.5504,-3.5504,-3.5504,-3.5504,-3.5504,-3.5504,-3.5504,-3.5504,-3.5504,-3.5504,-3.5504,-3.5504,-3.5504,-3.5504,-3.5504,-3.5504,-3.5504,-3.5504,-3.4622,-3.3649,-3.3529,-3.2617,-3.166,-3.1525,-3.1511,-3.1511,-3.1511,-3.1511,-3.1511,-3.1511,-3.1511,-3.1331,-3.0806,-3.0178,-2.9505,-2.8727,-2.8034,-2.76,-2.76,-2.76,-2.76,-2.76,-2.76,-2.733,-2.6647,-2.5615,-2.4874,-2.4619,-2.2612,-2.1328,-2.1066,-1.9543,-1.884,-1.9146,-1.9158,-1.9434,-2.0003,-1.9989,-2.0039,-2.0155,-2.0632,-2.0792,-2.0835,-2.185,0.0,-2.5439,-2.6015,-2.7317,0.0,0.0,-3.2039,-3.4184,-3.5436,-3.622,-3.6389,-3.7618,-3.87,-3.8954,-3.9554,-4.0011,-4.0096,-4.0096,-4.0096,-4.0096,-4.0096,-4.0096,-4.0096,-4.0096,-4.0096,-4.0096,-4.0096,-4.0016,-3.9803,-3.915,-3.8696,-3.8487,-3.7785,-3.7404,-3.7404,-3.7345,-3.73,-3.73,-3.6671,-3.6372,-3.6357,-3.5774,-3.5569,-3.5619,-3.5619,-3.5619,-3.5619,-3.5537,-3.5504,-3.5504,-3.5504,-3.5504,-3.5504,-3.5504,-3.5504,-3.5504,-3.5504,-3.5504,-3.5504,-3.5504,-3.5504,-3.5504,-3.5504,-3.5504,-3.5504,-3.5504,-3.4951,-3.4264,-3.3649,-3.2961,-3.2228,-3.1645,-3.1511,-3.1511,-3.1511,-3.1511,-3.1511,-3.1511,-3.1511,-3.1481,-3.1406,-3.0823,-2.9998,-2.8786,-2.8034,-2.76,-2.76,-2.76,-2.76,-2.76,-2.76,-2.733,-2.6647,-2.6452,-2.5869,-2.4679,-2.3833,-2.2852,-2.1651,-2.0917,-2.0254,-1.971,-1.971,-2.0042,-2.0696,-2.0628,-2.087,-2.1407,-2.1402,-2.1169,-2.4695,0.0,0.0,0.0,-2.9956,-3.1275,-3.3897,-3.4353,-3.4624,-3.6011,-3.7246,-3.8075,-3.8075,-3.8945,-3.9656,0.0,-3.991,-4.0096,-4.0096,-4.0096,-4.0096,-4.0096,-4.0096,-4.0096,-4.0096,-4.0096,-4.0096,-4.0096,-3.9662,-3.9346,-3.9266,-3.8883,-3.8632,-3.8478,-3.8537,-3.8571,-3.8571,-3.8182,-3.7973,-3.7973,-3.733,-3.6836,-3.6477,-3.6207,-3.5863,-3.5504,-3.5504,-3.5504,-3.5504,-3.5504,-3.5504,-3.5504,-3.5504,-3.5504,-3.5504,-3.5504,-3.5504,-3.5504,-3.5504,-3.5504,-3.5504,-3.5504,-3.5504,-3.5504,-3.5504,-3.5504,-3.5504,-3.5504,-3.4741,-3.3844,-3.3559,-3.2721,-3.1854,-3.157,-3.1511,-3.1511,-3.1511,-3.1511,-3.1511,-3.1511,-3.1511,-3.1511,-3.1511,-3.0928,-3.0328,-2.9789,-2.8831,-2.8049,-2.7645,-2.76,-2.76,-2.76,-2.76,-2.748,-2.721,-2.6811,-2.6363,-2.5809,-2.4818,-2.3856,-2.2914,-2.2252,-2.1785,-2.1497,-2.1497,-2.1822,-2.2501,-2.2478,-2.2573,-2.2806,-2.2667,-2.2508,-2.681,0.0,0.0,-3.1292,-3.3085,-3.4573,-3.552,-3.6146,-3.6772,-3.7557,-3.8403,-3.8988,-3.8988,-3.9453,0.0,-3.9808,-3.9977,-4.0096,-4.0096,-4.0096,-4.0096,-4.0096,-4.0096,-4.0096,-4.0096,-4.0096,-4.0096,-4.0096,-3.9525,-3.9156,-3.9088,-3.8967,-3.8797,-3.8682,-3.9155,-3.9388,-3.9388,-3.8931,-3.8676,-3.8661,-3.8003,-3.7449,-3.7,-3.6641,-3.6237,-3.5774,-3.5579,-3.5504,-3.5504,-3.5504,-3.5504,-3.5504,-3.5504,-3.5504,-3.5504,-3.5504,-3.5504,-3.5504,-3.5504,-3.5504,-3.5504,-3.5504,-3.5504,-3.5504,-3.5504,-3.5504,-3.5504,-3.5504,-3.4801,-3.3963,-3.3589,-3.2781,-3.1959,-3.1585,-3.1511,-3.1511,-3.1511,-3.1511,-3.1511,-3.1511,-3.1511,-3.1511,-3.1511,-3.1092,-3.0717,-3.0537,-2.9564,-2.8622,-2.7959,-2.7705,-2.76,-2.76,-2.76,-2.76,-2.76,-2.7151,-2.6806,-2.6602,-2.5722,-2.4835,-2.4004,-2.3504,-2.3171,-2.2973,-2.2973,-2.332,-2.3994,-2.3958,-2.4002,-2.4184,-2.381,-2.3661,0.0,0.0,-3.1461,-3.2966,-3.503,-3.7083,-3.8531,-3.887,-3.9106,-3.9859,-3.9486,-3.8988,-3.8988,-3.9005,-3.9022,-3.9022,-3.9639,-4.0096,-4.0096,-4.0096,-4.0096,-4.0096,-4.0096,-4.0096,0.0,-4.0096,-4.0096,-4.0096,-3.9954,-3.9834,-3.9777,-3.9639,-3.9501,-3.9364,-3.9373,-3.9388,-3.9388,-3.9394,-3.9394,-3.9343,-3.8691,-3.8347,-3.8287,-3.7045,-3.6477,-3.6417,-3.5789,-3.5504,-3.5504,-3.5504,-3.5504,-3.5504,-3.5504,-3.5504,-3.5504,-3.5504,-3.5504,-3.5504,-3.5504,-3.5504,-3.5504,-3.5504,-3.5504,-3.5504,-3.5504,-3.5504,-3.5504,-3.5504,-3.5474,-3.5145,-3.3844,-3.3469,-3.311,-3.1809,-3.1511,-3.1511,-3.1511,-3.1511,-3.1511,-3.1511,-3.1511,-3.1511,-3.1511,-3.1481,-3.1241,-3.0612,-2.9968,-2.9337,-2.8652,-2.8004,-2.76,-2.76,-2.76,-2.76,-2.76,-2.7585,-2.7285,-2.6632,-2.6572,-2.5977,-2.4728,-2.465,-2.434,-2.3673,-2.3673,-2.3991,-2.4679,-2.4533,-2.4801,-2.5426,-2.4639,-2.4266,0.0,0.0,-3.3271,-3.5774,-3.733,-3.8539,-3.952,-3.9368,-3.9056,-3.9334,-3.8403,-3.7557,-3.7557,-3.7557,-3.7686,-3.8193,-3.8886,-3.9529,-4.0028,-4.0096,-4.0096,-4.0096,-4.0096,0.0,0.0,0.0,0.0,-3.9342,-3.9222,-3.912,-3.9014,-3.8877,-3.9008,-3.9394,-3.9388,-3.9388,-3.9388,-3.9388,-3.9388,-3.9373,-3.8721,-3.8392,-3.8347,-3.7075,-3.6492,-3.6447,-3.5789,-3.5504,-3.5504,-3.5504,-3.5504,-3.5504,-3.5504,-3.5504,-3.5504,-3.5504,-3.5504,-3.5504,-3.5504,-3.5504,-3.5504,-3.5504,-3.5504,-3.5504,-3.5504,-3.5504,-3.5504,-3.5504,-3.5175,-3.4711,-3.4294,-3.3499,-3.2736,-3.2258,-3.1824,-3.1511,-3.1511,-3.1511,-3.1511,-3.1511,-3.1511,-3.1511,-3.1511,-3.1511,-3.1271,-3.0612,-2.9609,-2.8682,-2.8034,-2.775,-2.76,-2.76,-2.76,-2.76,-2.76,-2.76,-2.7495,-2.7285,-2.727,-2.6857,-2.5992,-2.5962,-2.5864,-2.5628,-2.5628,-2.5957,-2.6614,-2.6579,-2.6656,-2.6889,-2.6115,-2.5755,0.0,-3.3626,-3.5199,-3.7686,-3.8853,-3.9453,-3.9673,-3.9326,-3.8768,-3.7956,-3.6806,-3.5831,-3.5289,-3.5187,-3.5627,-3.6874,-3.7719,-3.8674,-3.9926,-4.0096,-4.0096,-4.0096,-4.0333,0.0,0.0,0.0,0.0,-3.8951,-3.8787,-3.8701,-3.8596,-3.8693,-3.896,-3.9373,-3.9388,-3.9388,-3.9388,-3.9388,-3.9388,-3.9373,-3.8975,-3.8751,-3.8706,-3.7404,-3.6821,-3.6761,-3.5893,-3.5504,-3.5504,-3.5504,-3.5504,-3.5504,-3.5504,-3.5504,-3.5504,-3.5504,-3.5504,-3.5504,-3.5504,-3.5504,-3.5504,-3.5504,-3.5504,-3.5504,-3.5504,-3.5504,-3.5504,-3.5504,-3.519,-3.4741,-3.4279,-3.3499,-3.2751,-3.2243,-3.1809,-3.1511,-3.1511,-3.1511,-3.1511,-3.1511,-3.1511,-3.1511,-3.1511,-3.1511,-3.1271,-3.0612,-2.9804,-2.8951,-2.8079,-2.775,-2.76,-2.76,-2.76,-2.76,-2.76,-2.76,-2.76,-2.76,-2.76,-2.7405,-2.6986,-2.6971,-2.6971,-2.6971,-2.6971,-2.718,-2.76,-2.76,-2.76,-2.7575,-2.6826,-2.651,-3.3169,-3.5199,-3.7269,-3.8684,-3.9554,-3.9859,-3.9157,-3.887,-3.8142,-3.5938,-3.481,-3.3761,0.0,0.0,-3.2949,-3.5104,-3.6225,-3.7625,-3.9791,-4.013,-4.0163,0.0,0.0,0.0,0.0,0.0,0.0,-3.9018,0.0,-3.8609,-3.8575,-3.9098,-3.9388,-3.9388,-3.9388,-3.9388,-3.9388,-3.9388,-3.9388,-3.9388,-3.9388,-3.9388,-3.9328,-3.8018,-3.7404,-3.7345,-3.6058,-3.5504,-3.5504,-3.5504,-3.5504,-3.5504,-3.5504,-3.5504,-3.5504,-3.5504,-3.5504,-3.5504,-3.5504,-3.5504,-3.5504,-3.5504,-3.5504,-3.5504,-3.5504,-3.5504,-3.5504,-3.5504,-3.5504,-3.522,-3.3933,-3.3544,-3.3185,-3.1899,-3.1555,-3.1511,-3.1511,-3.1511,-3.1511,-3.1511,-3.1511,-3.1511,-3.1511,-3.1511,-3.1286,-3.0657,-3.0522,-3.0043,-2.8757,-2.8049,-2.763,-2.76,-2.76,-2.76,-2.76,-2.76,-2.76,-2.76,-2.76,-2.76,-2.76,-2.76,-2.76,-2.76,-2.76,-2.76,-2.76,-2.76,-2.76,-2.7575,-2.6878,-2.6563,-3.5368,-3.7144,-3.8674,-3.9605,-3.9554,-3.9225,-3.9039,-3.7263,-3.5334,-3.4201,-3.2053,-2.9998,-2.8736,0.0,0.0,-3.3294,-3.5828,0.0,-3.9876,-4.0561,0.0,0.0,0.0,-4.1878,-4.1473,-4.0516,0.0,0.0,-3.9,-3.8563,-3.8473,-3.9052,-3.9388,-3.9388,-3.9388,-3.9388,-3.9388,-3.9388,-3.9388,-3.9388,-3.9388,-3.9388,-3.9328,-3.8018,-3.7404,-3.7345,-3.6058,-3.5504,-3.5504,-3.5504,-3.5504,-3.5504,-3.5504,-3.5504,-3.5504,-3.5504,-3.5504,-3.5504,-3.5504,-3.5504,-3.5504,-3.5504,-3.5504,-3.5504,-3.5504,-3.5504,-3.5504,-3.5504,-3.5504,-3.5429,-3.5085,-3.4247,-3.341,-3.308,-3.2213,-3.1511,-3.1511,-3.1511,-3.1511,-3.1511,-3.1511,-3.1511,-3.1511,-3.1511,-3.1451,-3.1271,-3.0808,-3.0043,-2.8757,-2.8442,-2.8143,-2.7645,-2.76,-2.76,-2.76,-2.76,-2.76,-2.76,-2.76,-2.76,-2.76,-2.76,-2.76,-2.76,-2.76,-2.76,-2.76,-2.76,-2.76,-2.76,-2.7408,-2.7331,-3.7168,-3.8623,-3.9588,-3.9994,-3.9554,-3.865,-3.7313,-3.5453,-3.3339,-3.0954,-2.9127,0.0,0.0,0.0,0.0,0.0,0.0,0.0,-3.9292,-4.024,-4.0832,0.0,-4.1847,0.0,-4.1864,-4.1292,-4.0806,0.0,-3.924,-3.8489,-3.8397,-3.905,-3.9388,-3.9388,-3.9388,-3.9388,-3.9388,-3.9388,-3.9388,-3.9388,-3.9388,-3.9388,-3.9328,-3.8018,-3.7404,-3.7345,0.0,-3.5504,-3.5504,-3.5504,-3.5504,-3.5504,-3.5504,-3.5504,-3.5504,-3.5504,-3.5504,-3.5504,-3.5504,-3.5504,-3.5504,-3.5504,-3.5504,-3.5504,-3.5504,-3.5504,-3.5504,-3.5504,-3.5504,-3.5429,-3.513,-3.4487,-3.3844,-3.3559,-3.2706,-3.1929,-3.1929,-3.1705,-3.1511,-3.1511,-3.1511,-3.1511,-3.1511,-3.1511,-3.1511,-3.1511,-3.1182,-3.0492,-2.919,-2.8786,-2.8457,-2.8094,-2.7779,-2.76,-2.76,-2.76,-2.76,-2.76,-2.76,-2.76,-2.76,-2.76,-2.76,-2.76,-2.76,-2.76,-2.76,-2.76,-2.76,-2.76,-2.76,-2.76,-3.8548,-3.9622,-4.0096,-4.0096,-3.9402,-3.7956,-3.5131,-3.3626,-3.163,-2.7418,0.0,0.0,-2.4378,0.0,-2.7519,-3.049,0.0,-3.5436,-3.8548,-3.9639,-4.0417,-4.1255,-4.1999,-4.224,-4.1714,-4.2134,-4.2081,-4.1211,-3.9606,-3.8722,-3.8722,-3.9152,-3.9388,-3.9388,-3.9388,-3.9388,-3.9388,-3.9388,-3.9388,-3.9388,-3.9334,-3.929,-3.923,-3.7898,-3.7285,-3.7225,0.0,0.0,-3.5504,-3.5504,-3.5504,-3.5504,-3.5504,-3.5504,-3.5504,-3.5504,-3.5504,-3.5504,-3.5504,-3.5504,-3.5504,-3.5504,-3.5504,-3.5504,-3.5504,-3.5504,-3.5504,-3.5504,-3.5504,-3.537,-3.4771,-3.4578,-3.4339,-3.3649,-3.2991,-3.2497,-3.2378,-3.1914,-3.1511,-3.1511,-3.1511,-3.1511,-3.1511,-3.1511,-3.1511,-3.1511,-3.1511,-3.1062,-2.9864,-2.9131,-2.8667,-2.8487,-2.7959,-2.76,-2.76,-2.76,-2.76,-2.76,-2.76,-2.76,-2.76,-2.76,-2.76,-2.76,-2.76,-2.76,-2.76,-2.76,-2.76,-2.76,-2.76,-2.76,-3.9462,-4.0011,-4.0096,-4.0096,-3.864,-3.6711,-3.4895,-3.2056,0.0,0.0,0.0,-2.359,-2.2323,-2.4123,0.0,-2.9279,0.0,0.0,0.0,0.0,-4.0612,0.0,0.0,0.0,0.0,0.0,0.0,0.0,0.0,-4.0315,-4.0315,-3.9733,-3.9388,-3.9388,-3.9388,-3.9388,-3.9388,-3.9388,-3.9388,-3.9373,-3.8841,-3.8571,-3.8527,-3.7225,-3.6656,-3.6596,-3.5833,0.0,-3.5504,-3.5504,-3.5504,-3.5504,-3.5504,-3.5504,-3.5504,-3.5504,-3.5504,-3.5504,-3.5504,-3.5504,-3.5504,-3.5504,-3.5504,-3.5504,-3.5504,-3.5504,-3.5504,-3.5504,-3.5504,-3.5474,-3.5355,-3.4906,-3.4339,-3.3649,-3.2991,-3.2333,-3.1795,-3.1585,-3.1511,-3.1511,-3.1511,-3.1511,-3.1511,-3.1511,-3.1511,-3.1511,-3.1511,-3.1212,-3.0447,-2.9804,-2.9007,-2.7899,-2.766,-2.76,-2.76,-2.76,-2.76,-2.76,-2.76,-2.76,-2.76,-2.76,-2.76,-2.76,-2.76,-2.76,-2.76,-2.76,-2.76,-2.76,-2.76,-2.76,-3.9148,-3.9808,-4.0011,-3.9622,-3.8166,-3.6,-3.2916,0.0,0.0,0.0,0.0,-2.2659,-2.2084,0.0,0.0,0.0,0.0,0.0,0.0,0.0,0.0,0.0,0.0,0.0,0.0,0.0,0.0,0.0,0.0,-4.0995,-4.008,-3.9646,-3.9388,-3.9388,-3.9388,-3.9388,-3.9388,-3.9388,-3.923,-3.8886,-3.8542,-3.8212,-3.7853,-3.6911,-3.6492,-3.6447,-3.5789,0.0,-3.5504,-3.5504,-3.5504,-3.5504,-3.5504,-3.5504,-3.5504,-3.5504,-3.5504,-3.5504,-3.5504,-3.5504,-3.5504,-3.5504,-3.5504,-3.5504,-3.5504,-3.5504,-3.5504,-3.5504,-3.5504,-3.5504,-3.5504,-3.5265,-3.4846,-3.4158,-3.3245,-3.2303,-3.1645,-3.1511,-3.1511,-3.1511,-3.1511,-3.1511,-3.1511,-3.1511,-3.1511,-3.1511,-3.1511,-3.1256,-3.0597,-2.9968,-2.9232,-2.8244,-2.7809,-2.76,-2.76,-2.76,-2.76,-2.76,-2.76,-2.76,-2.76,-2.76,-2.76,-2.76,-2.76,-2.76,-2.76,-2.76,-2.76,-2.76,-2.76,-2.76,-3.8582,-3.9554,-3.9926,-3.9174,-3.7642,-3.5221,-3.1055,-2.8598,0.0,0.0,0.0,-2.2149,-2.2149,0.0,0.0,0.0,0.0,0.0,0.0,0.0,0.0,0.0,0.0,0.0,0.0,0.0,0.0,0.0,0.0,0.0,-3.9481,-3.9388,-3.9313,-3.92,-3.9349,-3.9239,-3.8955,-3.9125,-3.8856,-3.8182,-3.8048,-3.7719,-3.7195,-3.6567,-3.6282,-3.6252,-3.5729,0.0,0.0,-3.5504,-3.5504,-3.5504,-3.5504,-3.5504,-3.5504,-3.5504,-3.5504,-3.5504,-3.5504,-3.5504,-3.5504,-3.5504,-3.5504,-3.5504,-3.5504,-3.5504,-3.5504,-3.5504,-3.5504,-3.5504,-3.5504,-3.5504,-3.5295,-3.4488,-3.326,-3.2123,-3.1615,-3.1511,-3.1511,-3.1511,-3.1511,-3.1511,-3.1511,-3.1511,-3.1511,-3.1511,-3.1511,-3.1256,-3.0597,-3.0088,-2.9475,-2.8682,-2.8004,-2.76,-2.76,-2.76,-2.76,-2.76,-2.76,-2.76,-2.76,-2.76,-2.76,-2.76,-2.76,-2.76,-2.76,-2.76,-2.76,-2.76,-2.76,-2.7675,-3.8582,-3.9554,-3.9926,-3.9174,-3.684,-3.3897,-3.0801,0.0,0.0,0.0,-2.1658,-2.1658,-2.1658,0.0,0.0,0.0,0.0,0.0,0.0,0.0,0.0,0.0,0.0,0.0,0.0,0.0,0.0,0.0,0.0,0.0,-3.9424,-3.9388,-3.9125,-3.8497,-3.9095,-3.8826,-3.7614,-3.8182,-3.8153,-3.7494,-3.6926,-3.6626,-3.6552,-3.5893,-3.5594,-3.5594,-3.5534,0.0,0.0,-3.5504,-3.5504,-3.5504,-3.5504,-3.5504,-3.5504,-3.5504,-3.5504,-3.5504,-3.5504,-3.5504,-3.5504,-3.5504,-3.5504,-3.5504,-3.5504,-3.5504,-3.5504,-3.5504,-3.5504,-3.5504,-3.5504,-3.5504,-3.519,-3.3888,-3.2587,-3.1585,-3.1511,-3.1511,-3.1511,-3.1511,-3.1511,-3.1511,-3.1511,-3.1511,-3.1511,-3.1511,-3.1511,-3.1256,-3.0597,-3.0447,-2.9953,-2.8727,-2.8004,-2.76,-2.76,-2.76,-2.76,-2.76,-2.76,-2.76,-2.76,-2.76,-2.76,-2.76,-2.76,-2.76,-2.76,-2.76,-2.76,-2.76,-2.76,-2.7929,-3.6434,-3.7855,-3.8599,-3.7879,-3.574,-3.3068,-3.0108,0.0,0.0,-2.2119,-2.1597,-2.1521,-2.1275,-2.1583,-2.23,0.0,0.0,0.0,0.0,0.0,0.0,0.0,0.0,0.0,0.0,0.0,0.0,0.0,0.0,0.0,-3.8262,-3.894,-3.8931,-3.7838,-3.8452,-3.8362,-3.7419,-3.7659,-3.7479,-3.6851,-3.6596,-3.6282,-3.5893,-3.5624,-3.5504,-3.5504,-3.5504,0.0,0.0,-3.5504,-3.5504,-3.5504,-3.5504,-3.5504,-3.5504,-3.5504,-3.5504,-3.5504,-3.5504,-3.5504,-3.5504,-3.5504,-3.5504,-3.5504,-3.5504,-3.5504,-3.5504,-3.5504,-3.5504,-3.5504,-3.5504,-3.519,-3.4651,-3.3709,-3.2796,-3.1989,-3.1585,-3.1511,-3.1511,-3.1511,-3.1511,-3.1511,-3.1511,-3.1511,-3.1511,-3.1511,-3.1511,-3.1406,-3.1137,-3.0761,-3.0313,-2.9804,-2.8816,-2.8049,-2.763,-2.76,-2.76,-2.76,-2.76,-2.76,-2.76,-2.76,-2.76,-2.76,-2.76,-2.76,-2.76,-2.76,-2.76,-2.76,-2.76,-2.7959,-3.4421,-3.6056,-3.7043,-3.6304,-3.4421,-3.2036,0.0,0.0,-2.4231,-2.19,-2.1306,-2.1165,-2.1023,-2.1322,-2.1823,0.0,-2.3229,-2.4763,0.0,0.0,0.0,0.0,0.0,0.0,0.0,0.0,0.0,0.0,0.0,0.0,0.0,-3.8212,-3.8302,-3.7165,-3.7764,-3.7704,-3.6851,-3.703,-3.6821,-3.6193,-3.6193,-3.5953,-3.5504,-3.5504,-3.5504,-3.5504,0.0,0.0,0.0,-3.5504,-3.5504,-3.5504,-3.5504,-3.5504,-3.5504,-3.5504,-3.5504,-3.5504,-3.5504,-3.5504,-3.5504,-3.5504,-3.5504,-3.5504,-3.5504,-3.5504,-3.5504,-3.5504,-3.5504,-3.5504,-3.5504,-3.4846,-3.4099,-3.3604,-3.2841,-3.2064,-3.16,-3.1511,-3.1511,-3.1511,-3.1511,-3.1511,-3.1511,-3.1511,-3.1511,-3.1511,-3.1511,-3.1511,-3.1511,-3.1077,-3.0731,-3.0522,-2.9699,-2.8816,-2.7974,-2.7899,-2.7809,-2.76,-2.76,-2.76,-2.76,-2.76,-2.76,-2.76,-2.76,-2.76,-2.76,-2.7809,-2.7794,-2.76,-2.8004,-2.8558,-3.3034,-3.4484,-3.5447,-3.4709,-3.2848,-3.0615,0.0,-2.5421,-2.2806,-2.1295,-2.0633,-2.0449,-2.091,-2.1322,-2.1749,-2.224,-2.3528,0.0,0.0,0.0,0.0,0.0,0.0,0.0,0.0,0.0,0.0,0.0,0.0,0.0,0.0,-3.709,-3.715,-3.6522,-3.7105,-3.6806,-3.5534,-3.6178,-3.6163,-3.5519,-3.5519,-3.5519,-3.5504,-3.5504,-3.5504,0.0,0.0,0.0,0.0,-3.5504,-3.5504,-3.5504,-3.5504,-3.5504,-3.5504,-3.5504,-3.5504,-3.5504,-3.5504,-3.5504,-3.5504,-3.5504,-3.5504,-3.5504,-3.5504,-3.5504,-3.5504,-3.5504,-3.5504,-3.5504,-3.5504,-3.4517,-3.3499,-3.3499,-3.2497,-3.1511,-3.1511,-3.1511,-3.1511,-3.1511,-3.1511,-3.1511,-3.1511,-3.1511,-3.1511,-3.1511,-3.1511,-3.1511,-3.1511,-3.1496,-3.1241,-3.0567,-3.0492,-2.9968,-2.8697,-2.8592,-2.8308,-2.7645,-2.76,-2.76,-2.76,-2.76,-2.76,-2.76,-2.76,-2.76,-2.76,-2.8263,-2.8233,-2.763,-2.8963,-2.9894,-2.9024,-3.0311,-3.1021,-3.0804,-2.9227,-2.7398,-2.6163,-2.4095,-2.2078,-2.0788,-2.0399,-2.0348,-2.05,-2.0878,-2.1841,-2.3817,0.0,0.0,0.0,0.0,0.0,0.0,0.0,0.0,0.0,0.0,0.0,0.0,0.0,0.0,0.0,-3.5998,-3.6013,-3.5818,-3.6447,-3.6372,-3.5519,-3.5714,-3.5714,-3.5504,-3.5504,-3.5504,-3.5504,-3.5504,0.0,0.0,0.0,0.0,0.0,-3.5504,-3.5504,-3.5504,-3.5504,-3.5504,-3.5504,-3.5504,-3.5504,-3.5504,-3.5504,-3.5504,-3.5504,-3.5504,-3.5504,-3.5504,-3.5504,-3.5504,-3.5504,-3.5504,-3.5504,-3.5504,-3.5504,-3.4846,-3.4084,-3.3604,-3.2841,-3.2049,-3.16,-3.1511,-3.1511,-3.1511,-3.1511,-3.1511,-3.1511,-3.1511,-3.1511,-3.1511,-3.1511,-3.1511,-3.1511,-3.1511,-3.1421,-3.1212,-3.1182,-3.0687,-2.9385,-2.8861,-2.8502,-2.8293,-2.7854,-2.76,-2.76,-2.76,-2.76,-2.76,-2.8064,-2.8278,-2.8278,-2.8978,-2.916,-2.8992,-2.9819,-3.0313,0.0,-2.7334,-2.813,-2.813,-2.6904,-2.5489,-2.4745,-2.3172,-2.1568,-2.0522,-2.0297,-2.0348,-2.0533,-2.0943,-2.184,-2.3683,0.0,0.0,0.0,0.0,0.0,0.0,0.0,0.0,0.0,0.0,0.0,0.0,0.0,0.0,0.0,-3.5504,-3.5504,-3.5504,-3.5893,-3.5923,-3.5504,-3.5504,-3.5504,-3.5504,-3.5504,-3.5504,-3.5504,-3.5504,0.0,0.0,0.0,0.0,0.0,-3.5504,-3.5504,-3.5504,-3.5504,-3.5504,-3.5504,-3.5504,-3.5504,-3.5504,-3.5504,-3.5504,-3.5504,-3.5504,-3.5504,-3.5504,-3.5504,-3.5504,-3.5504,-3.5504,-3.5504,-3.5504,-3.5504,-3.4801,-3.4039,-3.3589,-3.2796,-3.2004,-3.1585,-3.1511,-3.1511,-3.1511,-3.1511,-3.1511,-3.1511,-3.171,-3.1824,-3.1524,-3.1754,-3.1824,-3.1539,-3.1511,-3.1511,-3.1511,-3.1511,-3.1182,-3.0387,-2.9699,-2.9339,-2.9355,-2.8729,-2.8349,-2.8349,-2.8349,-2.8349,-2.8349,-2.8742,-2.8966,-2.8966,-2.9412,-2.9834,-3.0313,-3.0447,-3.0642,0.0,-2.5151,-2.6218,-2.6218,-2.5414,-2.4431,-2.372,-2.237,0.0,-2.0393,-2.0254,-2.0452,-2.1086,-2.1418,-2.1864,-2.2644,0.0,0.0,0.0,0.0,0.0,0.0,0.0,0.0,0.0,0.0,0.0,0.0,0.0,0.0,0.0,-3.5504,-3.5504,-3.5504,-3.5504,-3.5504,-3.5504,-3.5504,-3.5504,-3.5504,-3.5504,-3.5504,-3.5504,-3.5504,0.0,0.0,0.0,0.0,0.0,-3.5504,-3.5504,-3.5504,-3.5504,-3.5504,-3.5504,-3.5504,-3.5504,-3.5504,-3.5504,-3.5504,-3.5504,-3.5504,-3.5504,-3.5504,-3.5504,-3.5504,-3.5504,-3.5504,-3.5504,-3.5504,-3.5504,-3.4502,-3.3499,-3.3499,-3.2497,-3.1511,-3.1511,-3.1511,-3.1511,-3.1511,-3.1511,-3.1511,-3.1553,-3.2148,-3.2382,-3.1739,-3.2188,-3.2355,-3.1668,-3.1524,-3.1511,-3.1511,-3.1568,-3.1611,-3.1668,-3.0953,-3.0552,-3.066,-3.0031,-2.9672,-2.9672,-2.9726,-2.9699,-2.9606,-2.9651,-2.9696,-2.9756,-2.9756,-3.0342,-3.1496,-3.0853,-3.0883,-1.9989,0.0,-2.1569,-2.1569,-2.1128,-2.0603,0.0,-1.9744,-1.9468,0.0,0.0,-2.0655,-2.2834,-2.2324,-2.2889,0.0,0.0,0.0,0.0,0.0,0.0,0.0,0.0,0.0,0.0,0.0,0.0,0.0,0.0,0.0,0.0,-3.5504,-3.5504,-3.5504,-3.5504,-3.5504,-3.5504,-3.5504,-3.5504,-3.5504,-3.5504,-3.5504,-3.5504,-3.5504,0.0,0.0,0.0,0.0,-3.5504,-3.5504,-3.5504,-3.5504,-3.5504,-3.5504,-3.5504,-3.5504,-3.5504,-3.5504,-3.5504,-3.5504,-3.5504,-3.5504,-3.5504,-3.5504,-3.5504,-3.5504,-3.5504,-3.5504,-3.5504,-3.5504,-3.5504,-3.4502,-3.3499,-3.3499,-3.2497,-3.1511,-3.1511,-3.1511,-3.1511,-3.1511,-3.1511,-3.1697,-3.2244,-3.2492,-3.2722,-3.305,-3.2815,-3.2547,-3.2355,-3.1853,-3.1511,-3.1511,-3.2007,-3.2559,-3.305,-3.1503,-3.0764,-3.1347,-3.0732,-3.0346,-3.0346,-3.0864,-3.0668,-2.9633,-3.0043,-3.0552,-3.1047,-3.1047,-3.1212,-3.1511,-3.1331,-3.1346,-1.8403,-1.9693,-2.1062,-2.1062,-2.0978,-2.0878,-2.0684,0.0,0.0,0.0,0.0,0.0,-2.2569,0.0,0.0,0.0,0.0,0.0,0.0,0.0,0.0,0.0,0.0,0.0,0.0,0.0,0.0,0.0,0.0,0.0,0.0,-3.5504,-3.5504,-3.5504,-3.5504,-3.5504,-3.5504,-3.5504,-3.5504,-3.5504,-3.5504,-3.5504,-3.5504,-3.5504,-3.5504,0.0,0.0,0.0,-3.5504,-3.5504,-3.5504,-3.5504,-3.5504,-3.5504,-3.5504,-3.5504,-3.5504,-3.5504,-3.5504,-3.5504,-3.5504,-3.5504,-3.5504,-3.5504,-3.5504,-3.5504,-3.5504,-3.5504,-3.5504,-3.5504,-3.5504,-3.4502,-3.3499,-3.3499,-3.2497,-3.1511,-3.1511,-3.1511,-3.1511,-3.1511,-3.1768,-3.2148,-3.2532,-3.3119,-3.3547,-3.3582,-3.3287,-3.3066,-3.3066,-3.2449,-3.2104,-3.2434,-3.2826,-3.3093,-3.3145,-3.2387,-3.2221,-3.2921,-3.2342,-3.1984,-3.1984,-3.2322,-3.2035,-3.0997,-3.1305,-3.1475,-3.1511,-3.1511,-3.1511,-3.1511,-3.1511,-3.1511,-1.7946,-2.0082,-2.2212,-2.1874,-2.2134,-2.2429,-2.2251,0.0,0.0,0.0,0.0,0.0,0.0,0.0,0.0,0.0,0.0,0.0,0.0,0.0,0.0,0.0,0.0,0.0,0.0,0.0,0.0,0.0,0.0,0.0,0.0,-3.5504,-3.5504,-3.5504,-3.5504,-3.5504,-3.5504,-3.5504,-3.5504,-3.5504,-3.5504,-3.5504,-3.5504,-3.5504,-3.5504,-3.5504,0.0,0.0,-3.5504,-3.5504,-3.5504,-3.5504,-3.5504,-3.5504,-3.5504,-3.5504,-3.5504,-3.5504,-3.5504,-3.5504,-3.5504,-3.5504,-3.5504,-3.5504,-3.5504,-3.5504,-3.5489,-3.5385,-3.5355,-3.5355,-3.5355,-3.4352,-3.335,-3.335,-3.2392,-3.1511,-3.1511,-3.1511,-3.1524,-3.164,-3.216,-3.2668,-3.2868,-3.3761,-3.4333,-3.3962,-3.3633,-3.3521,-3.3735,-3.3093,-3.2868,-3.3547,-3.3684,-3.3521,-3.2933,-3.3443,-3.4037,-3.4712,-3.4112,-3.3786,-3.3887,-3.371,-3.3391,-3.2922,-3.2695,-3.2299,-3.1668,-3.1553,-3.1511,-3.1511,-3.1511,-3.1511,-1.8555,-2.0483,-2.184,-1.9908,-2.0428,-2.1177,0.0,0.0,0.0,0.0,0.0,0.0,0.0,0.0,0.0,0.0,0.0,0.0,0.0,0.0,0.0,0.0,0.0,0.0,0.0,0.0,0.0,0.0,0.0,0.0,0.0,-3.5504,-3.5504,-3.5504,-3.5504,-3.5504,-3.5504,-3.5504,-3.5504,-3.5504,-3.5504,-3.5504,-3.5504,-3.5504,-3.5504,-3.5504,0.0,-3.5504,-3.5504,-3.5504,-3.5504,-3.5504,-3.5504,-3.5504,-3.5504,-3.5504,-3.5504,-3.5504,-3.5504,-3.5504,-3.5504,-3.5504,-3.5504,-3.5504,-3.5504,-3.5504,-3.5385,-3.4801,-3.4668,-3.4668,-3.4668,-3.3649,-3.2662,-3.2662,-3.2049,-3.1511,-3.1511,-3.1511,-3.1682,-3.2299,-3.252,-3.296,-3.4112,-3.3987,-3.4087,-3.5138,-3.3853,-3.3156,-3.4309,-3.3365,-3.2868,-3.3547,-3.4112,-3.4406,-3.4309,-3.4382,-3.4736,-3.5407,-3.4823,-3.4688,-3.527,-3.4202,-3.3811,-3.4284,-3.3198,-3.2532,-3.2437,-3.1796,-3.1511,-3.1511,-3.1511,-3.1511,-1.7518,-1.935,-2.091,-2.031,-2.2172,-2.4022,0.0,0.0,0.0,0.0,0.0,0.0,0.0,0.0,0.0,0.0,0.0,0.0,0.0,0.0,0.0,0.0,0.0,0.0,0.0,0.0,0.0,0.0,0.0,0.0,0.0,0.0,-3.5504,-3.5504,-3.5504,-3.5504,-3.5504,-3.5504,-3.5504,-3.5504,-3.5504,-3.5504,-3.5504,-3.5504,-3.5504,-3.5504,0.0,-3.5504,-3.5504,-3.5504,-3.5504,-3.5504,-3.5504,-3.5504,-3.5504,-3.5504,-3.5504,-3.5504,-3.5504,-3.5504,-3.5504,-3.5504,-3.5504,-3.5504,-3.5504,-3.5504,-3.5355,-3.4698,-3.4503,-3.4429,-3.4038,-3.323,-3.2512,-3.2512,-3.1989,-3.1511,-3.1511,-3.1511,-3.171,-3.2465,-3.2895,-3.3469,-3.4431,-3.4358,-3.4333,-3.4981,-3.3649,-3.3093,-3.4431,-3.3735,-3.3547,-3.4568,-3.4958,-3.4988,-3.4624,-3.4918,-3.5121,-3.5075,-3.5098,-3.5276,-3.56,-3.5005,-3.4657,-3.46,-3.3987,-3.3495,-3.3145,-3.2449,-3.2092,-3.2092,-3.1697,-3.1511,-1.6959,-1.8589,-2.0285,-2.1427,0.0,0.0,0.0,0.0,0.0,0.0,0.0,0.0,0.0,0.0,0.0,0.0,0.0,0.0,0.0,0.0,0.0,0.0,0.0,0.0,0.0,0.0,0.0,0.0,0.0,0.0,0.0,0.0,-3.5504,-3.5504,-3.5504,-3.5504,-3.5504,-3.5504,-3.5504,-3.5504,-3.5504,-3.5504,-3.5504,-3.5504,-3.5504,-3.5504,-3.5504,-3.5504,-3.5504,-3.5504,-3.5504,-3.5504,-3.5504,-3.5504,-3.5504,-3.5504,-3.5504,-3.5504,-3.5504,-3.5504,-3.5504,-3.5504,-3.5504,-3.5474,-3.531,-3.5265,-3.5085,-3.4247,-3.4023,-3.3903,-3.3395,-3.2781,-3.2258,-3.2258,-3.1869,-3.1511,-3.1511,-3.1511,-3.1768,-3.2652,-3.3235,-3.3862,-3.4688,-3.4576,-3.4431,-3.4592,-3.3297,-3.2879,-3.4406,-3.4012,-3.4128,-3.5447,-3.547,-3.5098,-3.4431,-3.4981,-3.5075,-3.4406,-3.5138,-3.5515,-3.5362,-3.5515,-3.5362,-3.483,-3.4688,-3.4358,-3.3836,-3.3013,-3.2668,-3.2815,-3.1923,-3.1682,-1.8364,-1.9367,-2.0521,-2.2699,0.0,0.0,0.0,0.0,0.0,0.0,0.0,0.0,0.0,0.0,0.0,0.0,0.0,0.0,0.0,0.0,0.0,0.0,0.0,0.0,0.0,0.0,0.0,0.0,0.0,0.0,0.0,0.0,0.0,-3.5504,-3.5504,-3.5504,-3.5504,-3.5504,-3.5504,-3.5504,-3.5504,-3.5504,-3.5504,-3.5504,-3.5504,-3.5504,-3.5504,-3.5504,-3.5504,-3.5504,-3.5504,-3.5504,-3.5504,-3.5504,-3.5504,-3.5504,-3.5504,-3.5504,-3.5504,-3.5504,-3.5504,-3.5504,-3.5504,-3.5385,-3.4773,-3.4578,-3.4277,-3.3021,-3.2632,-3.2647,-3.2572,-3.2064,-3.157,-3.157,-3.154,-3.1511,-3.1511,-3.1511,-3.1894,-3.3245,-3.3572,-3.4012,-3.5316,-3.4512,-3.3887,-3.4503,-3.2891,-3.2296,-3.4358,-3.4012,-3.4128,-3.5447,-3.5052,-3.4406,-3.3735,-3.4284,-3.4382,-3.371,-3.4887,-3.5316,-3.4712,-3.5276,-3.5577,-3.5515,-3.4918,-3.4592,-3.4528,-3.3235,-3.2922,-3.3495,-3.2117,-3.2201,-1.7128,-1.8741,-2.0335,-2.1684,0.0,0.0,0.0,0.0,0.0,0.0,0.0,0.0,0.0,0.0,0.0,0.0,0.0,0.0,0.0,0.0,0.0,0.0,0.0,0.0,0.0,0.0,0.0,0.0,0.0,0.0,0.0,0.0,0.0,-3.5504,-3.5504,-3.5504,-3.5504,-3.5504,-3.5504,-3.5504,-3.5504,-3.5504,-3.5504,-3.5504,-3.5504,-3.5504,-3.5504,-3.5504,-3.5504,-3.5504,-3.5504,-3.5504,-3.5504,-3.5504,-3.5504,-3.5504,-3.5504,-3.5504,-3.5504,-3.5504,-3.5429,-3.4996,-3.4861,-3.4741,-3.4068,-3.3858,-3.3679,-3.2766,-3.2512,-3.2392,-3.1989,-3.169,-3.1511,-3.1511,-3.1511,-3.1511,-3.1511,-3.1853,-3.2477,-3.3417,-3.3582,-3.3887,-3.4823,-3.3878,-3.3066,-3.3313,-3.2312,-3.2089,-3.3744,-3.3761,-3.4128,-3.5447,-3.4988,-3.4333,-3.3659,-3.3836,-3.3684,-3.3013,-3.4633,-3.5316,-3.4624,-3.523,-3.56,-3.56,-3.5362,-3.523,-3.523,-3.4284,-3.3761,-3.3582,-3.305,-3.2879,-1.6705,-1.8493,-2.0251,0.0,0.0,0.0,0.0,0.0,0.0,0.0,0.0,0.0,0.0,0.0,0.0,0.0,0.0,0.0,0.0,0.0,0.0,0.0,0.0,0.0,0.0,0.0,0.0,0.0,0.0,0.0,0.0,0.0,0.0,0.0,-3.5164,-3.5085,-3.4876,-3.4876,-3.4876,-3.4876,-3.507,-3.5295,-3.5504,-3.5504,-3.5504,-3.5489,-3.528,-3.5175,-3.516,-3.4951,-3.4996,-3.5175,-3.5175,-3.531,-3.5474,-3.5265,-3.5175,-3.5175,-3.5175,-3.504,-3.4801,-3.4322,-3.4158,-3.4038,-3.338,-3.3185,-3.3051,-3.2363,-3.2168,-3.2064,-3.163,-3.1511,-3.1511,-3.1511,-3.1511,-3.1553,-3.1796,-3.2244,-3.2788,-3.3469,-3.3582,-3.3735,-3.4211,-3.3339,-3.2586,-3.2586,-3.1951,-3.202,-3.3401,-3.3582,-3.4037,-3.5161,-3.4871,-3.4333,-3.3659,-3.3582,-3.3313,-3.2641,-3.4276,-3.4965,-3.4309,-3.5138,-3.56,-3.56,-3.56,-3.56,-3.56,-3.4918,-3.4455,-3.4227,-3.3598,-3.3261,-1.7608,-1.8882,0.0,0.0,0.0,0.0,0.0,0.0,0.0,0.0,0.0,0.0,0.0,0.0,0.0,0.0,0.0,0.0,0.0,0.0,0.0,0.0,0.0,0.0,0.0,0.0,0.0,0.0,0.0,0.0,0.0,0.0,0.0,0.0,-3.4496,-3.4191,-3.3499,-3.3499,-3.3499,-3.3499,-3.4189,-3.4831,-3.5489,-3.5489,-3.5489,-3.5444,-3.4788,-3.4503,-3.4444,-3.3769,-3.3873,-3.4503,-3.4503,-3.4891,-3.54,-3.4758,-3.4503,-3.4503,-3.4503,-3.4069,-3.3499,-3.3484,-3.3484,-3.3365,-3.2706,-3.2497,-3.2333,-3.169,-3.1511,-3.1511,-3.1511,-3.1511,-3.1511,-3.1511,-3.1511,-3.1682,-3.2437,-3.2629,-3.2815,-3.3453,-3.3582,-3.3582,-3.3582,-3.3039,-3.2586,-3.2629,-3.1979,-3.202,-3.3401,-3.3608,-3.3862,-3.4503,-3.4576,-3.4333,-3.3633,-3.3582,-3.3313,-3.2641,-3.3862,-3.4284,-3.3633,-3.4887,-3.56,-3.56,-3.56,-3.56,-3.56,-3.4918,-3.4941,-3.5515,-3.3547,-3.3339,-1.7732,0.0,0.0,0.0,0.0,0.0,0.0,0.0,0.0,0.0,0.0,0.0,0.0,0.0,0.0,0.0,0.0,0.0,0.0,0.0,0.0,0.0,0.0,0.0,0.0,0.0,0.0,0.0,0.0,0.0,0.0,0.0,0.0,0.0,-3.4496,-3.4191,-3.3499,-3.3499,-3.3499,-3.3499,-3.3694,-3.3888,-3.4113,-3.4562,-3.4532,-3.4083,-3.3873,-3.3784,-3.3769,-3.3574,-3.3604,-3.3784,-3.3784,-3.3918,-3.4068,-3.3858,-3.3784,-3.3784,-3.3784,-3.3664,-3.3425,-3.2961,-3.2811,-3.2677,-3.1989,-3.1795,-3.175,-3.1555,-3.1511,-3.1511,-3.1511,-3.1511,-3.1511,-3.1511,-3.1511,-3.1682,-3.2437,-3.296,-3.3365,-3.3556,-3.3582,-3.3582,-3.3582,-3.261,-3.216,-3.3156,-3.2707,-3.2598,-3.3495,-3.4423,-3.4536,-3.3313,-3.4037,-3.4137,-3.2986,-3.2895,-3.3013,-3.3287,-3.3684,-3.3811,-3.3608,-3.4887,-3.56,-3.56,-3.56,-3.5362,-3.4894,-3.5184,-3.4934,-3.4202,-3.4062,-3.3962,-1.891,0.0,0.0,0.0,0.0,0.0,0.0,0.0,0.0,0.0,0.0,0.0,0.0,0.0,0.0,0.0,0.0,0.0,0.0,0.0,0.0,0.0,0.0,0.0,0.0,0.0,0.0,0.0,0.0,0.0,0.0,0.0,0.0,0.0,-3.429,-3.382,-3.315,-3.2856,-3.2721,-3.2721,-3.2976,-3.2961,-3.2751,-3.3664,-3.3873,-3.3484,-3.3215,-3.2961,-3.2736,-3.2991,-3.3095,-3.3095,-3.3095,-3.326,-3.3469,-3.32,-3.3095,-3.3095,-3.3095,-3.2931,-3.2647,-3.2228,-3.2093,-3.2019,-3.163,-3.1511,-3.1511,-3.1511,-3.1511,-3.1511,-3.1511,-3.1511,-3.1511,-3.1511,-3.171,-3.2132,-3.2826,-3.3505,-3.3912,-3.3659,-3.3582,-3.3521,-3.3235,-3.2489,-3.2312,-3.3427,-3.3495,-3.3531,-3.3962,-3.4934,-3.5138,-3.3928,-3.452,-3.4568,-3.3495,-3.3391,-3.3469,-3.3582,-3.3836,-3.4012,-3.4012,-3.5028,-3.56,-3.56,-3.56,-3.5385,-3.4988,-3.5385,-3.5184,-3.4399,-3.4544,-3.4382,0.0,0.0,0.0,0.0,0.0,0.0,0.0,0.0,0.0,0.0,0.0,0.0,0.0,0.0,0.0,0.0,0.0,0.0,0.0,0.0,0.0,0.0,0.0,0.0,0.0,0.0,0.0,0.0,0.0,0.0,0.0,0.0,0.0,-3.4624,-3.4012,-3.3365,-3.2695,-3.1951,-3.1611,0.0,-3.2138,-3.2079,-3.154,-3.2841,-3.338,-3.3275,-3.2677,-3.2049,-3.1555,-3.2153,-3.2392,-3.2392,-3.2392,-3.2796,-3.3245,-3.2647,-3.2392,-3.2392,-3.2392,-3.2004,-3.1511,-3.1511,-3.1511,-3.1511,-3.1511,-3.1511,-3.1511,-3.1511,-3.1511,-3.1511,-3.1511,-3.1511,-3.1511,-3.1511,-3.2064,-3.2788,-3.3531,-3.4161,-3.4406,-3.3735,-3.3633,-3.3495,-3.2815,-3.2695,-3.2922,-3.3582,-3.426,-3.4688,-3.46,-3.5184,-3.5538,-3.5424,-3.5532,-3.5339,-3.4664,-3.46,-3.4358,-3.3811,-3.4309,-3.4624,-3.4688,-3.5276,-3.56,-3.56,-3.56,-3.5577,-3.5515,-3.5577,-3.5577,-3.5492,-3.4894,-3.4576,0.0,0.0,0.0,0.0,0.0,0.0,0.0,0.0,0.0,0.0,0.0,0.0,0.0,0.0,0.0,0.0,0.0,0.0,0.0,0.0,0.0,0.0,0.0,0.0,0.0,0.0,0.0,0.0,0.0,0.0,0.0,0.0,0.0,-3.4624,-3.4455,-3.4062,-3.3391,-3.2707,-3.2355,0.0,-3.1918,-3.1645,-3.1525,-3.2333,-3.2437,-3.1914,-3.178,-3.163,-3.1511,-3.166,-3.172,-3.172,-3.172,-3.1795,-3.1914,-3.1765,-3.172,-3.172,-3.172,-3.163,-3.1511,-3.1511,-3.1511,-3.1511,-3.1511,-3.1511,-3.1511,-3.1511,-3.1511,-3.1511,-3.1511,-3.1511,-3.1511,-3.1511,-3.2064,-3.2922,-3.4137,-3.4503,-3.4406,-3.3735,-3.4037,-3.4186,-3.3495,-3.3391,-3.3608,-3.4284,-3.4958,-3.5207,-3.4664,-3.5184,-3.5184,-3.4137,-3.4958,-3.5339,-3.4664,-3.46,-3.4759,-3.5138,-3.4807,-3.4847,-3.5362,-3.5515,-3.56,-3.56,-3.56,-3.5339,-3.4823,-3.5339,-3.5339,-3.4807,-3.4664,-3.4333,0.0,0.0,0.0,0.0,0.0,0.0,0.0,0.0,0.0,0.0,0.0,0.0,0.0,0.0,0.0,0.0,0.0,0.0,0.0,0.0,0.0,0.0,0.0,0.0,0.0,0.0,0.0,0.0,0.0,0.0,0.0,-3.56,-3.543,-3.5098,-3.4759,-3.4431,-3.4087,-3.3417,-3.2922,-3.2602,-3.2216,-3.1853,-3.1511,-3.1854,-3.1824,-3.1511,-3.1511,-3.1511,-3.1511,-3.1511,-3.1511,-3.1511,-3.1511,-3.1511,-3.1511,-3.1511,-3.1511,-3.1511,-3.1511,-3.1511,-3.1511,-3.1511,-3.1511,-3.1511,-3.1511,-3.1511,-3.1511,-3.1511,-3.1511,-3.1511,-3.1511,-3.1768,-3.2104,-3.2434,-3.2799,-3.3261,-3.3987,-3.4616,-3.4871,-3.4211,-3.4358,-3.4479,-3.4137,-3.4333,-3.4681,-3.5028,-3.5385,-3.547,-3.5121,-3.5385,-3.5339,-3.4633,-3.5184,-3.547,-3.5098,-3.5075,-3.523,-3.5577,-3.5276,-3.523,-3.56,-3.56,-3.56,-3.56,-3.56,-3.5447,-3.5075,-3.5447,-3.5407,-3.5075,-3.5075,-3.4554,0.0,0.0,0.0,0.0,0.0,0.0,0.0,0.0,0.0,0.0,0.0,0.0,0.0,0.0,0.0,0.0,0.0,0.0,0.0,0.0,0.0,0.0,0.0,0.0,0.0,0.0,0.0,0.0,0.0,0.0,-3.5211,-3.5329,-3.5397,-3.5397,-3.4875,-3.4627,-3.4759,-3.3874,-3.3202,-3.2776,-3.2532,-3.2031,-3.1331,-3.1451,-3.1511,-3.1511,-3.1511,-3.1511,-3.1511,-3.1511,-3.1511,-3.1511,-3.1511,-3.1511,-3.1511,-3.1511,-3.1511,-3.1511,-3.1511,-3.1511,-3.1511,-3.1511,-3.1511,-3.1511,-3.1511,-3.1511,-3.1511,-3.1511,-3.1511,-3.1524,-3.1668,-3.2132,-3.2776,-3.3443,-3.3684,-3.3811,-3.3912,-3.4816,-3.5385,-3.4736,-3.46,-3.464,-3.4759,-3.523,-3.56,-3.56,-3.56,-3.56,-3.56,-3.56,-3.56,-3.56,-3.56,-3.56,-3.56,-3.56,-3.56,-3.56,-3.56,-3.56,-3.56,-3.56,-3.56,-3.56,-3.56,-3.56,-3.56,-3.56,-3.56,-3.56,-3.5464,-3.4688,0.0,0.0,0.0,0.0,0.0,0.0,0.0,0.0,0.0,0.0,0.0,0.0,0.0,0.0,0.0,0.0,0.0,0.0,0.0,0.0,0.0,0.0,0.0,0.0,0.0,0.0,0.0,0.0,0.0,0.0,-3.3694,-3.4303,-3.4641,-3.4641,-3.4558,-3.4835,-3.5453,-3.36,-3.293,-3.3469,-3.2228,-3.1296,-3.0657,-3.1241,-3.1511,-3.1511,-3.1511,-3.1511,-3.1511,-3.1511,-3.1511,-3.1511,-3.1511,-3.1511,-3.1511,-3.1511,-3.1511,-3.1511,-3.1511,-3.1511,-3.1511,-3.1511,-3.1511,-3.1511,-3.1511,-3.1511,-3.1511,-3.1511,-3.1511,-3.164,-3.2272,-3.2547,-3.2776,-3.3443,-3.4037,-3.464,-3.5207,-3.547,-3.5385,-3.4736,-3.46,-3.4783,-3.5362,-3.5538,-3.56,-3.56,-3.56,-3.56,-3.56,-3.56,-3.56,-3.56,-3.56,-3.56,-3.56,-3.56,-3.56,-3.56,-3.56,-3.56,-3.56,-3.56,-3.56,-3.56,-3.56,-3.56,-3.56,-3.56,-3.56,-3.5583,-3.4945,-3.3943,0.0,0.0,0.0,0.0,0.0,0.0,0.0,0.0,0.0,0.0,0.0,0.0,0.0,0.0,0.0,0.0,0.0,0.0,0.0,0.0,0.0,0.0,0.0,0.0,0.0,0.0,0.0,0.0,0.0,-3.3406,-3.3406,-3.3711,-3.388,-3.388,-3.388,-3.4049,-3.4349,-3.345,-3.2821,-3.2398,-3.1083,-3.0283,-3.0026,-3.0652,-3.1127,-3.1511,-3.1511,-3.1511,-3.1511,-3.1511,-3.1511,-3.1511,-3.1511,-3.1511,-3.1511,-3.1511,-3.1511,-3.1511,-3.1511,-3.1511,-3.1511,-3.1511,-3.1511,-3.1511,-3.1511,-3.1511,-3.1511,-3.1511,-3.1796,-3.2203,-3.252,-3.3172,-3.3761,-3.3953,-3.4609,-3.523,-3.5554,-3.56,-3.5515,-3.5207,-3.5161,-3.5253,-3.5538,-3.56,-3.56,-3.56,-3.56,-3.56,-3.56,-3.56,-3.56,-3.56,-3.56,-3.56,-3.56,-3.56,-3.56,-3.56,-3.56,-3.56,-3.56,-3.56,-3.56,-3.56,-3.56,-3.56,-3.56,-3.56,-3.56,-3.5583,-3.4844,-3.3801,0.0,0.0,0.0,0.0,0.0,0.0,0.0,0.0,0.0,0.0,0.0,0.0,0.0,0.0,0.0,0.0,0.0,0.0,0.0,0.0,0.0,0.0,0.0,0.0,0.0,0.0,0.0,0.0,0.0,-3.2848,-3.2848,-3.3017,-3.3119,-3.3119,-3.3119,-3.322,-3.3406,-3.322,-3.2503,-3.1214,-3.0438,-2.9977,-2.9809,-3.0438,-3.0994,-3.1463,-3.1311,-3.1242,-3.1227,-3.1087,-3.1206,-3.1468,-3.1327,-3.1346,-3.1511,-3.1511,-3.1511,-3.1511,-3.1511,-3.1511,-3.1511,-3.1511,-3.1511,-3.1511,-3.1511,-3.1511,-3.1511,-3.1511,-3.2035,-3.2641,-3.2815,-3.371,-3.4616,-3.4633,-3.5138,-3.56,-3.56,-3.56,-3.56,-3.56,-3.56,-3.56,-3.56,-3.56,-3.56,-3.56,-3.56,-3.56,-3.56,-3.56,-3.56,-3.56,-3.56,-3.56,-3.56,-3.56,-3.56,-3.56,-3.56,-3.56,-3.56,-3.56,-3.56,-3.56,-3.56,-3.56,-3.56,-3.5397,-3.5312,-3.5295,-3.437,-3.3331,0.0,0.0,0.0,0.0,0.0,0.0,0.0,0.0,0.0,0.0,0.0,0.0,0.0,0.0,0.0,0.0,0.0,0.0,0.0,0.0,0.0,0.0,0.0,0.0,0.0,0.0,0.0,0.0,0.0,-3.1309,-3.1309,-3.1989,-3.2361,-3.2361,-3.2361,-3.2679,-3.3406,-3.2774,-3.1789,-3.0463,-3.1039,-3.0959,-3.0386,-3.1054,-3.1365,-3.1371,-3.0787,-3.0546,-3.051,-2.9924,-3.0364,-3.1351,-3.0787,-3.0928,-3.1511,-3.1511,-3.1511,-3.1511,-3.1511,-3.1511,-3.1511,-3.1511,-3.1511,-3.1511,-3.1511,-3.1511,-3.1511,-3.1511,-3.2035,-3.2749,-3.3391,-3.4087,-3.4759,-3.5385,-3.5577,-3.56,-3.56,-3.56,-3.56,-3.56,-3.56,-3.56,-3.56,-3.56,-3.56,-3.56,-3.56,-3.56,-3.56,-3.56,-3.56,-3.56,-3.56,-3.56,-3.56,-3.56,-3.56,-3.56,-3.56,-3.56,-3.56,-3.56,-3.56,-3.56,-3.56,-3.56,-3.56,-3.4895,-3.4556,-3.4523,-3.3089,-3.2073,0.0,0.0,0.0,0.0,0.0,0.0,0.0,0.0,0.0,0.0,0.0,0.0,0.0,0.0,0.0,0.0,0.0,0.0,0.0,0.0,0.0,0.0,0.0,0.0,0.0,0.0,0.0,0.0,0.0,0.0,-3.119,-3.1444,-3.1599,-3.1599,-3.1599,-3.1715,-3.1985,-3.1378,-3.0806,-3.0326,-3.019,-3.0007,-2.979,-3.0409,-3.0477,-3.0135,-3.0296,-3.0647,-3.1013,-3.0428,-3.0437,-3.0752,-3.0165,-3.0058,-3.0328,-3.0731,-3.0866,-3.0913,-3.1346,-3.1511,-3.1511,-3.1511,-3.1511,-3.1511,-3.1511,-3.1511,-3.1582,-3.2064,-3.2707,-3.3391,-3.4062,-3.4736,-3.5316,-3.5538,-3.56,-3.56,-3.56,-3.56,-3.56,-3.56,-3.56,-3.56,-3.56,-3.56,-3.56,-3.56,-3.56,-3.56,-3.56,-3.56,-3.56,-3.56,-3.56,-3.56,-3.56,-3.56,-3.56,-3.56,-3.56,-3.56,-3.56,-3.56,-3.56,-3.56,-3.56,-3.5363,-3.4895,-3.4624,-3.4252,-3.3778,-3.2784,-3.2444,0.0,0.0,0.0,0.0,0.0,0.0,0.0,0.0,0.0,0.0,0.0,0.0,0.0,0.0,0.0,0.0,0.0,0.0,0.0,0.0,0.0,0.0,0.0,0.0,0.0,0.0,0.0,0.0,0.0,0.0,-3.0465,-3.0465,-3.0565,-3.0818,-3.1072,-3.119,-3.119,-3.0801,-3.0601,-3.0597,-3.0187,-3.0,-3.0016,-3.0414,-3.0393,-3.0038,-3.0435,-3.0772,-3.0985,-3.0385,-3.0257,-3.041,-2.9796,-2.9584,-2.9651,-3.0043,-3.0193,-3.0253,-3.0717,-3.0853,-3.0853,-3.0853,-3.0987,-3.1152,-3.1152,-3.1316,-3.1668,-3.2382,-3.3093,-3.3761,-3.4431,-3.5098,-3.56,-3.56,-3.56,-3.56,-3.56,-3.56,-3.56,-3.56,-3.56,-3.56,-3.56,-3.56,-3.56,-3.56,-3.56,-3.56,-3.56,-3.56,-3.56,-3.56,-3.56,-3.56,-3.56,-3.56,-3.56,-3.56,-3.56,-3.56,-3.56,-3.56,-3.56,-3.56,-3.5346,-3.4878,-3.4134,-3.4134,-3.3744,-3.3,-3.2256,-3.2344,0.0,0.0,0.0,0.0,0.0,0.0,0.0,0.0,0.0,0.0,0.0,0.0,0.0,0.0,0.0,0.0,0.0,0.0,0.0,0.0,0.0,0.0,0.0,0.0,0.0,0.0,0.0,0.0,0.0,-2.8993,-2.8993,-2.8993,-2.9331,-3.004,-3.0768,-3.114,-3.114,-3.114,-3.114,-3.1157,-3.1157,-3.1173,-3.119,-3.119,-3.119,-3.119,-3.119,-3.0858,-3.0272,-2.9673,-2.9806,-3.0298,-2.9708,-2.9506,-2.9547,-2.9577,-2.9577,-2.9577,-2.9592,-2.9606,-2.9606,-2.9606,-2.9983,-3.0477,-3.0477,-3.0913,-3.1608,-3.2348,-3.3045,-3.3728,-3.4455,-3.5098,-3.56,-3.56,-3.56,-3.56,-3.56,-3.56,-3.56,-3.56,-3.56,-3.56,-3.56,-3.56,-3.56,-3.56,-3.56,-3.56,-3.56,-3.56,-3.56,-3.56,-3.56,-3.56,-3.56,-3.56,-3.56,-3.56,-3.56,-3.56,-3.56,-3.56,-3.56,-3.56,-3.4878,-3.4134,-3.3406,-3.3389,-3.2983,-3.2242,-3.1562,-3.165,-1.1096,0.0,0.0,0.0,0.0,0.0,0.0,0.0,0.0,0.0,0.0,0.0,0.0,0.0,0.0,0.0,0.0,0.0,0.0,0.0,0.0,0.0,0.0,0.0,0.0,0.0,0.0,0.0,-2.8993,-2.8993,-2.8993,-2.8993,-2.9094,-2.9314,-2.9501,-2.9619,-2.9619,-2.9619,-2.9871,-3.0412,-3.0412,-3.0683,-3.119,-3.119,-3.119,-3.119,-3.119,-3.1112,-3.0898,-3.0293,-2.9896,-2.9603,-2.9014,-2.8538,-2.8214,-2.8682,-2.8876,-2.8951,-2.9415,-2.9606,-2.9606,-2.9606,-2.9726,-2.9834,-2.9834,-2.9968,-3.0362,-3.1479,-3.2306,-3.3241,-3.4895,-3.547,-3.56,-3.56,-3.56,-3.56,-3.56,-3.56,-3.56,-3.56,-3.56,-3.56,-3.56,-3.56,-3.56,-3.56,-3.56,-3.56,-3.56,-3.56,-3.56,-3.56,-3.56,-3.56,-3.56,-3.56,-3.56,-3.56,-3.56,-3.56,-3.56,-3.56,-3.56,-3.56,-3.4878,-3.4134,-3.3406,-3.2848,-3.2242,-3.1532,-3.2391,-3.2611,0.0,0.0,0.0,0.0,0.0,0.0,0.0,0.0,0.0,0.0,0.0,0.0,0.0,0.0,0.0,0.0,0.0,0.0,0.0,0.0,0.0,0.0,0.0,0.0,0.0,0.0,0.0,-2.8045,-2.8045,-2.8045,-2.8045,-2.8315,-2.8501,-2.8501,-2.8824,-2.8993,-2.8993,-2.8993,-2.923,-2.9634,-2.9634,-2.9871,-3.0296,-3.0598,-3.0734,-3.0768,-3.1072,-3.119,-3.1171,-3.0818,-3.0166,-2.9361,-2.8996,-2.8367,-2.7645,-2.8049,-2.8173,-2.8233,-2.8633,-2.8768,-2.8768,-2.8768,-2.8963,-2.9175,-2.9175,-2.9554,-3.0184,-3.1219,-3.2181,-3.3199,-3.4381,-3.467,-3.4754,-3.5081,-3.5148,-3.5233,-3.5532,-3.56,-3.56,-3.56,-3.56,-3.56,-3.56,-3.56,-3.56,-3.56,-3.56,-3.56,-3.56,-3.56,-3.56,-3.56,-3.56,-3.56,-3.56,-3.56,-3.56,-3.56,-3.56,-3.56,-3.56,-3.5295,-3.5148,-3.5148,-3.41,-3.3203,-3.2476,-3.2361,-3.1921,-3.1224,-3.2391,-3.2716,0.0,0.0,0.0,0.0,0.0,0.0,-1.856,-1.7929,0.0,0.0,0.0,0.0,0.0,0.0,0.0,0.0,0.0,0.0,0.0,0.0,0.0,0.0,0.0,0.0,0.0,-2.6454,-2.6488,-2.6573,-2.664,-2.6691,-2.6691,-2.7317,-2.7672,-2.7672,-2.8366,-2.8739,-2.8739,-2.8739,-2.879,-2.8874,-2.8874,-2.8908,-2.9027,-2.9685,-2.9989,-3.0023,-3.0768,-3.1072,-3.1072,-3.1157,-3.0477,-2.9406,-2.9406,-2.867,-2.76,-2.76,-2.76,-2.76,-2.76,-2.76,-2.76,-2.76,-2.8004,-2.8513,-2.8565,-2.9367,-3.045,-3.127,-3.2341,-3.3305,-3.3389,-3.3406,-3.3575,-3.4218,-3.4438,-3.4697,-3.5401,-3.5644,-3.5717,-3.5783,-3.5672,-3.5622,-3.5672,-3.5644,-3.56,-3.56,-3.56,-3.56,-3.56,-3.56,-3.56,-3.56,-3.56,-3.56,-3.56,-3.56,-3.56,-3.56,-3.56,-3.5566,-3.5481,-3.4844,-3.4455,-3.437,-3.3021,-3.1938,-3.119,-3.187,-3.1853,-3.1207,-3.1955,-3.2259,-1.7185,-1.749,-1.7839,0.0,0.0,0.0,0.0,-1.5697,0.0,0.0,0.0,0.0,0.0,0.0,0.0,0.0,0.0,0.0,0.0,0.0,0.0,0.0,0.0,0.0,0.0,-2.4931,-2.5185,-2.5778,-2.6353,-2.6691,-2.6691,-2.6843,-2.6911,-2.6911,-2.7063,-2.7148,-2.7148,-2.7148,-2.7452,-2.8027,-2.8027,-2.8383,-2.8993,-2.9145,-2.9213,-2.9264,-2.9989,-3.0311,-3.0362,-3.0954,-3.0477,-2.9406,-2.9406,-2.867,-2.76,-2.76,-2.76,-2.76,-2.76,-2.76,-2.76,-2.76,-2.769,-2.7896,-2.8363,-2.8684,-2.9248,-3.0936,-3.1962,-3.2666,-3.3254,-3.3406,-3.344,-3.3592,-3.4066,-3.4652,-3.5218,-3.5818,-3.6374,-3.6805,-3.6186,-3.5739,-3.6182,-3.5876,-3.56,-3.56,-3.56,-3.56,-3.56,-3.56,-3.56,-3.56,-3.56,-3.56,-3.56,-3.56,-3.56,-3.56,-3.56,-3.5329,-3.4742,-3.4573,-3.4218,-3.3626,-3.275,-3.1938,-3.119,-3.1326,-3.1326,-3.1207,-3.1955,-3.1989,0.0,0.0,-1.927,-1.8538,0.0,0.0,0.0,0.0,0.0,0.0,0.0,0.0,0.0,0.0,0.0,0.0,0.0,0.0,0.0,0.0,0.0,0.0,0.0,0.0,0.0,-2.4491,-2.466,-2.5017,-2.5405,-2.576,-2.6133,-2.615,-2.6319,-2.6691,-2.6691,-2.6691,-2.6691,-2.6691,-2.6894,-2.7249,-2.7249,-2.7469,-2.7876,-2.823,-2.8399,-2.845,-2.9211,-2.955,-2.96,-3.0345,-3.0109,-2.9302,-2.9374,-2.885,-2.8018,-2.771,-2.76,-2.76,-2.76,-2.76,-2.76,-2.76,-2.781,-2.8116,-2.8415,-2.8919,-2.9649,-3.0949,-3.1513,-3.1853,-3.2205,-3.2307,-3.2391,-3.2747,-3.3308,-3.3931,-3.4552,-3.5136,-3.5707,-3.6239,-3.5551,-3.5179,-3.6233,-3.5963,-3.56,-3.56,-3.56,-3.56,-3.56,-3.56,-3.56,-3.56,-3.56,-3.5447,-3.5081,-3.5064,-3.4873,-3.4539,-3.4484,-3.4353,-3.3964,-3.3592,-3.3072,-3.2324,-3.1935,-3.1582,-3.119,-3.119,-3.119,-3.1207,-3.1562,-3.1565,0.0,0.0,0.0,0.0,0.0,-1.8454,0.0,0.0,0.0,-1.8432,0.0,0.0,0.0,0.0,0.0,0.0,0.0,0.0,0.0,0.0,0.0,0.0,0.0,0.0,0.0,-2.3848,-2.3983,-2.4271,-2.4152,-2.4474,-2.5338,-2.5389,-2.5727,-2.6454,-2.6488,-2.6556,-2.6691,-2.6691,-2.6691,-2.6691,-2.6691,-2.6691,-2.6708,-2.7334,-2.7587,-2.7621,-2.8416,-2.8773,-2.884,-2.9583,-2.959,-2.9191,-2.948,-2.9203,-2.8614,-2.8125,-2.7944,-2.7944,-2.7944,-2.7944,-2.7944,-2.7944,-2.8367,-2.885,-2.885,-2.9607,-3.0559,-3.1055,-3.119,-3.119,-3.119,-3.119,-3.1343,-3.1955,-3.2493,-3.3061,-3.3761,-3.4331,-3.4854,-3.5299,-3.4765,-3.4644,-3.5879,-3.5583,-3.5177,-3.5177,-3.5177,-3.5228,-3.5363,-3.538,-3.538,-3.538,-3.538,-3.5098,-3.4336,-3.4286,-3.4032,-3.344,-3.3406,-3.3339,-3.3186,-3.2476,-3.1819,-3.1207,-3.119,-3.119,-3.119,-3.119,-3.119,-3.119,-3.119,-3.119,0.0,0.0,0.0,0.0,-2.0416,0.0,0.0,0.0,-1.7365,-1.6265,0.0,0.0,0.0,0.0,0.0,0.0,0.0,0.0,0.0,0.0,0.0,0.0,0.0,0.0,0.0,0.0,-2.2121,-2.3441,-2.2919,-2.3156,-2.4558,-2.4626,-2.4965,-2.571,-2.5711,-2.6048,-2.6691,-2.6691,-2.6691,-2.6691,-2.6691,-2.6691,-2.6691,-2.6793,-2.6826,-2.686,-2.7604,-2.7942,-2.7993,-2.8789,-2.9075,-2.9099,-2.9889,-2.9827,-2.9293,-2.9225,-2.9203,-2.9203,-2.9203,-2.9203,-2.9203,-2.9203,-2.9607,-3.0102,-3.0102,-3.0559,-3.1112,-3.1171,-3.119,-3.119,-3.119,-3.119,-3.1207,-3.1309,-3.1876,-3.2514,-3.3087,-3.4038,-3.4818,-3.4941,-3.4836,-3.4783,-3.4959,-3.4234,-3.366,-3.366,-3.366,-3.3897,-3.4539,-3.4624,-3.4624,-3.4624,-3.4624,-3.432,-3.3592,-3.3525,-3.3491,-3.3406,-3.3406,-3.3102,-3.2462,-3.1735,-3.1275,-3.119,-3.119,-3.119,-3.119,-3.119,-3.119,-3.119,-3.119,-3.119,0.0,0.0,0.0,0.0,0.0,0.0,-1.841,0.0,-1.7799,0.0,0.0,0.0,0.0,0.0,0.0,0.0,0.0,0.0,0.0,0.0,0.0,0.0,0.0,0.0,0.0,0.0,0.0,0.0,0.0,-2.1806,-2.3763,-2.3864,-2.4203,-2.4948,-2.5389,-2.5761,-2.6065,-2.6488,-2.6691,-2.6691,-2.6691,-2.6691,-2.6691,-2.6691,-2.6691,-2.6708,-2.7029,-2.7165,-2.7232,-2.7994,-2.8298,-2.8398,-2.9204,-2.9178,-2.8593,-2.8255,-2.8403,-2.876,-2.876,-2.9032,-2.9451,-2.9805,-3.0102,-3.0372,-3.072,-3.0995,-3.119,-3.119,-3.119,-3.119,-3.119,-3.119,-3.119,-3.119,-3.1611,-3.2067,-3.2309,-3.295,-3.3473,-3.3507,-3.3266,-3.3054,-3.3054,-3.3247,-3.3406,-3.3406,-3.3406,-3.3508,-3.3829,-3.3863,-3.3863,-3.3863,-3.3863,-3.3558,-3.2814,-3.2767,-3.2577,-3.2154,-3.2121,-3.1985,-3.1684,-3.136,-3.119,-3.119,-3.119,-3.119,-3.119,-3.119,-3.119,-3.119,-3.119,-3.119,-2.2721,0.0,0.0,0.0,0.0,0.0,0.0,0.0,0.0,0.0,0.0,0.0,0.0,0.0,0.0,0.0,0.0,0.0,0.0,0.0,0.0,0.0,0.0,0.0,0.0,0.0,0.0,0.0,0.0,0.0,-2.2649,-2.2798,-2.3238,-2.4169,-2.4712,-2.5203,-2.5592,-2.6133,-2.6488,-2.6691,-2.6691,-2.6691,-2.6691,-2.6691,-2.6691,-2.6691,-2.6691,-2.6691,-2.6742,-2.7266,-2.7503,-2.7553,-2.8129,-2.8098,-2.7706,-2.7691,-2.8025,-2.8517,-2.8712,-2.9269,-2.9973,-3.0414,-3.0539,-3.0638,-3.1055,-3.119,-3.119,-3.119,-3.119,-3.119,-3.119,-3.119,-3.119,-3.119,-3.143,-3.164,-3.164,-3.1986,-3.2282,-3.2179,-3.195,-3.1771,-3.1641,-3.2275,-3.2797,-3.2797,-3.2797,-3.2865,-3.3068,-3.3102,-3.3102,-3.3102,-3.3102,-3.2797,-3.2056,-3.2005,-3.1769,-3.1224,-3.119,-3.119,-3.119,-3.119,-3.119,-3.119,-3.119,-3.119,-3.119,-3.119,-3.119,-3.119,-3.119,-3.119,0.0,0.0,0.0,-2.0737,0.0,0.0,0.0,0.0,-1.903,0.0,0.0,0.0,0.0,0.0,0.0,0.0,0.0,0.0,0.0,0.0,0.0,0.0,0.0,0.0,0.0,0.0,0.0,0.0,0.0,0.0,-2.1106,-2.1258,-2.1935,-2.3376,-2.346,-2.4154,-2.5592,-2.5625,-2.5998,-2.6691,-2.6691,-2.6691,-2.6691,-2.6691,-2.6691,-2.6691,-2.6691,-2.6691,-2.6691,-2.6725,-2.6725,-2.6725,-2.6759,-2.6759,-2.6928,-2.8397,-2.8955,-2.9073,-2.9781,-3.0524,-3.1151,-3.1171,-3.1171,-3.1171,-3.119,-3.119,-3.119,-3.119,-3.119,-3.119,-3.119,-3.119,-3.119,-3.119,-3.121,-3.121,-3.121,-3.1545,-3.1715,-3.1329,-3.1528,-3.1678,-3.1291,-3.1244,-3.1258,-3.1258,-3.1258,-3.1532,-3.2242,-3.2344,-3.2344,-3.2344,-3.2344,-3.2039,-3.1292,-3.1241,-3.1224,-3.119,-3.119,-3.119,-3.119,-3.119,-3.119,-3.119,-3.119,-3.119,-3.119,-3.119,-3.119,-3.119,-3.119,-3.119,0.0,0.0,-2.2941,-2.1808,0.0,0.0,0.0,0.0,0.0,0.0,0.0,0.0,0.0,0.0,0.0,0.0,0.0,0.0,0.0,0.0,0.0,0.0,0.0,0.0,0.0,0.0,0.0,0.0,0.0,0.0,0.0,-2.1651,-2.2158,-2.2665,-2.3139,-2.363,-2.4137,-2.5118,-2.5744,-2.5981,-2.6471,-2.6691,-2.6691,-2.6691,-2.6691,-2.6691,-2.6691,-2.6691,-2.6691,-2.6691,-2.6691,-2.6691,-2.6691,-2.6691,-2.6759,-2.73,-2.7791,-2.8399,-2.9668,-3.026,-3.0548,-3.1038,-3.119,-3.119,-3.119,-3.119,-3.119,-3.119,-3.119,-3.119,-3.119,-3.119,-3.119,-3.119,-3.119,-3.119,-3.119,-3.131,-3.137,-3.123,-3.131,-3.1351,-3.123,-3.119,-3.119,-3.119,-3.119,-3.1275,-3.1529,-3.1582,-3.1582,-3.1582,-3.1582,-3.1461,-3.1207,-3.119,-3.119,-3.119,-3.119,-3.119,-3.119,-3.119,-3.119,-3.119,-3.119,-3.119,-3.119,-3.119,-3.1332,-3.1603,-3.1603,-3.1603,-2.3703,-2.361,0.0,-2.2457,-2.1949,0.0,-2.0288,0.0,0.0,0.0,0.0,0.0,0.0,0.0,0.0,0.0,0.0,0.0,0.0,0.0,0.0,0.0,0.0,0.0,0.0,0.0,-1.635,-1.8352,0.0,0.0,0.0,0.0,-2.204,-2.2279,-2.2767,-2.3139,-2.3393,-2.434,-2.5084,-2.5609,-2.6082,-2.6437,-2.6691,-2.6691,-2.6691,-2.6691,-2.6691,-2.6691,-2.6691,-2.6691,-2.6691,-2.6691,-2.6691,-2.6691,-2.6691,-2.6691,-2.7182,-2.7976,-2.9262,-2.9888,-3.0207,-3.0954,-3.119,-3.119,-3.119,-3.119,-3.119,-3.119,-3.119,-3.119,-3.119,-3.119,-3.119,-3.119,-3.119,-3.119,-3.119,-3.119,-3.119,-3.119,-3.119,-3.119,-3.119,-3.119,-3.119,-3.119,-3.119,-3.119,-3.119,-3.119,-3.119,-3.119,-3.119,-3.119,-3.119,-3.119,-3.119,-3.119,-3.119,-3.119,-3.119,-3.119,-3.119,-3.119,-3.119,-3.119,-3.119,-3.1351,-3.1564,-3.1789,-3.1969,-3.2144]},{"header":{"parameterUnit":"m.s-1","parameterCategory":1,"la1":30.6,"la2":29.2853,"lo1":-89.7004,"lo2":-87.6739,"dy":0.0162,"dx":0.0183,"nx":112,"ny":82,"refTime":"2024-07-15T00:00:00:Z","depth":0,"parameterNumber":3,"parameterNumberName":"V-component_of_WINDS"},"data":[0.0,0.0,0.0,0.0,0.0,0.0,0.0,0.0,0.0,0.0,0.0,0.0,0.0,0.0,0.0,0.0,0.0,0.0,0.0,0.0,0.0,0.0,0.0,0.0,0.0,0.0,0.0,0.0,0.0,0.0,0.0,0.0,0.0,0.0,0.0,0.0,0.0,0.0,0.0,0.0,0.0,0.0,0.0,0.0,0.0,0.0,0.0,0.0,0.0,0.0,0.0,0.0,0.0,0.0,0.0,0.0,0.0,0.0,0.0,0.0,0.0,0.0,0.0,0.0,0.0,0.0,0.0,0.0,0.0,0.0,0.0,0.0,0.0,0.0,0.0,0.0,0.0,0.0,0.0,0.0,0.0,0.0,0.0,0.0,0.0,0.0,0.0,0.0,0.0,0.0,0.0,-2.15,-2.5209,-2.6897,-2.5625,-2.4621,-2.2467,-1.8628,0.0,0.0,0.0,0.0,0.0,0.0,0.0,0.0,0.0,0.0,0.0,0.0,0.0,0.0,0.0,0.0,0.0,0.0,0.0,0.0,0.0,0.0,0.0,0.0,0.0,0.0,0.0,0.0,0.0,0.0,0.0,0.0,0.0,0.0,0.0,0.0,0.0,0.0,0.0,0.0,0.0,0.0,0.0,0.0,0.0,0.0,0.0,0.0,0.0,0.0,0.0,0.0,0.0,0.0,0.0,0.0,0.0,0.0,0.0,0.0,0.0,0.0,0.0,0.0,0.0,0.0,0.0,0.0,0.0,0.0,0.0,0.0,0.0,0.0,0.0,0.0,0.0,0.0,0.0,0.0,0.0,0.0,0.0,0.0,0.0,0.0,0.0,0.0,0.0,0.0,0.0,0.0,0.0,0.0,0.0,0.0,0.0,0.0,0.0,0.0,0.0,0.0,0.0,0.0,-1.8874,-2.434,-2.5979,-2.6341,-2.5574,-2.3494,-2.1229,-1.8959,0.0,0.0,0.0,0.0,0.0,0.0,0.0,0.0,0.0,0.0,0.0,0.0,0.0,0.0,0.0,0.0,0.0,0.0,0.0,0.0,0.0,0.0,0.0,0.0,0.0,0.0,0.0,0.0,0.0,0.0,0.0,0.0,0.0,0.0,0.0,0.0,0.0,0.0,0.0,0.0,0.0,0.0,0.0,0.0,0.0,0.0,0.0,0.0,0.0,0.0,0.0,0.0,0.0,0.0,0.0,0.0,0.0,0.0,0.0,0.0,0.0,0.0,0.0,0.0,0.0,0.0,0.0,0.0,0.0,0.0,0.0,0.0,0.0,0.0,0.0,0.0,0.0,0.0,0.0,0.0,0.0,0.0,0.0,0.0,0.0,0.0,0.0,0.0,0.0,0.0,0.0,0.0,0.0,0.0,0.0,0.0,0.0,0.0,0.0,0.0,0.0,0.0,0.0,-1.7791,-2.1108,-2.5171,-2.651,-2.6523,-2.5095,-2.3391,-2.1161,-1.8276,-1.5827,0.0,0.0,0.0,0.0,0.0,0.0,0.0,0.0,0.0,0.0,0.0,0.0,0.0,0.0,0.0,0.0,0.0,0.0,0.0,0.0,0.0,0.0,0.0,0.0,0.0,0.0,0.0,0.0,0.0,0.0,0.0,0.0,0.0,0.0,0.0,0.0,0.0,0.0,0.0,0.0,0.0,0.0,0.0,0.0,0.0,0.0,0.0,0.0,0.0,0.0,0.0,0.0,0.0,0.0,0.0,0.0,0.0,0.0,0.0,0.0,0.0,0.0,0.0,0.0,0.0,0.0,0.0,0.0,0.0,0.0,0.0,0.0,0.0,0.0,0.0,0.0,0.0,0.0,0.0,0.0,0.0,0.0,0.0,0.0,0.0,0.0,0.0,0.0,0.0,0.0,0.0,0.0,0.0,0.0,0.0,0.0,0.0,0.0,0.0,0.0,0.0,0.0,-2.0565,-2.3039,-2.5335,-2.6806,-2.6823,-2.4909,-2.3583,-2.1453,-1.8156,-1.5126,0.0,0.0,0.0,0.0,0.0,0.0,0.0,0.0,0.0,0.0,0.0,0.0,0.0,0.0,0.0,0.0,0.0,0.0,0.0,0.0,0.0,0.0,0.0,0.0,0.0,0.0,0.0,0.0,0.0,0.0,0.0,0.0,0.0,0.0,0.0,0.0,0.0,0.0,0.0,0.0,0.0,0.0,0.0,0.0,0.0,0.0,0.0,0.0,0.0,0.0,0.0,0.0,0.0,0.0,0.0,0.0,0.0,0.0,0.0,0.0,0.0,0.0,0.0,0.0,0.0,0.0,0.0,0.0,0.0,0.0,0.0,0.0,0.0,0.0,0.0,0.0,0.0,0.0,0.0,0.0,0.0,0.0,0.0,0.0,0.0,0.0,0.0,0.0,0.0,0.0,0.0,0.0,0.0,0.0,0.0,0.0,0.0,0.0,0.0,0.0,0.0,0.0,-2.0921,-2.3545,-2.5418,-2.6806,-2.7026,-2.5622,-2.3795,-2.1816,-1.966,-1.5677,0.0,0.0,0.0,0.0,0.0,0.0,0.0,0.0,0.0,0.0,0.0,0.0,0.0,0.0,0.0,0.0,0.0,0.0,0.0,0.0,0.0,0.0,0.0,0.0,0.0,0.0,0.0,0.0,0.0,0.0,0.0,0.0,0.0,0.0,0.0,0.0,0.0,0.0,0.0,0.0,0.0,0.0,0.0,0.0,0.0,0.0,0.0,0.0,0.0,0.0,0.0,0.0,0.0,0.0,0.0,0.0,0.0,0.0,0.0,0.0,0.0,0.0,0.0,0.0,0.0,0.0,0.0,0.0,0.0,0.0,0.0,0.0,0.0,0.0,0.0,0.0,0.0,0.0,0.0,0.0,0.0,0.0,0.0,0.0,0.0,0.0,0.0,0.0,0.0,0.0,0.0,0.0,0.0,0.0,0.0,0.0,0.0,0.0,0.0,0.0,0.0,0.0,-2.0509,-2.3043,0.0,-2.6048,-2.5994,-2.5101,-2.3298,-2.1024,-1.8256,0.0,0.0,0.0,0.0,0.0,0.0,0.0,0.0,0.0,0.0,0.0,0.0,0.0,0.0,0.0,0.0,0.0,0.0,0.0,0.0,0.0,0.0,0.0,0.0,0.0,0.0,0.0,0.0,0.0,0.0,0.0,0.0,0.0,0.0,0.0,0.0,0.0,0.0,0.0,0.0,0.0,0.0,0.0,0.0,0.0,0.0,0.0,0.0,0.0,0.0,0.0,0.0,0.0,0.0,0.0,0.0,0.0,0.0,0.0,0.0,0.0,0.0,0.0,0.0,0.0,0.0,0.0,0.0,0.0,0.0,0.0,0.0,0.0,0.0,0.0,0.0,0.0,0.0,0.0,0.0,0.0,0.0,0.0,0.0,0.0,0.0,0.0,0.0,0.0,0.0,0.0,0.0,0.0,0.0,0.0,0.0,0.0,0.0,0.0,0.0,0.0,0.0,-1.7907,-2.0504,-2.2862,0.0,-2.5457,-2.5346,-2.4731,-2.2922,-2.0625,-1.7794,0.0,0.0,0.0,0.0,0.0,0.0,0.0,0.0,0.0,0.0,0.0,0.0,0.0,0.0,0.0,0.0,0.0,0.0,0.0,0.0,0.0,0.0,0.0,0.0,0.0,0.0,0.0,0.0,0.0,0.0,0.0,0.0,0.0,0.0,0.0,0.0,0.0,0.0,0.0,0.0,0.0,0.0,0.0,0.0,0.0,0.0,0.0,0.0,0.0,0.0,0.0,0.0,0.0,0.0,0.0,0.0,0.0,0.0,0.0,0.0,0.0,0.0,0.0,0.0,0.0,0.0,0.0,0.0,0.0,0.0,0.0,0.0,0.0,0.0,0.0,0.0,0.0,0.0,0.0,0.0,0.0,0.0,0.0,0.0,0.0,0.0,0.0,0.0,0.0,0.0,0.0,0.0,0.0,0.0,0.0,0.0,0.0,0.0,0.0,0.0,0.0,0.0,-1.8298,-2.1041,-2.3176,-2.447,-2.5187,-2.5307,-2.4664,-2.2832,-2.0842,0.0,0.0,0.0,0.0,0.0,0.0,0.0,0.0,0.0,0.0,0.0,0.0,0.0,0.0,0.0,0.0,0.0,0.0,0.0,0.0,0.0,0.0,0.0,0.0,0.0,0.0,0.0,0.0,0.0,0.0,0.0,0.0,0.0,0.0,0.0,0.0,0.0,0.0,0.0,0.0,0.0,0.0,0.0,0.0,0.0,0.0,0.0,0.0,0.0,0.0,0.0,0.0,0.0,0.0,0.0,0.0,0.0,0.0,0.0,0.0,0.0,0.0,0.0,0.0,0.0,0.0,0.0,0.0,0.0,0.0,0.0,0.0,0.0,0.0,0.0,0.0,0.0,0.0,0.0,0.0,0.0,0.0,0.0,0.0,0.0,0.0,0.0,0.0,0.0,0.0,0.0,0.0,0.0,0.0,0.0,0.0,0.0,0.0,0.0,0.0,0.0,0.0,0.0,-1.8912,-2.0917,-2.2667,-2.441,-2.4335,-2.4313,-2.459,-2.2832,-2.0647,-1.8147,0.0,0.0,0.0,0.0,0.0,0.0,0.0,0.0,0.0,0.0,0.0,0.0,0.0,0.0,0.0,0.0,0.0,0.0,0.0,0.0,0.0,0.0,0.0,0.0,0.0,0.0,0.0,0.0,0.0,0.0,0.0,0.0,0.0,0.0,0.0,0.0,0.0,0.0,0.0,0.0,0.0,0.0,0.0,0.0,0.0,0.0,0.0,0.0,0.0,0.0,0.0,0.0,0.0,0.0,0.0,0.0,0.0,0.0,0.0,0.0,0.0,0.0,0.0,0.0,0.0,0.0,0.0,0.0,0.0,0.0,0.0,0.0,0.0,0.0,0.0,0.0,0.0,0.0,0.0,0.0,0.0,0.0,0.0,0.0,0.0,0.0,0.0,0.0,0.0,0.0,0.0,0.0,0.0,0.0,0.0,0.0,0.0,0.0,0.0,0.0,0.0,0.0,-1.8822,-2.0707,-2.2338,-2.4022,-2.3849,-2.3759,-2.4156,-2.2667,-2.0782,-1.8625,0.0,0.0,0.0,0.0,0.0,0.0,0.0,0.0,0.0,0.0,0.0,0.0,0.0,0.0,0.0,0.0,0.0,0.0,0.0,0.0,0.0,0.0,0.0,0.0,0.0,0.0,0.0,0.0,0.0,0.0,0.0,0.0,0.0,0.0,0.0,0.0,0.0,0.0,0.0,0.0,0.0,0.0,0.0,0.0,0.0,0.0,0.0,0.0,0.0,0.0,0.0,0.0,0.0,0.0,0.0,0.0,0.0,0.0,0.0,0.0,0.0,0.0,0.0,0.0,0.0,0.0,0.0,0.0,0.0,0.0,0.0,0.0,0.0,0.0,0.0,0.0,0.0,0.0,0.0,0.0,0.0,0.0,0.0,0.0,0.0,0.0,0.0,0.0,0.0,0.0,0.0,0.0,0.0,0.0,0.0,0.0,0.0,0.0,0.0,0.0,0.0,0.0,-1.8373,-2.0483,-2.2188,-2.346,-2.3595,-2.3595,-2.3595,-2.2428,-2.1145,-1.9783,0.0,0.0,0.0,0.0,0.0,0.0,0.0,0.0,0.0,0.0,0.0,0.0,0.0,0.0,0.0,0.0,0.0,0.0,0.0,0.0,0.0,0.0,0.0,0.0,0.0,0.0,0.0,0.0,0.0,0.0,0.0,0.0,0.0,0.0,0.0,0.0,0.0,0.0,0.0,0.0,0.0,0.0,0.0,0.0,0.0,0.0,0.0,0.0,0.0,0.0,0.0,0.0,0.0,0.0,0.0,0.0,0.0,0.0,0.0,0.0,-1.486,0.0,0.0,0.0,0.0,0.0,0.0,0.0,0.0,0.0,0.0,0.0,0.0,0.0,0.0,0.0,0.0,0.0,0.0,0.0,0.0,0.0,0.0,0.0,0.0,0.0,0.0,0.0,0.0,0.0,0.0,0.0,0.0,0.0,0.0,0.0,0.0,0.0,0.0,0.0,0.0,0.0,-1.9046,-2.0767,-2.2188,-2.346,-2.3595,-2.3595,-2.3595,-2.2428,-2.1145,-1.9783,-1.7102,0.0,0.0,0.0,0.0,0.0,0.0,0.0,0.0,0.0,0.0,0.0,0.0,0.0,0.0,0.0,0.0,0.0,0.0,0.0,0.0,0.0,0.0,0.0,0.0,0.0,0.0,0.0,0.0,0.0,0.0,0.0,0.0,0.0,0.0,0.0,0.0,0.0,0.0,0.0,0.0,0.0,0.0,0.0,0.0,0.0,0.0,0.0,0.0,0.0,0.0,0.0,0.0,0.0,0.0,0.0,0.0,0.0,0.0,0.0,0.0,-1.6804,0.0,0.0,0.0,0.0,0.0,0.0,0.0,0.0,0.0,0.0,0.0,0.0,0.0,0.0,0.0,0.0,0.0,0.0,0.0,0.0,0.0,0.0,0.0,0.0,0.0,0.0,0.0,0.0,0.0,0.0,0.0,0.0,0.0,0.0,0.0,0.0,0.0,0.0,0.0,0.0,-1.9794,-2.1335,-2.2553,-2.349,-2.3595,-2.3595,-2.3595,-2.2428,-2.1395,-2.0711,-1.8179,0.0,0.0,0.0,0.0,0.0,0.0,0.0,0.0,0.0,0.0,0.0,0.0,0.0,0.0,0.0,0.0,0.0,0.0,0.0,0.0,0.0,0.0,0.0,0.0,0.0,0.0,0.0,0.0,0.0,0.0,0.0,0.0,0.0,0.0,0.0,0.0,0.0,0.0,0.0,0.0,0.0,0.0,0.0,0.0,0.0,0.0,0.0,0.0,0.0,0.0,0.0,0.0,0.0,-1.8044,-1.911,-2.041,-2.1151,-2.208,-2.2987,-2.1262,-2.035,-1.9996,0.0,0.0,0.0,0.0,0.0,0.0,0.0,0.0,0.0,0.0,0.0,0.0,0.0,0.0,0.0,0.0,0.0,0.0,0.0,0.0,0.0,0.0,0.0,0.0,0.0,-2.2349,-2.1941,0.0,0.0,0.0,0.0,0.0,0.0,0.0,0.0,0.0,0.0,0.0,0.0,-2.0389,-2.1859,-2.2942,-2.3535,-2.3595,-2.3595,-2.3595,-2.2532,-2.1814,-2.171,-1.9388,-1.7758,0.0,0.0,0.0,0.0,0.0,0.0,0.0,0.0,0.0,0.0,0.0,0.0,0.0,0.0,0.0,0.0,0.0,0.0,0.0,0.0,0.0,0.0,0.0,0.0,0.0,0.0,0.0,0.0,0.0,0.0,0.0,0.0,-0.8122,-0.9652,0.0,0.0,0.0,0.0,0.0,0.0,0.0,0.0,0.0,0.0,0.0,0.0,0.0,-1.6858,-1.827,-1.8968,-1.9199,-1.9001,-2.1514,-2.2815,-2.3036,-2.4479,-2.5683,-2.6599,-2.6358,0.0,-2.1852,-2.0801,0.0,0.0,0.0,0.0,0.0,0.0,0.0,0.0,0.0,0.0,0.0,0.0,0.0,0.0,0.0,0.0,0.0,0.0,0.0,0.0,0.0,0.0,-2.6009,-2.452,-2.5099,-2.5539,0.0,-2.1439,-1.9425,-1.8989,-1.7162,0.0,0.0,0.0,0.0,0.0,0.0,0.0,-2.0494,-2.1859,-2.2942,-2.3535,-2.3595,-2.3595,-2.3595,-2.2972,-2.2328,-2.1739,-2.0273,-1.9136,-1.8446,-1.6653,0.0,0.0,0.0,0.0,0.0,0.0,0.0,0.0,0.0,0.0,0.0,0.0,0.0,0.0,0.0,0.0,0.0,0.0,0.0,0.0,0.0,0.0,0.0,0.0,0.0,0.0,0.0,0.0,0.0,-0.8147,-0.9867,-1.0566,-1.0888,-1.0878,0.0,0.0,0.0,0.0,0.0,0.0,0.0,0.0,0.0,-1.8111,-1.8158,-1.8804,-2.0151,-2.0465,-2.081,-2.1113,-2.2329,-2.3748,-2.5234,-2.5869,-2.6919,-2.821,-2.821,-2.7205,-2.5435,-2.3715,-2.2347,-2.1202,0.0,0.0,0.0,0.0,-1.9962,-1.9861,-2.1041,-2.1091,0.0,-2.0175,0.0,0.0,0.0,0.0,0.0,0.0,0.0,0.0,0.0,0.0,-2.6238,-2.6573,-2.6739,-2.668,-2.6221,-2.4732,-2.3097,0.0,-2.0741,-1.9603,-1.7761,0.0,0.0,0.0,0.0,0.0,-2.1695,-2.2622,-2.3295,-2.3565,-2.3595,-2.3595,-2.3595,-2.2697,-2.1994,-2.171,-2.0441,-1.9573,-1.9271,-1.8074,-1.6802,0.0,0.0,0.0,0.0,0.0,0.0,0.0,0.0,0.0,0.0,0.0,0.0,0.0,0.0,0.0,0.0,0.0,0.0,0.0,0.0,0.0,0.0,0.0,0.0,0.0,0.0,0.0,0.0,-0.9829,-1.1289,-1.1406,-1.2262,-1.2515,0.0,0.0,0.0,0.0,0.0,0.0,-1.6151,-1.7145,-1.8296,-1.9611,-1.9964,-2.0693,-2.1898,-2.1742,-2.2156,-2.3073,-2.336,-2.4723,-2.6924,-2.7221,-2.7997,-2.9113,-2.9113,-2.8913,-2.8373,-2.6314,-2.487,-2.3891,-2.2912,-2.246,-2.241,-2.2949,-2.2799,-2.2535,-2.3929,-2.3954,-2.3233,-2.2711,0.0,-2.1794,-2.0012,0.0,0.0,0.0,0.0,-2.3059,-2.6538,-2.6606,-2.6125,-2.7625,-2.7586,-2.725,-2.723,-2.6857,-2.5997,0.0,-2.3774,-2.3086,-2.0613,0.0,0.0,0.0,0.0,-2.2562,-2.2897,-2.3475,-2.3789,-2.3625,-2.3595,-2.353,-2.3377,-2.2494,-2.1799,-2.148,-2.0512,-1.9887,-1.9708,-1.9211,-1.8326,-1.698,0.0,0.0,0.0,0.0,0.0,0.0,0.0,0.0,0.0,0.0,0.0,0.0,0.0,0.0,0.0,0.0,0.0,0.0,0.0,0.0,0.0,0.0,0.0,0.0,0.0,0.0,0.0,0.0,0.0,-1.2758,-1.3913,0.0,0.0,0.0,0.0,-1.5254,-1.6826,-1.7988,-1.8422,-1.9678,-2.1041,-2.2457,-2.2379,-2.2826,-2.3826,-2.3305,-2.3557,-2.4713,-2.5775,-2.6889,-2.8056,-2.9157,-2.9689,-2.9741,-2.9741,-2.9729,-2.9578,-2.7871,-2.6851,-2.626,-2.5624,-2.5084,-2.4687,-2.5234,-2.5096,-2.4713,-2.531,-2.4833,-2.4117,-2.5071,-2.4707,-2.3753,-2.3058,-2.2492,0.0,0.0,-2.448,-2.5159,-2.6636,-2.7451,-2.7737,-2.7187,-2.7531,-2.7792,-2.7145,-2.7159,-2.7091,0.0,-2.5405,-2.45,-2.4335,0.0,-2.3385,-2.3355,-2.3977,-2.4231,-2.3625,-2.4126,-2.4306,-2.367,-2.3595,-2.3377,-2.2785,-2.2699,-2.2097,-2.0829,-2.0696,-2.0363,-1.9738,-1.9678,-1.9016,-1.7684,-1.6368,0.0,0.0,0.0,0.0,0.0,0.0,0.0,0.0,0.0,0.0,0.0,0.0,0.0,0.0,0.0,0.0,0.0,0.0,0.0,0.0,0.0,0.0,0.0,0.0,0.0,0.0,0.0,0.0,-1.4872,-1.586,0.0,-1.6035,-1.665,-1.7314,-1.7861,-1.8994,-1.9844,-2.0245,-2.1269,-2.24,-2.3622,-2.3867,-2.4514,-2.5609,-2.5398,-2.5473,-2.5891,-2.6307,-2.7046,-2.8096,-2.7827,-2.8039,-2.8688,-2.7959,-2.8079,-2.8679,-2.8057,-2.7901,-2.7996,-2.7431,-2.7092,-2.6967,-2.7143,-2.7092,-2.6967,-2.7143,-2.6954,-2.659,-2.6298,-2.541,-2.4462,-2.4249,-2.4066,-2.4195,-2.5577,-2.5694,-2.5819,-2.7779,-2.7667,-2.7085,-2.7368,-2.7242,-2.6981,-2.6831,-2.6866,-2.6788,-2.6412,-2.6104,-2.5749,-2.5307,-2.5061,-2.4747,-2.4306,-2.4814,-2.5158,-2.4926,-2.4709,-2.4365,-2.372,-2.328,-2.2748,-2.21,-2.165,-2.1212,-2.0717,-2.0293,-1.9962,-1.9708,-1.9708,-1.9483,-1.9001,-1.77,-1.5934,0.0,0.0,0.0,0.0,0.0,0.0,0.0,0.0,0.0,0.0,0.0,0.0,0.0,0.0,0.0,0.0,0.0,0.0,0.0,0.0,0.0,0.0,0.0,0.0,0.0,0.0,-1.5703,-1.6457,-1.7529,-1.8184,-1.8037,-1.8672,-1.9336,-1.9902,-2.0732,-2.1357,-2.1609,-2.2292,-2.3208,-2.4388,-2.4672,-2.5336,-2.6483,-2.6524,-2.6678,-2.7046,-2.7046,-2.7614,-2.8648,-2.7959,-2.7787,-2.8044,-2.736,-2.7441,-2.8096,-2.8096,-2.8548,-2.9189,-2.8812,-2.8674,-2.8674,-2.8674,-2.8549,-2.836,-2.8172,-2.8109,-2.7984,-2.7291,-2.6527,-2.5891,-2.5891,-2.5799,-2.5858,-2.6788,-2.6483,-2.6252,-2.7749,-2.7317,-2.6624,-2.7162,-2.6871,-2.651,-2.6593,-2.6661,-2.6633,-2.6415,-2.6633,-2.6632,-2.5997,-2.6113,-2.6123,-2.5689,-2.5797,-2.5918,-2.5935,-2.5123,-2.4312,-2.3759,-2.3069,-2.2315,-2.1476,-2.0807,-2.0345,-2.0131,-1.952,-1.9244,-1.9424,-1.9424,-1.953,-1.9708,-1.8162,-1.6622,-1.5125,0.0,0.0,0.0,0.0,0.0,0.0,0.0,0.0,0.0,0.0,0.0,0.0,0.0,0.0,0.0,0.0,0.0,0.0,0.0,0.0,0.0,0.0,0.0,-1.427,-1.5703,-1.696,-1.7432,-1.8965,-1.9814,-1.9424,-2.0537,-2.1239,-2.1249,-2.2019,-2.2529,-2.2529,-2.2877,-2.3637,-2.483,-2.483,-2.542,-2.6607,-2.6607,-2.7128,-2.8136,-2.8136,-2.8727,-2.9792,-2.9753,-2.9145,-2.8096,-2.8044,-2.8044,-2.8096,-2.8044,-2.8727,-2.9792,-2.9792,-2.9792,-2.9792,-2.9792,-2.944,-2.8838,-2.8348,-2.8147,-2.8134,-2.8134,-2.8122,-2.8109,-2.8109,-2.7733,-2.7306,-2.7293,-2.6939,-2.6512,-2.6499,-2.6499,-2.6499,-2.6499,-2.6499,-2.6499,-2.6499,-2.6611,-2.6692,-2.6679,-2.6992,-2.7122,-2.6587,-2.71,-2.7575,-2.7534,-2.693,0.0,-2.6545,-2.5286,-2.4211,-2.3746,-2.3021,-2.2095,-2.0899,-2.0224,-1.9609,-1.9035,-1.8431,-1.8341,-1.8874,-1.8893,-1.9151,-1.969,-1.7758,-1.6443,-1.5829,0.0,0.0,0.0,0.0,0.0,0.0,0.0,0.0,0.0,0.0,0.0,0.0,0.0,0.0,0.0,0.0,0.0,0.0,0.0,0.0,0.0,0.0,-1.6973,-1.6543,-1.7959,-1.9199,-1.9676,-2.0664,-2.1416,-2.1611,-2.1953,-2.2243,-2.2545,-2.2789,-2.2925,-2.2925,-2.3033,-2.4016,-2.5964,-2.6016,-2.6964,-2.8882,-2.8882,-2.904,-2.9326,-2.9326,-2.9495,-2.9753,-2.8937,-2.8386,-2.8004,-2.6397,-2.6603,-2.8056,-2.725,-2.8079,-2.9792,-2.9792,-2.9792,-2.9792,-2.9792,-2.9691,-2.9528,-2.9377,-2.9051,-2.8662,-2.8662,-2.8436,-2.8109,-2.8109,-2.7996,-2.7795,-2.7394,-2.7168,-2.7002,-2.66,-2.6499,-2.6499,-2.6499,-2.6499,-2.6499,-2.6499,-2.6531,-2.6413,-2.5981,-2.6416,-2.6725,-2.6341,-2.7012,-2.724,-2.6162,-2.6283,0.0,-2.58,-2.495,-2.4161,-2.354,-2.2521,-2.1575,-2.0795,-1.9823,-1.918,-1.9012,-1.8431,-1.8341,-1.8874,-1.8893,-1.9151,-1.969,-1.8192,-1.71,0.0,0.0,0.0,0.0,0.0,0.0,0.0,0.0,0.0,0.0,0.0,0.0,0.0,0.0,0.0,0.0,0.0,0.0,0.0,0.0,0.0,0.0,-1.7471,-1.8848,-1.8984,-1.9844,-2.0693,-2.1309,-2.1836,-2.2314,-2.2691,-2.273,-2.2838,-2.3081,-2.3091,-2.3091,-2.3091,-2.3551,-2.4638,-2.6431,-2.6924,-2.8039,-2.9792,-2.9792,-2.9792,-2.9792,-2.9792,-2.9792,-2.9792,-2.9106,-2.8319,0.0,-2.6088,-2.6243,-2.736,-2.676,-2.7799,0.0,0.0,0.0,0.0,0.0,-2.9792,-2.9792,-2.9792,-2.9566,-2.9289,-2.9289,-2.9076,-2.8812,-2.8812,-2.8649,-2.8386,-2.8059,-2.7645,-2.7241,-2.6927,-2.6663,-2.6499,-2.6499,-2.6499,-2.6499,-2.6499,-2.6499,-2.6399,-2.6059,-2.6387,0.0,-2.5756,-2.6385,-2.665,-2.5578,-2.5508,-2.5536,-2.5425,-2.4486,-2.373,-2.3436,-2.2501,-2.1578,-2.0756,-1.9876,0.0,0.0,0.0,-1.8362,-1.8872,-1.9113,0.0,0.0,0.0,0.0,0.0,0.0,0.0,0.0,-1.731,-1.716,0.0,0.0,0.0,0.0,0.0,0.0,0.0,0.0,0.0,0.0,0.0,0.0,0.0,0.0,0.0,0.0,-1.9268,-2.043,-2.122,-2.1385,-2.1678,-2.2422,-2.2549,-2.2734,-2.3062,-2.3091,-2.3091,-2.3091,-2.3091,-2.3091,-2.3091,0.0,0.0,0.0,0.0,-2.8648,-2.9792,-2.9792,-2.9792,-2.9792,-2.9792,-2.9792,-2.9792,-2.9792,-2.8712,-2.6853,-2.673,-2.676,-2.6853,-2.6719,-2.7919,-2.9792,-2.9792,-2.9792,-2.9792,-2.9792,-2.9792,-2.9792,-2.9792,0.0,0.0,-2.9792,-2.9792,-2.9792,-2.9792,-2.9428,-2.8976,-2.8913,-2.8185,-2.7369,-2.7341,-2.6901,-2.6499,-2.6499,-2.6499,-2.6499,-2.6499,-2.6499,-2.6499,-2.6499,-2.6616,-2.6291,-2.5093,-2.5603,-2.5959,-2.5257,-2.4652,-2.4509,-2.5063,-2.3959,-2.3162,-2.3343,0.0,0.0,-2.0968,-2.0239,-1.961,-1.9121,-1.865,-1.8572,-1.9002,-1.9604,-2.0198,-2.0793,-2.0808,-2.1111,-2.1695,-2.1695,-2.1739,-2.1739,-1.9283,-1.9104,0.0,0.0,0.0,0.0,0.0,0.0,0.0,0.0,0.0,0.0,0.0,0.0,0.0,0.0,0.0,-1.8916,-2.043,-2.168,-2.2197,-2.2516,-2.2662,-2.2539,-2.2769,-2.3003,-2.3091,-2.3091,-2.3091,-2.3091,-2.3091,-2.3091,-2.3091,-2.4168,-2.5336,-2.6472,-2.7522,-2.8648,-2.9792,-2.9792,-2.9792,-2.9792,0.0,0.0,-2.9792,-2.9792,-2.9585,-2.9131,-2.8187,-2.8319,-2.9079,-2.8148,-2.8569,-2.9792,-2.9792,-2.9792,-2.9792,-2.9792,-2.9792,-2.9792,-2.9792,-2.9792,-2.9792,-2.9792,-2.9792,-2.9792,-2.9792,-2.9716,0.0,-2.9026,-2.8448,-2.7846,-2.7394,-2.6901,-2.6499,-2.6499,-2.6499,-2.6499,-2.6499,-2.6499,-2.6499,-2.6499,-2.6535,-2.6304,-2.5569,-2.5854,-2.56,-2.3815,-2.3972,-2.4118,-2.3619,-2.3275,-2.3118,-2.3153,-2.2631,-2.2221,-2.202,-2.0652,-1.9761,-1.966,-1.9598,-1.962,-1.9714,-2.0729,-2.1365,-2.15,-2.1515,-2.1575,-2.1695,-2.1695,-2.1984,-2.2478,-2.141,-2.1141,0.0,0.0,0.0,0.0,0.0,0.0,0.0,0.0,0.0,0.0,0.0,-1.6592,0.0,0.0,-1.9893,-2.0762,-2.1631,-2.2344,-2.2721,-2.2964,-2.3013,-2.2808,-2.2974,-2.3091,-2.3091,-2.3091,-2.3091,-2.3091,-2.3091,-2.3343,-2.392,-2.5274,-2.6579,-2.766,-2.9035,-3.0013,-3.0595,-3.0331,-3.0206,-3.0206,-2.993,-2.9792,-2.9792,-2.9792,-2.9495,-2.8937,-2.8347,-2.8426,-2.8937,-2.8937,-2.9275,-2.9792,-2.9792,-2.9792,-2.9792,-2.9792,-2.9792,-2.9792,-2.9792,-2.9792,-2.9792,-2.9792,-2.9792,-2.9792,-2.9792,-2.9792,-2.9729,-2.944,-2.8762,-2.8047,-2.777,-2.7115,-2.6499,-2.6499,-2.6499,-2.6499,-2.6499,-2.6499,-2.6499,-2.6499,-2.6499,-2.6311,-2.5699,-2.5537,-2.5066,-2.3732,-2.3645,-2.356,-2.3155,-2.3108,-2.3108,-2.3108,-2.2857,-2.2581,-2.2305,-2.1029,-2.0264,-2.0264,-2.03,-2.0348,-2.0348,-2.1224,-2.1859,-2.2173,-2.2209,-2.2358,-2.2652,-2.2652,-2.2817,-2.3152,-2.3161,-2.314,0.0,0.0,0.0,0.0,0.0,0.0,0.0,0.0,-1.5245,-1.6221,-1.7598,-1.8848,-1.9541,-2.0371,-2.1329,-2.2344,-2.2578,-2.2711,-2.3052,-2.3091,-2.3091,-2.3091,-2.3091,-2.3091,-2.3091,-2.3091,-2.3091,-2.3091,-2.3091,-2.3634,-2.487,-2.6438,-2.7836,-2.9023,-3.0593,-3.1386,-3.1386,-3.0972,-3.0771,-3.0758,-3.0218,-2.9955,-2.9942,-2.9842,-2.9314,-2.8426,-2.8426,-2.8426,-2.8518,-2.9417,-2.9792,-2.9792,-2.9792,-2.9792,-2.9792,-2.9792,-2.9792,-2.9792,-2.9792,-2.9792,-2.9792,-2.9792,-2.9792,-2.9792,-2.9792,-2.9792,-2.9792,-2.9792,-2.9051,-2.8235,-2.8134,-2.7369,-2.6625,-2.6512,-2.6499,-2.6499,-2.6499,-2.6499,-2.6499,-2.6499,-2.6499,-2.6348,-2.585,-2.5322,-2.4757,-2.4104,-2.3471,-2.3108,-2.3108,-2.3108,-2.3108,-2.3108,-2.3108,-2.2882,-2.2359,-2.1493,-2.0918,-2.0704,-2.0856,-2.0959,-2.0974,-2.1563,-2.2206,-2.2868,-2.2882,-2.3059,-2.3421,-2.3664,-2.3724,-2.3651,-2.4425,-2.4724,-1.1999,-1.2584,0.0,-1.4687,-1.5019,-1.5771,0.0,0.0,-1.8451,-1.9736,-2.0459,-2.0859,-2.0956,-2.1719,-2.2344,-2.249,-2.2779,-2.3042,-2.3091,-2.3091,-2.3091,-2.3091,-2.3091,-2.3091,-2.3091,-2.3091,-2.3091,-2.3091,-2.3091,-2.3807,-2.5418,-2.6656,-2.805,-2.9666,-3.0803,-3.1386,-3.1386,-3.1336,-3.1298,-3.1298,-3.0771,-3.052,-3.0507,-3.0018,-2.9714,-2.9624,-2.9624,-2.9624,-2.9624,-2.9753,-2.9792,-2.9792,-2.9792,-2.9792,-2.9792,-2.9792,-2.9792,-2.9792,-2.9792,-2.9792,-2.9792,-2.9792,-2.9792,-2.9792,-2.9792,-2.9792,-2.9792,-2.9792,-2.9327,-2.8687,-2.8235,-2.7657,-2.7102,-2.6612,-2.6499,-2.6499,-2.6499,-2.6499,-2.6499,-2.6499,-2.6499,-2.6474,-2.6411,-2.5921,-2.5172,-2.4155,-2.3471,-2.3108,-2.3108,-2.3108,-2.3108,-2.3108,-2.3108,-2.2882,-2.2359,-2.2196,-2.1707,-2.0754,-2.1225,-2.1544,-2.1604,-2.2235,-2.2893,-2.349,-2.349,-2.326,-2.2785,-2.394,-2.4221,-2.3722,-2.4949,-2.5173,-1.4258,0.0,0.0,0.0,-1.7295,-1.8057,-1.957,-1.9834,-1.999,-2.0791,-2.1504,-2.1982,-2.1982,-2.2428,-2.2838,0.0,-2.2984,-2.3091,-2.3091,-2.3091,-2.3091,-2.3091,-2.3091,-2.3091,-2.3091,-2.3091,-2.3091,-2.3091,-2.3714,-2.4826,-2.6485,-2.7991,-2.951,-3.1159,-3.198,-3.2365,-3.2365,-3.2039,-3.1863,-3.1863,-3.1323,-3.0909,-3.0608,-3.0382,-3.0093,-2.9792,-2.9792,-2.9792,-2.9792,-2.9792,-2.9792,-2.9792,-2.9792,-2.9792,-2.9792,-2.9792,-2.9792,-2.9792,-2.9792,-2.9792,-2.9792,-2.9792,-2.9792,-2.9792,-2.9792,-2.9792,-2.9792,-2.9792,-2.9151,-2.8398,-2.816,-2.7457,-2.6788,-2.6549,-2.6499,-2.6499,-2.6499,-2.6499,-2.6499,-2.6499,-2.6499,-2.6499,-2.6499,-2.6009,-2.5448,-2.4996,-2.4192,-2.3484,-2.3145,-2.3108,-2.3108,-2.3108,-2.3108,-2.3007,-2.2782,-2.2498,-2.2121,-2.1656,-2.1909,-2.1956,-2.1649,-2.2301,-2.2757,-2.3003,-2.3003,-2.3046,-2.3098,-2.3635,-2.3787,-2.3564,-2.49,-2.5384,-1.5517,0.0,0.0,-1.8066,-1.9102,-1.9961,-2.0508,-2.0869,-2.123,-2.1629,-2.2116,-2.251,-2.251,-2.2721,0.0,-2.2925,-2.3023,-2.3091,-2.3091,-2.3091,-2.3091,-2.3091,-2.3091,-2.3091,-2.3091,-2.3091,-2.3091,-2.3091,-2.428,-2.5733,-2.7433,-2.9098,-3.0792,-3.2386,-3.2855,-3.3124,-3.3124,-3.2667,-3.2453,-3.2441,-3.1888,-3.1424,-3.1047,-3.0746,-3.0407,-3.0018,-2.9854,-2.9792,-2.9792,-2.9792,-2.9792,-2.9792,-2.9792,-2.9792,-2.9792,-2.9792,-2.9792,-2.9792,-2.9792,-2.9792,-2.9792,-2.9792,-2.9792,-2.9792,-2.9792,-2.9792,-2.9792,-2.9792,-2.9202,-2.8499,-2.8185,-2.7507,-2.6876,-2.6562,-2.6499,-2.6499,-2.6499,-2.6499,-2.6499,-2.6499,-2.6499,-2.6499,-2.6499,-2.6147,-2.5774,-2.5624,-2.4808,-2.4017,-2.3409,-2.3195,-2.3108,-2.3108,-2.3108,-2.3108,-2.3108,-2.2732,-2.2443,-2.2322,-2.236,-2.2214,-2.1852,-2.2304,-2.2622,-2.2823,-2.2823,-2.2916,-2.312,-2.3493,-2.3587,-2.3457,-2.5036,-2.5764,0.0,0.0,-1.8164,-1.9033,-2.0225,-2.1356,-2.2246,-2.2441,-2.2578,-2.2955,-2.274,-2.251,-2.251,-2.2519,-2.2529,-2.2529,-2.2828,-2.3091,-2.3091,-2.3091,-2.3091,-2.3091,-2.3091,-2.3091,0.0,-2.3091,-2.3091,-2.3091,-2.4664,-2.6303,-2.7981,-2.9667,-3.135,-3.3031,-3.3111,-3.3124,-3.3124,-3.3056,-3.3056,-3.3086,-3.2466,-3.2177,-3.2127,-3.1085,-3.0608,-3.0557,-3.003,-2.9792,-2.9792,-2.9792,-2.9792,-2.9792,-2.9792,-2.9792,-2.9792,-2.9792,-2.9792,-2.9792,-2.9792,-2.9792,-2.9792,-2.9792,-2.9792,-2.9792,-2.9792,-2.9792,-2.9792,-2.9792,-2.9767,-2.949,-2.8398,-2.8084,-2.7783,-2.6751,-2.6499,-2.6499,-2.6499,-2.6499,-2.6499,-2.6499,-2.6499,-2.6499,-2.6499,-2.6474,-2.6273,-2.5686,-2.5146,-2.4562,-2.4042,-2.3446,-2.3108,-2.3108,-2.3108,-2.3108,-2.3108,-2.3095,-2.2844,-2.2347,-2.2297,-2.2334,-2.2363,-2.239,-2.2698,-2.3365,-2.3365,-2.3067,-2.2417,-2.3743,-2.4055,-2.3452,-2.5514,-2.6481,0.0,0.0,-1.9209,-2.0654,-2.1553,-2.2194,-2.276,-2.2672,-2.2549,-2.2652,-2.2116,-2.1629,-2.1629,-2.1629,-2.1758,-2.2051,-2.2451,-2.2822,-2.3052,-2.3091,-2.3091,-2.3091,-2.3091,0.0,0.0,0.0,0.0,-2.4168,-2.5776,-2.7456,-2.9133,-3.0786,-3.2084,-3.3056,-3.3124,-3.3124,-3.3124,-3.3124,-3.3124,-3.3111,-3.2491,-3.2215,-3.2177,-3.111,-3.062,-3.0583,-3.003,-2.9792,-2.9792,-2.9792,-2.9792,-2.9792,-2.9792,-2.9792,-2.9792,-2.9792,-2.9792,-2.9792,-2.9792,-2.9792,-2.9792,-2.9792,-2.9792,-2.9792,-2.9792,-2.9792,-2.9792,-2.9792,-2.9515,-2.9126,-2.8712,-2.8109,-2.7469,-2.7128,-2.6763,-2.6499,-2.6499,-2.6499,-2.6499,-2.6499,-2.6499,-2.6499,-2.6499,-2.6499,-2.6298,-2.5686,-2.4845,-2.4067,-2.3471,-2.3233,-2.3108,-2.3108,-2.3108,-2.3108,-2.3108,-2.3108,-2.302,-2.2844,-2.2832,-2.2686,-2.2346,-2.2321,-2.2434,-2.2674,-2.2674,-2.2714,-2.2881,-2.3309,-2.3428,-2.322,-2.446,-2.5035,0.0,-1.9414,-2.0322,-2.1758,-2.2432,-2.2721,-2.2847,-2.2705,-2.2383,-2.1914,-2.125,-2.0635,-2.0323,-2.0264,-2.0518,-2.1289,-2.1777,-2.2272,-2.2994,-2.3091,-2.3091,-2.3091,-2.3227,0.0,0.0,0.0,0.0,-2.4755,-2.6908,-2.8637,-2.9749,-3.1544,-3.2692,-3.3111,-3.3124,-3.3124,-3.3124,-3.3124,-3.3124,-3.3111,-3.2704,-3.2516,-3.2478,-3.1386,-3.0896,-3.0846,-3.0118,-2.9792,-2.9792,-2.9792,-2.9792,-2.9792,-2.9792,-2.9792,-2.9792,-2.9792,-2.9792,-2.9792,-2.9792,-2.9792,-2.9792,-2.9792,-2.9792,-2.9792,-2.9792,-2.9792,-2.9792,-2.9792,-2.9528,-2.9151,-2.87,-2.8109,-2.7482,-2.7115,-2.6751,-2.6499,-2.6499,-2.6499,-2.6499,-2.6499,-2.6499,-2.6499,-2.6499,-2.6499,-2.6298,-2.5686,-2.5008,-2.4293,-2.3509,-2.3233,-2.3108,-2.3108,-2.3108,-2.3108,-2.3108,-2.3108,-2.3108,-2.3108,-2.3108,-2.2945,-2.2594,-2.2581,-2.2581,-2.2581,-2.2581,-2.2757,-2.3108,-2.3108,-2.3108,-2.3138,-2.3943,-2.4292,-1.915,-2.0322,-2.1463,-2.2334,-2.2779,-2.2955,-2.2607,-2.2441,-2.2021,-2.0801,-2.0098,-1.9492,0.0,0.0,-1.9023,-2.037,-2.0967,-2.1668,-2.2916,-2.311,-2.313,0.0,0.0,0.0,0.0,0.0,0.0,-2.4977,0.0,-2.9827,-2.9935,-3.1944,-3.3124,-3.3124,-3.3124,-3.3124,-3.3124,-3.3124,-3.3124,-3.3124,-3.3124,-3.3124,-3.3074,-3.1901,-3.1386,-3.1336,-3.0256,-2.9792,-2.9792,-2.9792,-2.9792,-2.9792,-2.9792,-2.9792,-2.9792,-2.9792,-2.9792,-2.9792,-2.9792,-2.9792,-2.9792,-2.9792,-2.9792,-2.9792,-2.9792,-2.9792,-2.9792,-2.9792,-2.9792,-2.9553,-2.8473,-2.8147,-2.7846,-2.6826,-2.6537,-2.6499,-2.6499,-2.6499,-2.6499,-2.6499,-2.6499,-2.6499,-2.6499,-2.6499,-2.6311,-2.5724,-2.5611,-2.5209,-2.413,-2.3484,-2.3133,-2.3108,-2.3108,-2.3108,-2.3108,-2.3108,-2.3108,-2.3108,-2.3108,-2.3108,-2.3108,-2.3108,-2.3108,-2.3108,-2.3108,-2.3108,-2.3108,-2.3108,-2.3108,-2.3138,-2.3884,-2.4234,-2.042,-2.1445,-2.2272,-2.2808,-2.2779,-2.2646,-2.2539,-2.1514,-2.04,-1.9746,-1.8506,-1.7494,-1.7438,0.0,0.0,-2.0054,-2.1104,0.0,-2.2964,-2.3418,0.0,0.0,0.0,-2.43,-2.449,-2.6186,0.0,0.0,-2.8792,-3.0332,-3.1504,-3.2552,-3.3124,-3.3124,-3.3124,-3.3124,-3.3124,-3.3124,-3.3124,-3.3124,-3.3124,-3.3124,-3.3074,-3.1901,-3.1386,-3.1336,-3.0256,-2.9792,-2.9792,-2.9792,-2.9792,-2.9792,-2.9792,-2.9792,-2.9792,-2.9792,-2.9792,-2.9792,-2.9792,-2.9792,-2.9792,-2.9792,-2.9792,-2.9792,-2.9792,-2.9792,-2.9792,-2.9792,-2.9792,-2.9729,-2.944,-2.8737,-2.8034,-2.7758,-2.709,-2.6499,-2.6499,-2.6499,-2.6499,-2.6499,-2.6499,-2.6499,-2.6499,-2.6499,-2.6449,-2.6298,-2.5908,-2.5209,-2.413,-2.3866,-2.3615,-2.3145,-2.3108,-2.3108,-2.3108,-2.3108,-2.3108,-2.3108,-2.3108,-2.3108,-2.3108,-2.3108,-2.3108,-2.3108,-2.3108,-2.3108,-2.3108,-2.3108,-2.3108,-2.3108,-2.3305,-2.3395,-2.1405,-2.2243,-2.2799,-2.3033,-2.2779,-2.2314,-2.1543,-2.0469,-1.9248,-1.7871,-1.6816,0.0,0.0,0.0,0.0,0.0,0.0,0.0,-2.2685,-2.3232,-2.3574,0.0,-2.416,0.0,-2.5093,-2.6496,-2.7589,0.0,-2.9839,-3.1238,-3.2148,-3.2767,-3.3124,-3.3124,-3.3124,-3.3124,-3.3124,-3.3124,-3.3124,-3.3124,-3.3124,-3.3124,-3.3074,-3.1901,-3.1386,-3.1336,0.0,-2.9792,-2.9792,-2.9792,-2.9792,-2.9792,-2.9792,-2.9792,-2.9792,-2.9792,-2.9792,-2.9792,-2.9792,-2.9792,-2.9792,-2.9792,-2.9792,-2.9792,-2.9792,-2.9792,-2.9792,-2.9792,-2.9792,-2.9729,-2.9478,-2.8938,-2.8398,-2.816,-2.7444,-2.6851,-2.6851,-2.6663,-2.6499,-2.6499,-2.6499,-2.6499,-2.6499,-2.6499,-2.6499,-2.6499,-2.6223,-2.5586,-2.4494,-2.4155,-2.3879,-2.3521,-2.3258,-2.3108,-2.3108,-2.3108,-2.3108,-2.3108,-2.3108,-2.3108,-2.3108,-2.3108,-2.3108,-2.3108,-2.3108,-2.3108,-2.3108,-2.3108,-2.3108,-2.3108,-2.3108,-2.3108,-2.2256,-2.2818,-2.3091,-2.3091,-2.2691,-2.1914,-2.0283,-1.9414,-1.8262,-1.583,0.0,0.0,-1.4181,0.0,-1.5928,-1.7737,0.0,-2.0459,-2.2256,-2.2828,-2.3276,-2.3818,-2.4248,-2.4881,-2.5939,-2.652,-2.7328,-2.8589,-3.0805,-3.2062,-3.2062,-3.2707,-3.3124,-3.3124,-3.3124,-3.3124,-3.3124,-3.3124,-3.3124,-3.3124,-3.3006,-3.2968,-3.2918,-3.18,-3.1286,-3.1235,0.0,0.0,-2.9792,-2.9792,-2.9792,-2.9792,-2.9792,-2.9792,-2.9792,-2.9792,-2.9792,-2.9792,-2.9792,-2.9792,-2.9792,-2.9792,-2.9792,-2.9792,-2.9792,-2.9792,-2.9792,-2.9792,-2.9792,-2.9679,-2.9176,-2.895,-2.875,-2.8235,-2.7682,-2.7268,-2.7228,-2.6839,-2.6499,-2.6499,-2.6499,-2.6499,-2.6499,-2.6499,-2.6499,-2.6499,-2.6499,-2.6122,-2.5059,-2.4443,-2.4054,-2.3904,-2.3409,-2.3108,-2.3108,-2.3108,-2.3108,-2.3108,-2.3108,-2.3108,-2.3108,-2.3108,-2.3108,-2.3108,-2.3108,-2.3108,-2.3108,-2.3108,-2.3108,-2.3108,-2.3108,-2.3108,-2.2783,-2.3042,-2.3091,-2.3091,-2.2253,-2.1142,-2.0146,-1.8461,0.0,0.0,0.0,-1.3827,-1.3848,-1.4423,0.0,-1.7898,0.0,0.0,0.0,0.0,-2.3447,0.0,0.0,0.0,0.0,0.0,0.0,0.0,0.0,-3.1356,-3.1356,-3.2463,-3.3124,-3.3124,-3.3124,-3.3124,-3.3124,-3.3124,-3.3124,-3.3111,-3.2591,-3.2365,-3.2328,-3.1235,-3.0758,-3.0708,-3.0068,0.0,-2.9792,-2.9792,-2.9792,-2.9792,-2.9792,-2.9792,-2.9792,-2.9792,-2.9792,-2.9792,-2.9792,-2.9792,-2.9792,-2.9792,-2.9792,-2.9792,-2.9792,-2.9792,-2.9792,-2.9792,-2.9792,-2.9767,-2.9666,-2.9289,-2.875,-2.8235,-2.7682,-2.719,-2.6738,-2.6562,-2.6499,-2.6499,-2.6499,-2.6499,-2.6499,-2.6499,-2.6499,-2.6499,-2.6499,-2.6248,-2.5548,-2.5008,-2.4286,-2.3358,-2.3158,-2.3108,-2.3108,-2.3108,-2.3108,-2.3108,-2.3108,-2.3108,-2.3108,-2.3108,-2.3108,-2.3108,-2.3108,-2.3108,-2.3108,-2.3108,-2.3108,-2.3108,-2.3108,-2.3108,-2.2545,-2.2925,-2.3042,-2.2818,-2.198,-2.0732,-1.9004,0.0,0.0,0.0,0.0,-1.3214,-1.3302,0.0,0.0,0.0,0.0,0.0,0.0,0.0,0.0,0.0,0.0,0.0,0.0,0.0,0.0,0.0,0.0,-3.0822,-3.2096,-3.2754,-3.3124,-3.3124,-3.3124,-3.3124,-3.3124,-3.3124,-3.2918,-3.2629,-3.234,-3.2064,-3.1763,-3.0972,-3.062,-3.0583,-3.003,0.0,-2.9792,-2.9792,-2.9792,-2.9792,-2.9792,-2.9792,-2.9792,-2.9792,-2.9792,-2.9792,-2.9792,-2.9792,-2.9792,-2.9792,-2.9792,-2.9792,-2.9792,-2.9792,-2.9792,-2.9792,-2.9792,-2.9792,-2.9792,-2.9591,-2.9239,-2.8662,-2.7896,-2.7165,-2.6612,-2.6499,-2.6499,-2.6499,-2.6499,-2.6499,-2.6499,-2.6499,-2.6499,-2.6499,-2.6499,-2.6285,-2.5674,-2.5146,-2.4474,-2.3647,-2.3283,-2.3108,-2.3108,-2.3108,-2.3108,-2.3108,-2.3108,-2.3108,-2.3108,-2.3108,-2.3108,-2.3108,-2.3108,-2.3108,-2.3108,-2.3108,-2.3108,-2.3108,-2.3108,-2.3108,-2.2275,-2.2779,-2.2994,-2.2617,-2.1678,-2.0284,-1.793,-1.6678,0.0,0.0,0.0,-1.3079,-1.3079,0.0,0.0,0.0,0.0,0.0,0.0,0.0,0.0,0.0,0.0,0.0,0.0,0.0,0.0,0.0,0.0,0.0,-3.2982,-3.3124,-3.3061,-3.2893,-3.3018,-3.2998,-3.2759,-3.283,-3.2604,-3.2039,-3.1926,-3.165,-3.121,-3.0683,-3.0444,-3.0419,-2.998,0.0,0.0,-2.9792,-2.9792,-2.9792,-2.9792,-2.9792,-2.9792,-2.9792,-2.9792,-2.9792,-2.9792,-2.9792,-2.9792,-2.9792,-2.9792,-2.9792,-2.9792,-2.9792,-2.9792,-2.9792,-2.9792,-2.9792,-2.9792,-2.9792,-2.9616,-2.8875,-2.7908,-2.7014,-2.6587,-2.6499,-2.6499,-2.6499,-2.6499,-2.6499,-2.6499,-2.6499,-2.6499,-2.6499,-2.6499,-2.6285,-2.5674,-2.5247,-2.4732,-2.4067,-2.3446,-2.3108,-2.3108,-2.3108,-2.3108,-2.3108,-2.3108,-2.3108,-2.3108,-2.3108,-2.3108,-2.3108,-2.3108,-2.3108,-2.3108,-2.3108,-2.3108,-2.3108,-2.3108,-2.317,-2.2275,-2.2779,-2.2994,-2.2617,-2.1269,-1.957,-1.7783,0.0,0.0,0.0,-1.3732,-1.3732,-1.3732,0.0,0.0,0.0,0.0,0.0,0.0,0.0,0.0,0.0,0.0,0.0,0.0,0.0,0.0,0.0,0.0,0.0,-3.3081,-3.3124,-3.283,-3.2303,-3.2805,-3.2579,-3.1562,-3.2039,-3.2014,-3.1461,-3.0984,-3.0733,-3.067,-3.0118,-2.9867,-2.9867,-2.9817,0.0,0.0,-2.9792,-2.9792,-2.9792,-2.9792,-2.9792,-2.9792,-2.9792,-2.9792,-2.9792,-2.9792,-2.9792,-2.9792,-2.9792,-2.9792,-2.9792,-2.9792,-2.9792,-2.9792,-2.9792,-2.9792,-2.9792,-2.9792,-2.9792,-2.9528,-2.8436,-2.7344,-2.6562,-2.6499,-2.6499,-2.6499,-2.6499,-2.6499,-2.6499,-2.6499,-2.6499,-2.6499,-2.6499,-2.6499,-2.6285,-2.5674,-2.5548,-2.5134,-2.4104,-2.3446,-2.3108,-2.3108,-2.3108,-2.3108,-2.3108,-2.3108,-2.3108,-2.3108,-2.3108,-2.3108,-2.3108,-2.3108,-2.3108,-2.3108,-2.3108,-2.3108,-2.3108,-2.3108,-2.3384,-2.1035,-2.1855,-2.2285,-2.1814,-2.0635,-1.9092,-1.7383,0.0,0.0,-1.399,-1.3792,-1.3909,-1.4283,-1.3849,-1.3699,0.0,0.0,0.0,0.0,0.0,0.0,0.0,0.0,0.0,0.0,0.0,0.0,0.0,0.0,0.0,-3.2035,-3.2747,-3.2667,-3.175,-3.2265,-3.219,-3.1399,-3.1599,-3.1449,-3.0922,-3.0708,-3.0444,-3.0118,-2.9892,-2.9792,-2.9792,-2.9792,0.0,0.0,-2.9792,-2.9792,-2.9792,-2.9792,-2.9792,-2.9792,-2.9792,-2.9792,-2.9792,-2.9792,-2.9792,-2.9792,-2.9792,-2.9792,-2.9792,-2.9792,-2.9792,-2.9792,-2.9792,-2.9792,-2.9792,-2.9792,-2.9528,-2.9076,-2.8285,-2.7519,-2.6901,-2.6562,-2.6499,-2.6499,-2.6499,-2.6499,-2.6499,-2.6499,-2.6499,-2.6499,-2.6499,-2.6499,-2.6411,-2.6185,-2.5812,-2.5435,-2.5008,-2.418,-2.3484,-2.3133,-2.3108,-2.3108,-2.3108,-2.3108,-2.3108,-2.3108,-2.3108,-2.3108,-2.3108,-2.3108,-2.3108,-2.3108,-2.3108,-2.3108,-2.3108,-2.3108,-2.3409,-1.9873,-2.0869,-2.1387,-2.0908,-1.9873,-1.8496,0.0,0.0,-1.4958,-1.4222,-1.4202,-1.4411,-1.4652,-1.4213,-1.3836,0.0,-1.3786,-1.4297,0.0,0.0,0.0,0.0,0.0,0.0,0.0,0.0,0.0,0.0,0.0,0.0,0.0,-3.2064,-3.2139,-3.1185,-3.1687,-3.1637,-3.0922,-3.1072,-3.0896,-3.0369,-3.0369,-3.0168,-2.9792,-2.9792,-2.9792,-2.9792,0.0,0.0,0.0,-2.9792,-2.9792,-2.9792,-2.9792,-2.9792,-2.9792,-2.9792,-2.9792,-2.9792,-2.9792,-2.9792,-2.9792,-2.9792,-2.9792,-2.9792,-2.9792,-2.9792,-2.9792,-2.9792,-2.9792,-2.9792,-2.9792,-2.9239,-2.8549,-2.8197,-2.7557,-2.6964,-2.6575,-2.6499,-2.6499,-2.6499,-2.6499,-2.6499,-2.6499,-2.6499,-2.6499,-2.6499,-2.6499,-2.6499,-2.6499,-2.6135,-2.5787,-2.5611,-2.4921,-2.418,-2.3421,-2.3358,-2.3283,-2.3108,-2.3108,-2.3108,-2.3108,-2.3108,-2.3108,-2.3108,-2.3108,-2.3108,-2.3108,-2.3283,-2.3271,-2.3108,-2.3446,-2.391,-1.9072,-1.9959,-2.0517,-2.0039,-1.8965,-1.7676,0.0,-1.604,-1.5748,-1.4876,-1.5163,-1.541,-1.4812,-1.4213,-1.3624,-1.3002,-1.3584,0.0,0.0,0.0,0.0,0.0,0.0,0.0,0.0,0.0,0.0,0.0,0.0,0.0,0.0,-3.1122,-3.1173,-3.0645,-3.1135,-3.0884,-2.9817,-3.0357,-3.0344,-2.9804,-2.9804,-2.9804,-2.9792,-2.9792,-2.9792,0.0,0.0,0.0,0.0,-2.9792,-2.9792,-2.9792,-2.9792,-2.9792,-2.9792,-2.9792,-2.9792,-2.9792,-2.9792,-2.9792,-2.9792,-2.9792,-2.9792,-2.9792,-2.9792,-2.9792,-2.9792,-2.9792,-2.9792,-2.9792,-2.9792,-2.8963,-2.8109,-2.8109,-2.7268,-2.6499,-2.6499,-2.6499,-2.6499,-2.6499,-2.6499,-2.6499,-2.6499,-2.6499,-2.6499,-2.6499,-2.6499,-2.6499,-2.6499,-2.6487,-2.6273,-2.5649,-2.5586,-2.5146,-2.4079,-2.3991,-2.3753,-2.3145,-2.3108,-2.3108,-2.3108,-2.3108,-2.3108,-2.3108,-2.3108,-2.3108,-2.3108,-2.3715,-2.369,-2.3133,-2.4249,-2.5084,-1.6799,-1.75,-1.791,-1.774,-1.7302,-1.6707,-1.5993,-1.5685,-1.5495,-1.5347,-1.5477,-1.5543,-1.5343,-1.4824,-1.4491,-1.4774,0.0,0.0,0.0,0.0,0.0,0.0,0.0,0.0,0.0,0.0,0.0,0.0,0.0,0.0,0.0,-3.0206,-3.0218,-3.0055,-3.0583,-3.052,-2.9804,-2.9967,-2.9967,-2.9792,-2.9792,-2.9792,-2.9792,-2.9792,0.0,0.0,0.0,0.0,0.0,-2.9792,-2.9792,-2.9792,-2.9792,-2.9792,-2.9792,-2.9792,-2.9792,-2.9792,-2.9792,-2.9792,-2.9792,-2.9792,-2.9792,-2.9792,-2.9792,-2.9792,-2.9792,-2.9792,-2.9792,-2.9792,-2.9792,-2.9239,-2.8537,-2.8197,-2.7557,-2.6952,-2.6575,-2.6499,-2.6499,-2.6499,-2.6499,-2.6499,-2.6499,-2.6499,-2.6499,-2.6499,-2.6499,-2.6499,-2.6499,-2.6499,-2.6424,-2.6248,-2.6223,-2.5749,-2.4657,-2.4217,-2.3916,-2.374,-2.3321,-2.3108,-2.3108,-2.3108,-2.3108,-2.3108,-2.3496,-2.3728,-2.3728,-2.4261,-2.4469,-2.4274,-2.5021,-2.5435,0.0,-1.5781,-1.62,-1.62,-1.6165,-1.6005,-1.5575,-1.5593,-1.567,-1.5605,-1.561,-1.5543,-1.5298,-1.4766,-1.4421,-1.462,0.0,0.0,0.0,0.0,0.0,0.0,0.0,0.0,0.0,0.0,0.0,0.0,0.0,0.0,0.0,-2.9792,-2.9792,-2.9792,-3.0118,-3.0143,-2.9792,-2.9792,-2.9792,-2.9792,-2.9792,-2.9792,-2.9792,-2.9792,0.0,0.0,0.0,0.0,0.0,-2.9792,-2.9792,-2.9792,-2.9792,-2.9792,-2.9792,-2.9792,-2.9792,-2.9792,-2.9792,-2.9792,-2.9792,-2.9792,-2.9792,-2.9792,-2.9792,-2.9792,-2.9792,-2.9792,-2.9792,-2.9792,-2.9792,-2.9202,-2.8499,-2.8185,-2.7519,-2.6914,-2.6562,-2.6499,-2.6499,-2.6499,-2.6499,-2.6499,-2.6499,-2.6198,-2.606,-2.6452,-2.6176,-2.606,-2.6465,-2.6499,-2.6499,-2.6499,-2.6499,-2.6223,-2.5498,-2.4921,-2.4347,-2.3772,-2.3735,-2.3735,-2.3735,-2.3735,-2.3735,-2.3735,-2.4117,-2.4305,-2.4305,-2.4625,-2.5034,-2.5435,-2.5548,-2.5711,0.0,-1.4484,-1.5137,-1.5137,-1.5308,-1.5377,-1.5039,-1.5555,0.0,-1.5613,-1.5506,-1.5342,-1.4834,-1.421,-1.3662,-1.3239,0.0,0.0,0.0,0.0,0.0,0.0,0.0,0.0,0.0,0.0,0.0,0.0,0.0,0.0,0.0,-2.9792,-2.9792,-2.9792,-2.9792,-2.9792,-2.9792,-2.9792,-2.9792,-2.9792,-2.9792,-2.9792,-2.9792,-2.9792,0.0,0.0,0.0,0.0,0.0,-2.9792,-2.9792,-2.9792,-2.9792,-2.9792,-2.9792,-2.9792,-2.9792,-2.9792,-2.9792,-2.9792,-2.9792,-2.9792,-2.9792,-2.9792,-2.9792,-2.9792,-2.9792,-2.9792,-2.9792,-2.9792,-2.9792,-2.895,-2.8109,-2.8109,-2.7268,-2.6499,-2.6499,-2.6499,-2.6499,-2.6499,-2.6499,-2.6499,-2.6418,-2.5629,-2.53,-2.6164,-2.5546,-2.5335,-2.628,-2.6452,-2.6499,-2.6499,-2.643,-2.6349,-2.628,-2.5857,-2.4962,-2.3473,-2.421,-2.4678,-2.4678,-2.4613,-2.4646,-2.4788,-2.4825,-2.4863,-2.4913,-2.4913,-2.546,-2.6487,-2.5946,-2.5971,-1.1511,0.0,-1.2484,-1.2484,-1.2884,-1.3316,0.0,-1.3857,-1.4242,0.0,0.0,-1.4564,-1.4935,-1.4359,-1.4233,0.0,0.0,0.0,0.0,0.0,0.0,0.0,0.0,0.0,0.0,0.0,0.0,0.0,0.0,0.0,0.0,-2.9792,-2.9792,-2.9792,-2.9792,-2.9792,-2.9792,-2.9792,-2.9792,-2.9792,-2.9792,-2.9792,-2.9792,-2.9792,0.0,0.0,0.0,0.0,-2.9792,-2.9792,-2.9792,-2.9792,-2.9792,-2.9792,-2.9792,-2.9792,-2.9792,-2.9792,-2.9792,-2.9792,-2.9792,-2.9792,-2.9792,-2.9792,-2.9792,-2.9792,-2.9792,-2.9792,-2.9792,-2.9792,-2.9792,-2.895,-2.8109,-2.8109,-2.7268,-2.6499,-2.6499,-2.6499,-2.6499,-2.6499,-2.6499,-2.6245,-2.5476,-2.5158,-2.4826,-2.4289,-2.4671,-2.5087,-2.5335,-2.6025,-2.6499,-2.6499,-2.5804,-2.504,-2.4289,-2.5059,-2.5135,-2.4053,-2.3795,-2.3655,-2.3655,-2.2942,-2.3268,-2.4755,-2.5209,-2.5636,-2.6109,-2.6109,-2.6248,-2.6499,-2.6348,-2.6361,-1.0625,-1.1398,-1.2191,-1.2191,-1.2792,-1.3429,-1.3691,0.0,0.0,0.0,0.0,0.0,-1.4447,0.0,0.0,0.0,0.0,0.0,0.0,0.0,0.0,0.0,0.0,0.0,0.0,0.0,0.0,0.0,0.0,0.0,0.0,-2.9792,-2.9792,-2.9792,-2.9792,-2.9792,-2.9792,-2.9792,-2.9792,-2.9792,-2.9792,-2.9792,-2.9792,-2.9792,-2.9792,0.0,0.0,0.0,-2.9792,-2.9792,-2.9792,-2.9792,-2.9792,-2.9792,-2.9792,-2.9792,-2.9792,-2.9792,-2.9792,-2.9792,-2.9792,-2.9792,-2.9792,-2.9792,-2.9792,-2.9792,-2.9792,-2.9792,-2.9792,-2.9792,-2.9792,-2.895,-2.8109,-2.8109,-2.7268,-2.6499,-2.6499,-2.6499,-2.6499,-2.6499,-2.6129,-2.5629,-2.5075,-2.4228,-2.3599,-2.3514,-2.3963,-2.4301,-2.4301,-2.5182,-2.5652,-2.517,-2.4624,-2.4264,-2.4192,-2.4461,-2.4225,-2.3266,-2.3337,-2.3398,-2.3398,-2.2896,-2.3328,-2.4878,-2.5181,-2.5716,-2.6499,-2.6499,-2.6499,-2.6499,-2.6499,-2.6499,-1.0361,-1.1623,-1.2856,-1.2661,-1.3333,-1.4084,-1.4073,0.0,0.0,0.0,0.0,0.0,0.0,0.0,0.0,0.0,0.0,0.0,0.0,0.0,0.0,0.0,0.0,0.0,0.0,0.0,0.0,0.0,0.0,0.0,0.0,-2.9792,-2.9792,-2.9792,-2.9792,-2.9792,-2.9792,-2.9792,-2.9792,-2.9792,-2.9792,-2.9792,-2.9792,-2.9792,-2.9792,-2.9792,0.0,0.0,-2.9792,-2.9792,-2.9792,-2.9792,-2.9792,-2.9792,-2.9792,-2.9792,-2.9792,-2.9792,-2.9792,-2.9792,-2.9792,-2.9792,-2.9792,-2.9792,-2.9792,-2.9792,-2.9779,-2.9691,-2.9666,-2.9666,-2.9666,-2.8825,-2.7984,-2.7984,-2.7241,-2.6499,-2.6499,-2.6499,-2.6452,-2.6314,-2.5581,-2.4898,-2.46,-2.3257,-2.2403,-2.2962,-2.3441,-2.3635,-2.3294,-2.4264,-2.46,-2.3599,-2.3368,-2.3635,-2.448,-2.3745,-2.285,-2.1849,-2.2739,-2.322,-2.3073,-2.3331,-2.3818,-2.4528,-2.4862,-2.5406,-2.628,-2.6418,-2.6499,-2.6499,-2.6499,-2.6499,-1.0713,-1.1826,-1.2641,-1.1494,-1.1883,-1.2536,0.0,0.0,0.0,0.0,0.0,0.0,0.0,0.0,0.0,0.0,0.0,0.0,0.0,0.0,0.0,0.0,0.0,0.0,0.0,0.0,0.0,0.0,0.0,0.0,0.0,-2.9792,-2.9792,-2.9792,-2.9792,-2.9792,-2.9792,-2.9792,-2.9792,-2.9792,-2.9792,-2.9792,-2.9792,-2.9792,-2.9792,-2.9792,0.0,-2.9792,-2.9792,-2.9792,-2.9792,-2.9792,-2.9792,-2.9792,-2.9792,-2.9792,-2.9792,-2.9792,-2.9792,-2.9792,-2.9792,-2.9792,-2.9792,-2.9792,-2.9792,-2.9792,-2.9691,-2.9202,-2.9026,-2.9026,-2.9026,-2.8235,-2.7406,-2.7406,-2.6952,-2.6499,-2.6499,-2.6499,-2.6233,-2.5406,-2.5123,-2.4445,-2.2739,-2.2925,-2.2776,-2.127,-2.3158,-2.4145,-2.244,-2.3854,-2.46,-2.3599,-2.2739,-2.2291,-2.244,-2.2328,-2.1811,-2.0857,-2.1707,-2.1886,-2.1088,-2.2638,-2.3184,-2.2478,-2.412,-2.5075,-2.5229,-2.6094,-2.6499,-2.6499,-2.6499,-2.6499,-1.0088,-1.1172,-1.2103,-1.1697,-1.2769,-1.3939,0.0,0.0,0.0,0.0,0.0,0.0,0.0,0.0,0.0,0.0,0.0,0.0,0.0,0.0,0.0,0.0,0.0,0.0,0.0,0.0,0.0,0.0,0.0,0.0,0.0,0.0,-2.9792,-2.9792,-2.9792,-2.9792,-2.9792,-2.9792,-2.9792,-2.9792,-2.9792,-2.9792,-2.9792,-2.9792,-2.9792,-2.9792,0.0,-2.9792,-2.9792,-2.9792,-2.9792,-2.9792,-2.9792,-2.9792,-2.9792,-2.9792,-2.9792,-2.9792,-2.9792,-2.9792,-2.9792,-2.9792,-2.9792,-2.9792,-2.9792,-2.9792,-2.9666,-2.9051,-2.8888,-2.8825,-2.8561,-2.7883,-2.7281,-2.7281,-2.6901,-2.6499,-2.6499,-2.6499,-2.6198,-2.5194,-2.4564,-2.3708,-2.2253,-2.2366,-2.2403,-2.1489,-2.3452,-2.4264,-2.2253,-2.3294,-2.3599,-2.2075,-2.1527,-2.1441,-2.1952,-2.1555,-2.126,-2.1336,-2.1298,-2.1039,-2.0605,-2.1451,-2.1973,-2.1989,-2.2925,-2.3672,-2.4192,-2.5182,-2.5699,-2.5699,-2.6245,-2.6499,-0.9767,-1.0732,-1.1741,-1.234,0.0,0.0,0.0,0.0,0.0,0.0,0.0,0.0,0.0,0.0,0.0,0.0,0.0,0.0,0.0,0.0,0.0,0.0,0.0,0.0,0.0,0.0,0.0,0.0,0.0,0.0,0.0,0.0,-2.9792,-2.9792,-2.9792,-2.9792,-2.9792,-2.9792,-2.9792,-2.9792,-2.9792,-2.9792,-2.9792,-2.9792,-2.9792,-2.9792,-2.9792,-2.9792,-2.9792,-2.9792,-2.9792,-2.9792,-2.9792,-2.9792,-2.9792,-2.9792,-2.9792,-2.9792,-2.9792,-2.9792,-2.9792,-2.9792,-2.9792,-2.9767,-2.9628,-2.9591,-2.944,-2.8737,-2.8549,-2.8448,-2.8021,-2.7507,-2.7128,-2.7128,-2.6801,-2.6499,-2.6499,-2.6499,-2.6129,-2.4886,-2.4036,-2.311,-2.1886,-2.2027,-2.2253,-2.2038,-2.3916,-2.4552,-2.2291,-2.2888,-2.275,-2.0828,-2.0789,-2.1298,-2.2253,-2.1489,-2.1336,-2.2291,-2.127,-2.0712,-2.0934,-2.0712,-2.0934,-2.1659,-2.1886,-2.2366,-2.3147,-2.4373,-2.4898,-2.4671,-2.5908,-2.6233,-1.0576,-1.1182,-1.1878,-1.3105,0.0,0.0,0.0,0.0,0.0,0.0,0.0,0.0,0.0,0.0,0.0,0.0,0.0,0.0,0.0,0.0,0.0,0.0,0.0,0.0,0.0,0.0,0.0,0.0,0.0,0.0,0.0,0.0,0.0,-2.9792,-2.9792,-2.9792,-2.9792,-2.9792,-2.9792,-2.9792,-2.9792,-2.9792,-2.9792,-2.9792,-2.9792,-2.9792,-2.9792,-2.9792,-2.9792,-2.9792,-2.9792,-2.9792,-2.9792,-2.9792,-2.9792,-2.9792,-2.9792,-2.9792,-2.9792,-2.9792,-2.9792,-2.9792,-2.9792,-2.9691,-2.9113,-2.895,-2.8762,-2.7708,-2.7442,-2.7394,-2.7392,-2.6964,-2.6549,-2.6549,-2.6524,-2.6499,-2.6499,-2.6499,-2.5943,-2.3988,-2.3562,-2.2888,-2.1011,-2.2199,-2.3073,-2.214,-2.4505,-2.5346,-2.2366,-2.2888,-2.275,-2.0828,-2.1375,-2.2291,-2.3294,-2.2478,-2.2328,-2.3331,-2.1642,-2.1011,-2.1849,-2.1039,-2.0644,-2.0712,-2.1555,-2.2038,-2.2103,-2.4036,-2.4528,-2.3672,-2.5604,-2.5499,-0.9864,-1.082,-1.177,-1.252,0.0,0.0,0.0,0.0,0.0,0.0,0.0,0.0,0.0,0.0,0.0,0.0,0.0,0.0,0.0,0.0,0.0,0.0,0.0,0.0,0.0,0.0,0.0,0.0,0.0,0.0,0.0,0.0,0.0,-2.9792,-2.9792,-2.9792,-2.9792,-2.9792,-2.9792,-2.9792,-2.9792,-2.9792,-2.9792,-2.9792,-2.9792,-2.9792,-2.9792,-2.9792,-2.9792,-2.9792,-2.9792,-2.9792,-2.9792,-2.9792,-2.9792,-2.9792,-2.9792,-2.9792,-2.9792,-2.9792,-2.9729,-2.9365,-2.9252,-2.9151,-2.8586,-2.8411,-2.826,-2.7494,-2.7281,-2.7241,-2.6901,-2.665,-2.6499,-2.6499,-2.6499,-2.6499,-2.6499,-2.6025,-2.5146,-2.3781,-2.3514,-2.3073,-2.1707,-2.3121,-2.4301,-2.3927,-2.5358,-2.5639,-2.3246,-2.3257,-2.275,-2.0828,-2.1441,-2.2403,-2.3404,-2.3147,-2.3368,-2.4373,-2.201,-2.1011,-2.1952,-2.1116,-2.0605,-2.0605,-2.0934,-2.1116,-2.1116,-2.2478,-2.3257,-2.3514,-2.4289,-2.4552,-0.962,-1.0704,-1.1721,0.0,0.0,0.0,0.0,0.0,0.0,0.0,0.0,0.0,0.0,0.0,0.0,0.0,0.0,0.0,0.0,0.0,0.0,0.0,0.0,0.0,0.0,0.0,0.0,0.0,0.0,0.0,0.0,0.0,0.0,0.0,-2.8794,-2.8922,-2.9264,-2.9264,-2.9264,-2.9264,-2.9428,-2.9616,-2.9792,-2.9792,-2.9792,-2.9779,-2.9603,-2.9515,-2.9503,-2.9327,-2.9365,-2.9515,-2.9515,-2.9628,-2.9767,-2.9591,-2.9515,-2.9515,-2.9515,-2.9402,-2.9202,-2.88,-2.8662,-2.8561,-2.8009,-2.7846,-2.7733,-2.7216,-2.7052,-2.6964,-2.66,-2.6499,-2.6499,-2.6499,-2.6499,-2.6418,-2.6094,-2.5476,-2.4707,-2.3708,-2.3514,-2.3294,-2.259,-2.3891,-2.5004,-2.5004,-2.5873,-2.5756,-2.377,-2.3514,-2.285,-2.1231,-2.1631,-2.2403,-2.3404,-2.3514,-2.3927,-2.4933,-2.2526,-2.1479,-2.244,-2.127,-2.0605,-2.0605,-2.0605,-2.0605,-2.0605,-2.1555,-2.2215,-2.2601,-2.3526,-2.4,-1.0166,-1.0929,0.0,0.0,0.0,0.0,0.0,0.0,0.0,0.0,0.0,0.0,0.0,0.0,0.0,0.0,0.0,0.0,0.0,0.0,0.0,0.0,0.0,0.0,0.0,0.0,0.0,0.0,0.0,0.0,0.0,0.0,0.0,0.0,-2.659,-2.7075,-2.8109,-2.8109,-2.8109,-2.8109,-2.8624,-2.9227,-2.9779,-2.9779,-2.9779,-2.9741,-2.9126,-2.8888,-2.8838,-2.8335,-2.8423,-2.8888,-2.8888,-2.9277,-2.9704,-2.9101,-2.8888,-2.8888,-2.8888,-2.8524,-2.8109,-2.8097,-2.8097,-2.7996,-2.7444,-2.7268,-2.719,-2.665,-2.6499,-2.6499,-2.6499,-2.6499,-2.6499,-2.6499,-2.6499,-2.6233,-2.5229,-2.4981,-2.4671,-2.3697,-2.3514,-2.3514,-2.3514,-2.4337,-2.5004,-2.4981,-2.5838,-2.5756,-2.377,-2.3478,-2.311,-2.214,-2.2027,-2.2403,-2.3441,-2.3514,-2.3927,-2.4933,-2.311,-2.2478,-2.3441,-2.1642,-2.0605,-2.0605,-2.0605,-2.0605,-2.0605,-2.1555,-2.1517,-2.0712,-2.3599,-2.3891,-1.0263,0.0,0.0,0.0,0.0,0.0,0.0,0.0,0.0,0.0,0.0,0.0,0.0,0.0,0.0,0.0,0.0,0.0,0.0,0.0,0.0,0.0,0.0,0.0,0.0,0.0,0.0,0.0,0.0,0.0,0.0,0.0,0.0,0.0,-2.659,-2.7075,-2.8109,-2.8109,-2.8109,-2.8109,-2.8273,-2.8436,-2.8624,-2.9001,-2.8976,-2.8599,-2.8423,-2.8348,-2.8335,-2.8172,-2.8197,-2.8348,-2.8348,-2.8461,-2.8586,-2.8411,-2.8348,-2.8348,-2.8348,-2.8247,-2.8047,-2.7657,-2.7532,-2.7419,-2.6901,-2.6738,-2.67,-2.6537,-2.6499,-2.6499,-2.6499,-2.6499,-2.6499,-2.6499,-2.6499,-2.6233,-2.5229,-2.4445,-2.3854,-2.3551,-2.3514,-2.3514,-2.3514,-2.4909,-2.5581,-2.4145,-2.4814,-2.4957,-2.3672,-2.2301,-2.2161,-2.3927,-2.285,-2.2702,-2.4409,-2.4564,-2.4373,-2.3963,-2.3368,-2.3184,-2.3478,-2.1642,-2.0605,-2.0605,-2.0605,-2.0934,-2.1593,-2.1193,-2.1565,-2.2638,-2.2813,-2.2962,-1.0918,0.0,0.0,0.0,0.0,0.0,0.0,0.0,0.0,0.0,0.0,0.0,0.0,0.0,0.0,0.0,0.0,0.0,0.0,0.0,0.0,0.0,0.0,0.0,0.0,0.0,0.0,0.0,0.0,0.0,0.0,0.0,0.0,0.0,-2.5142,-2.5834,-2.6844,-2.7265,-2.7457,-2.7457,-2.767,-2.7657,-2.7482,-2.8247,-2.8423,-2.8097,-2.7871,-2.7657,-2.7469,-2.7682,-2.777,-2.777,-2.777,-2.7908,-2.8084,-2.7858,-2.777,-2.777,-2.777,-2.7632,-2.7394,-2.7102,-2.6989,-2.6927,-2.66,-2.6499,-2.6499,-2.6499,-2.6499,-2.6499,-2.6499,-2.6499,-2.6499,-2.6499,-2.6198,-2.5616,-2.4624,-2.3624,-2.3036,-2.3404,-2.3514,-2.3635,-2.4036,-2.5099,-2.5358,-2.3734,-2.3672,-2.3588,-2.2962,-2.1565,-2.127,-2.3047,-2.2151,-2.2075,-2.3672,-2.3818,-2.3708,-2.3514,-2.3147,-2.2888,-2.2888,-2.1413,-2.0605,-2.0605,-2.0605,-2.0895,-2.1441,-2.0895,-2.1193,-2.2339,-2.2113,-2.2328,0.0,0.0,0.0,0.0,0.0,0.0,0.0,0.0,0.0,0.0,0.0,0.0,0.0,0.0,0.0,0.0,0.0,0.0,0.0,0.0,0.0,0.0,0.0,0.0,0.0,0.0,0.0,0.0,0.0,0.0,0.0,0.0,0.0,-2.1952,-2.2888,-2.3854,-2.4862,-2.5873,-2.6349,0.0,-2.6967,-2.6977,-2.6524,-2.7557,-2.8009,-2.7921,-2.7419,-2.6952,-2.6537,-2.704,-2.7241,-2.7241,-2.7241,-2.7519,-2.7896,-2.7394,-2.7241,-2.7241,-2.7241,-2.6914,-2.6499,-2.6499,-2.6499,-2.6499,-2.6499,-2.6499,-2.6499,-2.6499,-2.6499,-2.6499,-2.6499,-2.6499,-2.6499,-2.6499,-2.5734,-2.4707,-2.3588,-2.2664,-2.2291,-2.3294,-2.3441,-2.3672,-2.4671,-2.4862,-2.4528,-2.3514,-2.2515,-2.1886,-2.1989,-2.1193,-2.0673,-2.0867,-2.0722,-2.0972,-2.1924,-2.1989,-2.2366,-2.3184,-2.244,-2.1952,-2.1886,-2.1039,-2.0605,-2.0605,-2.0605,-2.0644,-2.0712,-2.0644,-2.0644,-2.075,-2.1593,-2.2027,0.0,0.0,0.0,0.0,0.0,0.0,0.0,0.0,0.0,0.0,0.0,0.0,0.0,0.0,0.0,0.0,0.0,0.0,0.0,0.0,0.0,0.0,0.0,0.0,0.0,0.0,0.0,0.0,0.0,0.0,0.0,0.0,0.0,-2.1952,-2.2215,-2.2813,-2.3818,-2.4814,-2.5335,0.0,-2.6253,-2.6612,-2.6512,-2.719,-2.7218,-2.6839,-2.6725,-2.66,-2.6499,-2.6625,-2.6675,-2.6675,-2.6675,-2.6738,-2.6839,-2.6713,-2.6675,-2.6675,-2.6675,-2.66,-2.6499,-2.6499,-2.6499,-2.6499,-2.6499,-2.6499,-2.6499,-2.6499,-2.6499,-2.6499,-2.6499,-2.6499,-2.6499,-2.6499,-2.5734,-2.4528,-2.2702,-2.214,-2.2291,-2.3294,-2.285,-2.2627,-2.3672,-2.3818,-2.3478,-2.2478,-2.1527,-2.1155,-2.1924,-2.1193,-2.1193,-2.2702,-2.1527,-2.0972,-2.1924,-2.1989,-2.1773,-2.127,-2.1697,-2.1669,-2.0934,-2.0712,-2.0605,-2.0605,-2.0605,-2.0972,-2.1707,-2.0972,-2.0972,-2.1697,-2.1924,-2.2403,0.0,0.0,0.0,0.0,0.0,0.0,0.0,0.0,0.0,0.0,0.0,0.0,0.0,0.0,0.0,0.0,0.0,0.0,0.0,0.0,0.0,0.0,0.0,0.0,0.0,0.0,0.0,0.0,0.0,0.0,0.0,-2.0605,-2.0818,-2.1298,-2.1773,-2.2253,-2.2776,-2.3781,-2.4528,-2.5016,-2.5511,-2.6025,-2.6499,-2.6788,-2.6763,-2.6499,-2.6499,-2.6499,-2.6499,-2.6499,-2.6499,-2.6499,-2.6499,-2.6499,-2.6499,-2.6499,-2.6499,-2.6499,-2.6499,-2.6499,-2.6499,-2.6499,-2.6499,-2.6499,-2.6499,-2.6499,-2.6499,-2.6499,-2.6499,-2.6499,-2.6499,-2.6129,-2.5652,-2.517,-2.466,-2.4,-2.2925,-2.2,-2.1631,-2.259,-2.2366,-2.2178,-2.2702,-2.2403,-2.1935,-2.1413,-2.0895,-2.0789,-2.126,-2.0895,-2.0972,-2.201,-2.1193,-2.0789,-2.1298,-2.1336,-2.1116,-2.0644,-2.1039,-2.1116,-2.0605,-2.0605,-2.0605,-2.0605,-2.0605,-2.0828,-2.1336,-2.0828,-2.0857,-2.1336,-2.1336,-2.1697,0.0,0.0,0.0,0.0,0.0,0.0,0.0,0.0,0.0,0.0,0.0,0.0,0.0,0.0,0.0,0.0,0.0,0.0,0.0,0.0,0.0,0.0,0.0,0.0,0.0,0.0,0.0,0.0,0.0,0.0,-2.038,-2.0449,-2.0488,-2.0488,-2.1214,-2.169,-2.1773,-2.2848,-2.3847,-2.4755,-2.5075,-2.565,-2.6348,-2.6449,-2.6499,-2.6499,-2.6499,-2.6499,-2.6499,-2.6499,-2.6499,-2.6499,-2.6499,-2.6499,-2.6499,-2.6499,-2.6499,-2.6499,-2.6499,-2.6499,-2.6499,-2.6499,-2.6499,-2.6499,-2.6499,-2.6499,-2.6499,-2.6499,-2.6499,-2.6452,-2.628,-2.5616,-2.4755,-2.3745,-2.3368,-2.3184,-2.3036,-2.1756,-2.0895,-2.1811,-2.1989,-2.1962,-2.1773,-2.1116,-2.0605,-2.0605,-2.0605,-2.0605,-2.0605,-2.0605,-2.0605,-2.0605,-2.0605,-2.0605,-2.0605,-2.0605,-2.0605,-2.0605,-2.0605,-2.0605,-2.0605,-2.0605,-2.0605,-2.0605,-2.0605,-2.0605,-2.0605,-2.0605,-2.0605,-2.0605,-2.0527,-2.0843,0.0,0.0,0.0,0.0,0.0,0.0,0.0,0.0,0.0,0.0,0.0,0.0,0.0,0.0,0.0,0.0,0.0,0.0,0.0,0.0,0.0,0.0,0.0,0.0,0.0,0.0,0.0,0.0,0.0,0.0,-1.9453,-1.9805,-2.0,-2.0,-2.0103,-2.0366,-2.0779,-2.2239,-2.3219,-2.3708,-2.5464,-2.6086,-2.5724,-2.6273,-2.6499,-2.6499,-2.6499,-2.6499,-2.6499,-2.6499,-2.6499,-2.6499,-2.6499,-2.6499,-2.6499,-2.6499,-2.6499,-2.6499,-2.6499,-2.6499,-2.6499,-2.6499,-2.6499,-2.6499,-2.6499,-2.6499,-2.6499,-2.6499,-2.6499,-2.6314,-2.5441,-2.5087,-2.4755,-2.3745,-2.285,-2.1962,-2.1155,-2.0789,-2.0895,-2.1811,-2.1989,-2.1735,-2.0934,-2.0673,-2.0605,-2.0605,-2.0605,-2.0605,-2.0605,-2.0605,-2.0605,-2.0605,-2.0605,-2.0605,-2.0605,-2.0605,-2.0605,-2.0605,-2.0605,-2.0605,-2.0605,-2.0605,-2.0605,-2.0605,-2.0605,-2.0605,-2.0605,-2.0605,-2.0605,-2.0595,-2.0176,-2.0903,0.0,0.0,0.0,0.0,0.0,0.0,0.0,0.0,0.0,0.0,0.0,0.0,0.0,0.0,0.0,0.0,0.0,0.0,0.0,0.0,0.0,0.0,0.0,0.0,0.0,0.0,0.0,0.0,0.0,-1.9287,-1.9287,-1.9463,-1.9561,-1.9561,-1.9561,-1.9658,-1.9881,-2.0549,-2.1468,-2.2685,-2.4614,-2.541,-2.5139,-2.4932,-2.5432,-2.6499,-2.6499,-2.6499,-2.6499,-2.6499,-2.6499,-2.6499,-2.6499,-2.6499,-2.6499,-2.6499,-2.6499,-2.6499,-2.6499,-2.6499,-2.6499,-2.6499,-2.6499,-2.6499,-2.6499,-2.6499,-2.6499,-2.6499,-2.6094,-2.5558,-2.5123,-2.4156,-2.3257,-2.301,-2.2048,-2.1116,-2.0683,-2.0605,-2.0712,-2.1155,-2.1231,-2.1078,-2.0673,-2.0605,-2.0605,-2.0605,-2.0605,-2.0605,-2.0605,-2.0605,-2.0605,-2.0605,-2.0605,-2.0605,-2.0605,-2.0605,-2.0605,-2.0605,-2.0605,-2.0605,-2.0605,-2.0605,-2.0605,-2.0605,-2.0605,-2.0605,-2.0605,-2.0605,-2.0605,-2.0595,-2.0117,-2.0461,0.0,0.0,0.0,0.0,0.0,0.0,0.0,0.0,0.0,0.0,0.0,0.0,0.0,0.0,0.0,0.0,0.0,0.0,0.0,0.0,0.0,0.0,0.0,0.0,0.0,0.0,0.0,0.0,0.0,-1.8965,-1.8965,-1.9062,-1.9121,-1.9121,-1.9121,-1.918,-1.9287,-1.9568,-2.0409,-2.1856,-2.3409,-2.4059,-2.3924,-2.3409,-2.3998,-2.5421,-2.5639,-2.5754,-2.5741,-2.597,-2.6011,-2.594,-2.617,-2.6361,-2.6499,-2.6499,-2.6499,-2.6499,-2.6499,-2.6499,-2.6499,-2.6499,-2.6499,-2.6499,-2.6499,-2.6499,-2.6499,-2.6499,-2.5769,-2.4933,-2.4671,-2.3331,-2.2,-2.201,-2.127,-2.0605,-2.0605,-2.0605,-2.0605,-2.0605,-2.0605,-2.0605,-2.0605,-2.0605,-2.0605,-2.0605,-2.0605,-2.0605,-2.0605,-2.0605,-2.0605,-2.0605,-2.0605,-2.0605,-2.0605,-2.0605,-2.0605,-2.0605,-2.0605,-2.0605,-2.0605,-2.0605,-2.0605,-2.0605,-2.0605,-2.0605,-2.0605,-2.0488,-2.0439,-2.0429,-1.9844,-1.9879,0.0,0.0,0.0,0.0,0.0,0.0,0.0,0.0,0.0,0.0,0.0,0.0,0.0,0.0,0.0,0.0,0.0,0.0,0.0,0.0,0.0,0.0,0.0,0.0,0.0,0.0,0.0,0.0,0.0,-1.8076,-1.8076,-1.8422,-1.8637,-1.8637,-1.8637,-1.8867,-1.9287,-2.0232,-2.0941,-2.143,-2.2038,-2.2083,-2.1574,-2.2049,-2.2321,-2.248,-2.3305,-2.3652,-2.373,-2.4558,-2.4698,-2.4494,-2.5323,-2.6009,-2.6499,-2.6499,-2.6499,-2.6499,-2.6499,-2.6499,-2.6499,-2.6499,-2.6499,-2.6499,-2.6499,-2.6499,-2.6499,-2.6499,-2.5769,-2.4791,-2.3818,-2.2776,-2.1773,-2.0895,-2.0644,-2.0605,-2.0605,-2.0605,-2.0605,-2.0605,-2.0605,-2.0605,-2.0605,-2.0605,-2.0605,-2.0605,-2.0605,-2.0605,-2.0605,-2.0605,-2.0605,-2.0605,-2.0605,-2.0605,-2.0605,-2.0605,-2.0605,-2.0605,-2.0605,-2.0605,-2.0605,-2.0605,-2.0605,-2.0605,-2.0605,-2.0605,-2.0605,-2.0146,-1.9951,-1.9932,-1.9056,-1.9129,0.0,0.0,0.0,0.0,0.0,0.0,0.0,0.0,0.0,0.0,0.0,0.0,0.0,0.0,0.0,0.0,0.0,0.0,0.0,0.0,0.0,0.0,0.0,0.0,0.0,0.0,0.0,0.0,0.0,0.0,-1.8008,-1.8154,-1.8198,-1.8198,-1.8198,-1.8311,-1.8467,-1.937,-1.991,-2.0072,-2.0797,-2.106,-2.0859,-2.0511,-2.0654,-2.115,-2.0919,-2.1509,-2.274,-2.3613,-2.3887,-2.3865,-2.4756,-2.5222,-2.5448,-2.5787,-2.59,-2.5996,-2.6361,-2.6499,-2.6499,-2.6499,-2.6499,-2.6499,-2.6499,-2.6499,-2.6383,-2.5734,-2.4814,-2.3818,-2.2813,-2.1811,-2.1011,-2.0673,-2.0605,-2.0605,-2.0605,-2.0605,-2.0605,-2.0605,-2.0605,-2.0605,-2.0605,-2.0605,-2.0605,-2.0605,-2.0605,-2.0605,-2.0605,-2.0605,-2.0605,-2.0605,-2.0605,-2.0605,-2.0605,-2.0605,-2.0605,-2.0605,-2.0605,-2.0605,-2.0605,-2.0605,-2.0605,-2.0605,-2.0605,-2.0468,-2.0146,-1.999,-1.9775,-1.9502,-1.888,-1.8921,0.0,0.0,0.0,0.0,0.0,0.0,0.0,0.0,0.0,0.0,0.0,0.0,0.0,0.0,0.0,0.0,0.0,0.0,0.0,0.0,0.0,0.0,0.0,0.0,0.0,0.0,0.0,0.0,0.0,0.0,-1.7545,-1.7545,-1.7646,-1.7793,-1.7939,-1.8008,-1.8008,-1.8553,-1.8844,-1.8888,-1.9464,-1.9716,-1.9726,-1.9144,-1.9177,-1.9694,-1.911,-1.9746,-2.1295,-2.2177,-2.2645,-2.2864,-2.3754,-2.4387,-2.4825,-2.5209,-2.5335,-2.5385,-2.5774,-2.5946,-2.5946,-2.5946,-2.6059,-2.6197,-2.6197,-2.6336,-2.628,-2.53,-2.4264,-2.3257,-2.2253,-2.1298,-2.0605,-2.0605,-2.0605,-2.0605,-2.0605,-2.0605,-2.0605,-2.0605,-2.0605,-2.0605,-2.0605,-2.0605,-2.0605,-2.0605,-2.0605,-2.0605,-2.0605,-2.0605,-2.0605,-2.0605,-2.0605,-2.0605,-2.0605,-2.0605,-2.0605,-2.0605,-2.0605,-2.0605,-2.0605,-2.0605,-2.0605,-2.0605,-2.0458,-2.0137,-1.9707,-1.9707,-1.9482,-1.9053,-1.8623,-1.8627,0.0,0.0,0.0,0.0,0.0,0.0,0.0,0.0,0.0,0.0,0.0,0.0,0.0,0.0,0.0,0.0,0.0,0.0,0.0,0.0,0.0,0.0,0.0,0.0,0.0,0.0,0.0,0.0,0.0,-1.6697,-1.6697,-1.6697,-1.6892,-1.7344,-1.7764,-1.7978,-1.7978,-1.7978,-1.7978,-1.7988,-1.7988,-1.7998,-1.8008,-1.8008,-1.8008,-1.8008,-1.8008,-1.8496,-1.9332,-2.0204,-2.0871,-2.1462,-2.2336,-2.3522,-2.4738,-2.4763,-2.4763,-2.4763,-2.4775,-2.4788,-2.4788,-2.4788,-2.5159,-2.5573,-2.5573,-2.5996,-2.623,-2.5216,-2.423,-2.3235,-2.2215,-2.1298,-2.0605,-2.0605,-2.0605,-2.0605,-2.0605,-2.0605,-2.0605,-2.0605,-2.0605,-2.0605,-2.0605,-2.0605,-2.0605,-2.0605,-2.0605,-2.0605,-2.0605,-2.0605,-2.0605,-2.0605,-2.0605,-2.0605,-2.0605,-2.0605,-2.0605,-2.0605,-2.0605,-2.0605,-2.0605,-2.0605,-2.0605,-2.0605,-2.0137,-1.9707,-1.9287,-1.9277,-1.9043,-1.8568,-1.8223,-1.8227,-0.6406,0.0,0.0,0.0,0.0,0.0,0.0,0.0,0.0,0.0,0.0,0.0,0.0,0.0,0.0,0.0,0.0,0.0,0.0,0.0,0.0,0.0,0.0,0.0,0.0,0.0,0.0,0.0,-1.6697,-1.6697,-1.6697,-1.6697,-1.6755,-1.6882,-1.6989,-1.7058,-1.7058,-1.7058,-1.7246,-1.7559,-1.7559,-1.7715,-1.8008,-1.8008,-1.8008,-1.8008,-1.8008,-1.8144,-1.8428,-1.9299,-2.0118,-2.0921,-2.1764,-2.27,-2.3622,-2.4067,-2.423,-2.4293,-2.4682,-2.4788,-2.4788,-2.4788,-2.4888,-2.5034,-2.5034,-2.5146,-2.4917,-2.3293,-2.2884,-2.2633,-2.1331,-2.0789,-2.0605,-2.0605,-2.0605,-2.0605,-2.0605,-2.0605,-2.0605,-2.0605,-2.0605,-2.0605,-2.0605,-2.0605,-2.0605,-2.0605,-2.0605,-2.0605,-2.0605,-2.0605,-2.0605,-2.0605,-2.0605,-2.0605,-2.0605,-2.0605,-2.0605,-2.0605,-2.0605,-2.0605,-2.0605,-2.0605,-2.0605,-2.0605,-2.0137,-1.9707,-1.9287,-1.8965,-1.8568,-1.8159,-1.8701,-1.8828,0.0,0.0,0.0,0.0,0.0,0.0,0.0,0.0,0.0,0.0,0.0,0.0,0.0,0.0,0.0,0.0,0.0,0.0,0.0,0.0,0.0,0.0,0.0,0.0,0.0,0.0,0.0,-1.6151,-1.6151,-1.6151,-1.6151,-1.6348,-1.6455,-1.6455,-1.6599,-1.6697,-1.6697,-1.6697,-1.6833,-1.7109,-1.7109,-1.7246,-1.7447,-1.7666,-1.7744,-1.7764,-1.7939,-1.8008,-1.8042,-1.8563,-1.9497,-2.0655,-2.1164,-2.2063,-2.3145,-2.3484,-2.364,-2.369,-2.3973,-2.4086,-2.4086,-2.4086,-2.4249,-2.4481,-2.4481,-2.4362,-2.3956,-2.2423,-2.1655,-2.1099,-2.0252,-2.0067,-2.0116,-2.0254,-2.0293,-2.0342,-2.0566,-2.0605,-2.0605,-2.0605,-2.0605,-2.0605,-2.0605,-2.0605,-2.0605,-2.0605,-2.0605,-2.0605,-2.0605,-2.0605,-2.0605,-2.0605,-2.0605,-2.0605,-2.0605,-2.0605,-2.0605,-2.0605,-2.0605,-2.0605,-2.0605,-2.0429,-2.0293,-2.0293,-1.9687,-1.917,-1.875,-1.8637,-1.8383,-1.8027,-1.8701,-1.8841,0.0,0.0,0.0,0.0,0.0,0.0,-1.0743,-1.0352,0.0,0.0,0.0,0.0,0.0,0.0,0.0,0.0,0.0,0.0,0.0,0.0,0.0,0.0,0.0,0.0,0.0,-1.5273,-1.5293,-1.5342,-1.5381,-1.541,-1.541,-1.5811,-1.6016,-1.6016,-1.6377,-1.6551,-1.6551,-1.6551,-1.658,-1.6629,-1.6629,-1.6648,-1.6716,-1.7139,-1.7314,-1.7334,-1.7764,-1.7939,-1.7939,-1.7988,-1.9044,-2.059,-2.059,-2.1604,-2.3108,-2.3108,-2.3108,-2.3108,-2.3108,-2.3108,-2.3108,-2.3108,-2.3446,-2.3873,-2.381,-2.357,-2.3103,-2.2048,-2.0554,-1.9228,-1.9277,-1.9287,-1.9385,-1.9756,-1.9883,-1.9982,-2.0285,-2.0372,-2.0362,-2.0245,-2.044,-2.0566,-2.044,-2.0527,-2.0605,-2.0605,-2.0605,-2.0605,-2.0605,-2.0605,-2.0605,-2.0605,-2.0605,-2.0605,-2.0605,-2.0605,-2.0605,-2.0605,-2.0605,-2.0586,-2.0537,-2.0117,-1.9893,-1.9844,-1.9017,-1.8393,-1.8008,-1.8354,-1.8344,-1.8018,-1.8403,-1.8578,-0.9922,-1.0098,-1.0273,0.0,0.0,0.0,0.0,-0.9062,0.0,0.0,0.0,0.0,0.0,0.0,0.0,0.0,0.0,0.0,0.0,0.0,0.0,0.0,0.0,0.0,0.0,-1.4358,-1.4504,-1.4883,-1.5215,-1.541,-1.541,-1.5498,-1.5537,-1.5537,-1.5625,-1.5634,-1.5634,-1.5634,-1.585,-1.6222,-1.6222,-1.6387,-1.6697,-1.6785,-1.6824,-1.6853,-1.7314,-1.75,-1.7529,-1.7871,-1.9044,-2.059,-2.059,-2.1604,-2.3108,-2.3108,-2.3108,-2.3108,-2.3108,-2.3108,-2.3108,-2.3108,-2.3183,-2.3149,-2.2511,-2.226,-2.194,-2.0671,-1.9538,-1.8812,-1.9199,-1.9287,-1.9307,-1.9394,-1.9668,-1.9705,-1.8923,-1.9045,-1.9036,-1.8101,-1.9392,-2.0323,-1.9441,-2.004,-2.0605,-2.0605,-2.0605,-2.0605,-2.0605,-2.0605,-2.0605,-2.0605,-2.0605,-2.0605,-2.0605,-2.0605,-2.0605,-2.0605,-2.0605,-2.0449,-2.0059,-1.9961,-1.9756,-1.9414,-1.8861,-1.8393,-1.8008,-1.8086,-1.8086,-1.8018,-1.8403,-1.8422,0.0,0.0,-1.1154,-1.0703,0.0,0.0,0.0,0.0,0.0,0.0,0.0,0.0,0.0,0.0,0.0,0.0,0.0,0.0,0.0,0.0,0.0,0.0,0.0,0.0,0.0,-1.4104,-1.4202,-1.4443,-1.463,-1.4835,-1.5088,-1.5098,-1.5195,-1.5371,-1.541,-1.541,-1.541,-1.541,-1.5527,-1.5732,-1.5732,-1.5859,-1.6054,-1.6299,-1.6396,-1.6426,-1.6865,-1.7061,-1.709,-1.7519,-1.8451,-1.9672,-2.033,-2.1396,-2.2537,-2.2944,-2.3108,-2.3108,-2.3108,-2.3108,-2.3108,-2.3108,-2.2823,-2.2414,-2.2002,-2.1302,-2.0377,-1.9246,-1.8655,-1.8344,-1.8594,-1.8652,-1.8701,-1.8906,-1.8749,-1.8471,-1.8179,-1.7902,-1.7367,-1.6277,-1.7773,-1.92,-1.9012,-1.9883,-2.0605,-2.0605,-2.0605,-2.0605,-2.0605,-2.0605,-2.0605,-2.0605,-2.0605,-2.0517,-2.0254,-2.0244,-2.0184,-1.9941,-1.9959,-1.9834,-1.9609,-1.9394,-1.9046,-1.8662,-1.8437,-1.8188,-1.8008,-1.8008,-1.8008,-1.8018,-1.8223,-1.8178,0.0,0.0,0.0,0.0,0.0,-1.0654,0.0,0.0,0.0,-0.9723,0.0,0.0,0.0,0.0,0.0,0.0,0.0,0.0,0.0,0.0,0.0,0.0,0.0,0.0,0.0,-1.3734,-1.3812,-1.3977,-1.3909,-1.4094,-1.4629,-1.4658,-1.4853,-1.5273,-1.5293,-1.5332,-1.541,-1.541,-1.541,-1.541,-1.541,-1.541,-1.542,-1.5781,-1.5968,-1.5987,-1.6406,-1.657,-1.6609,-1.708,-1.7648,-1.8374,-1.9791,-2.0878,-2.171,-2.2372,-2.2628,-2.2628,-2.2628,-2.2628,-2.2628,-2.2628,-2.2063,-2.1396,-2.1396,-2.0301,-1.8911,-1.8202,-1.8008,-1.8008,-1.8008,-1.8008,-1.8096,-1.8403,-1.7965,-1.7532,-1.7669,-1.7024,-1.6114,-1.5211,-1.6396,-1.7748,-1.838,-1.9521,-2.0361,-2.0361,-2.0361,-2.039,-2.0468,-2.0478,-2.0478,-2.0478,-2.0478,-2.0264,-1.9824,-1.9795,-1.9648,-1.9307,-1.9287,-1.9248,-1.916,-1.875,-1.8325,-1.8018,-1.8008,-1.8008,-1.8008,-1.8008,-1.8008,-1.8008,-1.8008,-1.8008,0.0,0.0,0.0,0.0,-1.1787,0.0,0.0,0.0,-1.0001,-0.9249,0.0,0.0,0.0,0.0,0.0,0.0,0.0,0.0,0.0,0.0,0.0,0.0,0.0,0.0,0.0,0.0,-1.274,-1.35,-1.3232,-1.3369,-1.4143,-1.4182,-1.4377,-1.4844,-1.4882,-1.5039,-1.541,-1.541,-1.541,-1.541,-1.541,-1.541,-1.541,-1.5469,-1.5488,-1.5508,-1.5977,-1.6173,-1.6202,-1.6621,-1.6829,-1.7098,-1.8768,-1.9977,-2.0751,-2.0846,-2.0878,-2.0878,-2.0878,-2.0878,-2.0878,-2.0878,-2.0301,-1.9595,-1.9595,-1.8911,-1.8144,-1.8042,-1.8008,-1.8008,-1.8008,-1.8008,-1.8018,-1.8076,-1.8265,-1.8209,-1.7316,-1.6647,-1.6144,-1.5924,-1.6152,-1.6405,-1.6488,-1.8155,-1.9434,-1.9434,-1.9434,-1.957,-1.9941,-1.999,-1.999,-1.999,-1.999,-1.9814,-1.9394,-1.9355,-1.9336,-1.9287,-1.9287,-1.9111,-1.8695,-1.8276,-1.8057,-1.8008,-1.8008,-1.8008,-1.8008,-1.8008,-1.8008,-1.8008,-1.8008,-1.8008,0.0,0.0,0.0,0.0,0.0,0.0,-1.0495,0.0,-1.0147,0.0,0.0,0.0,0.0,0.0,0.0,0.0,0.0,0.0,0.0,0.0,0.0,0.0,0.0,0.0,0.0,0.0,0.0,0.0,0.0,-1.2621,-1.3685,-1.3743,-1.3938,-1.4367,-1.4658,-1.4873,-1.5049,-1.5293,-1.541,-1.541,-1.541,-1.541,-1.541,-1.541,-1.541,-1.542,-1.5605,-1.5684,-1.5723,-1.6162,-1.6338,-1.6437,-1.7418,-1.8321,-1.9151,-1.9647,-1.998,-2.0185,-2.0185,-2.0376,-2.0526,-2.0009,-1.9595,-1.921,-1.8687,-1.8303,-1.8008,-1.8008,-1.8008,-1.8008,-1.8008,-1.8008,-1.8008,-1.8008,-1.7703,-1.732,-1.6864,-1.616,-1.5609,-1.5536,-1.6001,-1.6435,-1.6435,-1.8052,-1.9287,-1.9287,-1.9287,-1.9346,-1.9531,-1.9551,-1.9551,-1.9551,-1.9551,-1.9375,-1.8945,-1.887,-1.8809,-1.8564,-1.8545,-1.8467,-1.8247,-1.8105,-1.8008,-1.8008,-1.8008,-1.8008,-1.8008,-1.8008,-1.8008,-1.8008,-1.8008,-1.8008,-1.1765,0.0,0.0,0.0,0.0,0.0,0.0,0.0,0.0,0.0,0.0,0.0,0.0,0.0,0.0,0.0,0.0,0.0,0.0,0.0,0.0,0.0,0.0,0.0,0.0,0.0,0.0,0.0,0.0,0.0,-1.3076,-1.3129,-1.3383,-1.3919,-1.4268,-1.4551,-1.4813,-1.5088,-1.5293,-1.541,-1.541,-1.541,-1.541,-1.541,-1.541,-1.541,-1.541,-1.541,-1.5439,-1.5782,-1.5919,-1.5948,-1.624,-1.6717,-1.7397,-1.8285,-1.877,-1.9054,-1.9184,-1.9511,-1.9792,-1.9144,-1.8944,-1.8821,-1.8202,-1.8008,-1.8008,-1.8008,-1.8008,-1.8008,-1.8008,-1.8008,-1.8008,-1.8008,-1.7467,-1.7001,-1.7001,-1.6254,-1.5658,-1.5913,-1.6324,-1.6671,-1.6957,-1.8075,-1.8936,-1.8936,-1.8936,-1.8975,-1.9092,-1.9111,-1.9111,-1.9111,-1.9111,-1.8936,-1.8461,-1.8432,-1.8295,-1.8027,-1.8008,-1.8008,-1.8008,-1.8008,-1.8008,-1.8008,-1.8008,-1.8008,-1.8008,-1.8008,-1.8008,-1.8008,-1.8008,-1.8008,0.0,0.0,0.0,-1.1171,0.0,0.0,0.0,0.0,-1.0548,0.0,0.0,0.0,0.0,0.0,0.0,0.0,0.0,0.0,0.0,0.0,0.0,0.0,0.0,0.0,0.0,0.0,0.0,0.0,0.0,0.0,-1.2155,-1.2242,-1.2632,-1.3496,-1.3545,-1.3945,-1.4775,-1.4795,-1.501,-1.541,-1.541,-1.541,-1.541,-1.541,-1.541,-1.541,-1.541,-1.541,-1.541,-1.543,-1.543,-1.543,-1.5449,-1.5449,-1.5586,-1.6478,-1.6801,-1.687,-1.7324,-1.7756,-1.8076,-1.8042,-1.8042,-1.8042,-1.8008,-1.8008,-1.8008,-1.8008,-1.8008,-1.8008,-1.8008,-1.8008,-1.8008,-1.8008,-1.7974,-1.7974,-1.7974,-1.7217,-1.6819,-1.7725,-1.7207,-1.6888,-1.7794,-1.7993,-1.8047,-1.8047,-1.8047,-1.8159,-1.8568,-1.8627,-1.8627,-1.8627,-1.8627,-1.8451,-1.8066,-1.8037,-1.8027,-1.8008,-1.8008,-1.8008,-1.8008,-1.8008,-1.8008,-1.8008,-1.8008,-1.8008,-1.8008,-1.8008,-1.8008,-1.8008,-1.8008,-1.8008,0.0,0.0,-1.0789,-1.0489,0.0,0.0,0.0,0.0,0.0,0.0,0.0,0.0,0.0,0.0,0.0,0.0,0.0,0.0,0.0,0.0,0.0,0.0,0.0,0.0,0.0,0.0,0.0,0.0,0.0,0.0,0.0,-1.25,-1.2793,-1.3086,-1.3359,-1.3643,-1.3936,-1.4502,-1.4863,-1.5,-1.5283,-1.541,-1.541,-1.541,-1.541,-1.541,-1.541,-1.541,-1.541,-1.541,-1.541,-1.541,-1.541,-1.541,-1.5449,-1.5722,-1.6045,-1.6396,-1.7129,-1.7471,-1.7637,-1.792,-1.8008,-1.8008,-1.8008,-1.8008,-1.8008,-1.8008,-1.8008,-1.8008,-1.8008,-1.8008,-1.8008,-1.8008,-1.8008,-1.8008,-1.8008,-1.7759,-1.7613,-1.794,-1.7759,-1.7647,-1.794,-1.8008,-1.8008,-1.8008,-1.8008,-1.8057,-1.8203,-1.8188,-1.8188,-1.8188,-1.8188,-1.8164,-1.8018,-1.8008,-1.8008,-1.8008,-1.8008,-1.8008,-1.8008,-1.8008,-1.8008,-1.8008,-1.8008,-1.8008,-1.8008,-1.8008,-1.7681,-1.707,-1.707,-1.707,-0.9788,-0.9961,0.0,-0.9969,-0.9572,0.0,-0.8638,0.0,0.0,0.0,0.0,0.0,0.0,0.0,0.0,0.0,0.0,0.0,0.0,0.0,0.0,0.0,0.0,0.0,0.0,0.0,-0.9416,-1.0596,0.0,0.0,0.0,0.0,-1.2725,-1.2895,-1.3145,-1.3359,-1.3506,-1.4053,-1.4482,-1.4785,-1.5059,-1.5264,-1.541,-1.541,-1.541,-1.541,-1.541,-1.541,-1.541,-1.541,-1.541,-1.541,-1.541,-1.541,-1.541,-1.541,-1.5693,-1.6193,-1.6894,-1.7256,-1.7484,-1.7871,-1.8008,-1.8008,-1.8008,-1.8008,-1.8008,-1.8008,-1.8008,-1.8008,-1.8008,-1.8008,-1.8008,-1.8008,-1.8008,-1.8008,-1.8008,-1.8008,-1.8008,-1.8008,-1.8008,-1.8008,-1.8008,-1.8008,-1.8008,-1.8008,-1.8008,-1.8008,-1.8008,-1.8008,-1.8008,-1.8008,-1.8008,-1.8008,-1.8008,-1.8008,-1.8008,-1.8008,-1.8008,-1.8008,-1.8008,-1.8008,-1.8008,-1.8008,-1.8008,-1.8008,-1.8008,-1.7647,-1.7182,-1.6593,-1.6245,-1.5895]}]]